Wetterdaten: Dienstag, 30.10.2018
Datum Zeit Temp. A. Pool Temp. Temp. 5cm Feuchte A. Luftdruck Regen Wind Richtung Richtung Sonnenschein ET UV Solar Taupunkt Windchill Windben Empfang
30.10.2018 00:00 17,6 C 10,0 C 15,0 C 66 % 989,0 hPa 0,0 l/m 7,8 km/h (2 Bft) O-NO 57 0 min 0,000 mm 0,0 UV-I 0 W/m 11,2 C 16,9 C 16,1 km/h (3 Bft) 100,00 %
30.10.2018 00:02 17,4 C 10,0 C 15,0 C 67 % 989,2 hPa 0,0 l/m 8,2 km/h (2 Bft) O-NO 69 0 min 0,000 mm 0,0 UV-I 0 W/m 11,2 C 16,5 C 11,3 km/h (2 Bft) 97,22 %
30.10.2018 00:04 17,3 C 10,0 C 14,4 C 68 % 989,6 hPa 0,0 l/m 11,5 km/h (2 Bft) O-NO 69 0 min 0,000 mm 0,0 UV-I 0 W/m 11,3 C 15,1 C 16,1 km/h (3 Bft) 100,00 %
30.10.2018 00:06 17,2 C 10,0 C 14,4 C 68 % 989,8 hPa 0,0 l/m 16,1 km/h (3 Bft) O 92 0 min 0,000 mm 0,0 UV-I 0 W/m 11,2 C 13,5 C 24,1 km/h (4 Bft) 100,00 %
30.10.2018 00:08 17,2 C 10,0 C 14,4 C 68 % 989,5 hPa 0,0 l/m 13,5 km/h (3 Bft) O-NO 67 0 min 0,000 mm 0,0 UV-I 0 W/m 11,2 C 14,3 C 19,3 km/h (3 Bft) 100,00 %
30.10.2018 00:10 17,2 C 10,0 C 14,4 C 69 % 989,7 hPa 0,0 l/m 13,3 km/h (3 Bft) O 92 0 min 0,000 mm 0,0 UV-I 0 W/m 11,5 C 14,4 C 20,9 km/h (4 Bft) 100,00 %
30.10.2018 00:12 17,1 C 10,0 C 14,4 C 69 % 989,6 hPa 0,0 l/m 16,7 km/h (3 Bft) O-NO 71 0 min 0,000 mm 0,0 UV-I 0 W/m 11,4 C 13,3 C 20,9 km/h (4 Bft) 100,00 %
30.10.2018 00:14 17,1 C 10,0 C 15,0 C 70 % 989,7 hPa 0,0 l/m 13,4 km/h (3 Bft) O-NO 75 0 min 0,000 mm 0,0 UV-I 0 W/m 11,6 C 14,2 C 19,3 km/h (3 Bft) 100,00 %
30.10.2018 00:16 16,9 C 10,0 C 15,0 C 70 % 990,1 hPa 0,0 l/m 12,0 km/h (2 Bft) NO 51 0 min 0,000 mm 0,0 UV-I 0 W/m 11,4 C 14,5 C 17,7 km/h (3 Bft) 100,00 %
30.10.2018 00:18 16,8 C 10,0 C 15,0 C 71 % 990,2 hPa 0,0 l/m 12,0 km/h (2 Bft) NO 52 0 min 0,000 mm 0,0 UV-I 0 W/m 11,5 C 14,3 C 20,9 km/h (4 Bft) 97,37 %
30.10.2018 00:20 16,7 C 10,0 C 15,0 C 71 % 990,4 hPa 0,0 l/m 12,1 km/h (2 Bft) O-NO 74 0 min 0,000 mm 0,0 UV-I 0 W/m 11,4 C 14,2 C 16,1 km/h (3 Bft) 100,00 %
30.10.2018 00:22 16,7 C 10,0 C 14,4 C 72 % 990,5 hPa 0,0 l/m 10,6 km/h (2 Bft) O 93 0 min 0,000 mm 0,0 UV-I 0 W/m 11,6 C 14,8 C 14,5 km/h (3 Bft) 96,23 %
30.10.2018 00:24 16,7 C 10,0 C 14,4 C 72 % 990,3 hPa 0,0 l/m 10,6 km/h (2 Bft) O-NO 76 0 min 0,000 mm 0,0 UV-I 0 W/m 11,6 C 14,8 C 17,7 km/h (3 Bft) 100,00 %
30.10.2018 00:26 16,7 C 10,0 C 14,4 C 72 % 990,3 hPa 0,0 l/m 12,9 km/h (3 Bft) O-NO 70 0 min 0,000 mm 0,0 UV-I 0 W/m 11,6 C 13,9 C 19,3 km/h (3 Bft) 95,74 %
30.10.2018 00:28 16,8 C 10,0 C 14,4 C 72 % 990,4 hPa 0,0 l/m 9,7 km/h (2 Bft) SO 130 0 min 0,000 mm 0,0 UV-I 0 W/m 11,7 C 15,2 C 14,5 km/h (3 Bft) 97,87 %
30.10.2018 00:30 16,7 C 10,0 C 14,4 C 72 % 990,2 hPa 0,0 l/m 10,0 km/h (2 Bft) O 97 0 min 0,000 mm 0,0 UV-I 0 W/m 11,6 C 15,0 C 22,5 km/h (4 Bft) 94,00 %
30.10.2018 00:32 16,8 C 10,0 C 14,4 C 72 % 990,2 hPa 0,0 l/m 15,5 km/h (3 Bft) O-SO 117 0 min 0,000 mm 0,0 UV-I 0 W/m 11,7 C 13,2 C 22,5 km/h (4 Bft) 95,45 %
30.10.2018 00:34 16,8 C 10,0 C 14,4 C 73 % 990,0 hPa 0,0 l/m 15,2 km/h (3 Bft) O-SO 109 0 min 0,000 mm 0,0 UV-I 0 W/m 11,9 C 13,3 C 20,9 km/h (4 Bft) 94,00 %
30.10.2018 00:36 16,8 C 10,0 C 13,9 C 73 % 990,0 hPa 0,0 l/m 13,7 km/h (3 Bft) O 92 0 min 0,000 mm 0,0 UV-I 0 W/m 11,9 C 13,8 C 20,9 km/h (4 Bft) 95,74 %
30.10.2018 00:38 16,8 C 10,0 C 13,9 C 73 % 989,8 hPa 0,0 l/m 11,4 km/h (2 Bft) O 101 0 min 0,000 mm 0,0 UV-I 0 W/m 11,9 C 14,6 C 19,3 km/h (3 Bft) 94,00 %
30.10.2018 00:40 16,7 C 10,0 C 13,9 C 74 % 989,6 hPa 0,2 l/m 16,8 km/h (3 Bft) O-SO 117 0 min 0,000 mm 0,0 UV-I 0 W/m 12,0 C 12,7 C 24,1 km/h (4 Bft) 95,74 %
30.10.2018 00:42 16,6 C 10,0 C 13,9 C 75 % 989,5 hPa 0,0 l/m 16,7 km/h (3 Bft) SO 127 0 min 0,000 mm 0,0 UV-I 0 W/m 12,1 C 12,6 C 25,7 km/h (4 Bft) 96,00 %
30.10.2018 00:44 16,6 C 10,0 C 13,9 C 75 % 989,4 hPa 0,0 l/m 16,3 km/h (3 Bft) SO 144 0 min 0,000 mm 0,0 UV-I 0 W/m 12,1 C 12,8 C 30,6 km/h (5 Bft) 94,74 %
30.10.2018 00:46 16,5 C 10,0 C 13,3 C 75 % 989,0 hPa 0,0 l/m 13,0 km/h (3 Bft) O 95 0 min 0,000 mm 0,0 UV-I 0 W/m 12,1 C 13,6 C 24,1 km/h (4 Bft) 96,00 %
30.10.2018 00:48 16,6 C 10,0 C 13,3 C 75 % 988,4 hPa 0,0 l/m 19,8 km/h (3 Bft) O-SO 109 0 min 0,000 mm 0,0 UV-I 0 W/m 12,1 C 11,9 C 29,0 km/h (5 Bft) 98,00 %
30.10.2018 00:50 16,6 C 10,0 C 13,9 C 75 % 988,4 hPa 0,0 l/m 21,1 km/h (4 Bft) SO 146 0 min 0,000 mm 0,0 UV-I 0 W/m 12,1 C 11,6 C 29,0 km/h (5 Bft) 97,73 %
30.10.2018 00:52 16,6 C 10,0 C 13,9 C 75 % 988,5 hPa 0,0 l/m 23,1 km/h (4 Bft) O-SO 123 0 min 0,000 mm 0,0 UV-I 0 W/m 12,1 C 11,1 C 37,0 km/h (5 Bft) 96,00 %
30.10.2018 00:54 16,6 C 10,0 C 13,3 C 75 % 988,3 hPa 0,0 l/m 21,1 km/h (4 Bft) S-SO 159 0 min 0,000 mm 0,0 UV-I 0 W/m 12,1 C 11,6 C 32,2 km/h (5 Bft) 97,87 %
30.10.2018 00:56 16,6 C 10,0 C 13,9 C 75 % 989,4 hPa 0,0 l/m 20,0 km/h (4 Bft) SO 138 0 min 0,000 mm 0,0 UV-I 0 W/m 12,1 C 11,8 C 40,2 km/h (6 Bft) 97,44 %
30.10.2018 00:58 16,6 C 10,0 C 13,9 C 75 % 989,7 hPa 0,0 l/m 29,3 km/h (5 Bft) S-SO 162 0 min 0,000 mm 0,0 UV-I 0 W/m 12,1 C 10,0 C 45,1 km/h (6 Bft) 96,43 %
30.10.2018 01:00 16,7 C 10,0 C 13,9 C 74 % 989,8 hPa 0,0 l/m 30,2 km/h (5 Bft) S 171 0 min 0,051 mm 0,0 UV-I 0 W/m 12,0 C 10,0 C 49,9 km/h (6 Bft) 97,87 %
30.10.2018 01:02 16,7 C 10,0 C 13,9 C 74 % 990,1 hPa 0,0 l/m 26,3 km/h (4 Bft) S-SO 161 0 min 0,000 mm 0,0 UV-I 0 W/m 12,0 C 10,7 C 35,4 km/h (5 Bft) 97,37 %
30.10.2018 01:04 16,7 C 10,0 C 13,9 C 74 % 990,2 hPa 0,0 l/m 24,0 km/h (4 Bft) S 178 0 min 0,000 mm 0,0 UV-I 0 W/m 12,0 C 11,1 C 37,0 km/h (5 Bft) 98,00 %
30.10.2018 01:06 16,7 C 10,0 C 13,9 C 74 % 990,2 hPa 0,0 l/m 23,3 km/h (4 Bft) S-SO 153 0 min 0,000 mm 0,0 UV-I 0 W/m 12,0 C 11,2 C 35,4 km/h (5 Bft) 100,00 %
30.10.2018 01:08 16,7 C 10,0 C 13,9 C 74 % 990,2 hPa 0,0 l/m 23,1 km/h (4 Bft) S-SO 153 0 min 0,000 mm 0,0 UV-I 0 W/m 12,0 C 11,3 C 37,0 km/h (5 Bft) 98,00 %
30.10.2018 01:10 16,7 C 10,0 C 13,9 C 73 % 989,9 hPa 0,0 l/m 30,3 km/h (5 Bft) SO 139 0 min 0,000 mm 0,0 UV-I 0 W/m 11,8 C 10,0 C 48,3 km/h (6 Bft) 97,56 %
30.10.2018 01:12 16,8 C 10,0 C 13,3 C 73 % 989,6 hPa 0,0 l/m 19,4 km/h (3 Bft) S-SO 150 0 min 0,000 mm 0,0 UV-I 0 W/m 11,9 C 12,2 C 32,2 km/h (5 Bft) 100,00 %
30.10.2018 01:14 16,7 C 10,0 C 13,3 C 72 % 989,2 hPa 0,0 l/m 27,5 km/h (4 Bft) O-SO 106 0 min 0,000 mm 0,0 UV-I 0 W/m 11,6 C 10,5 C 37,0 km/h (5 Bft) 100,00 %
30.10.2018 01:16 16,8 C 10,0 C 13,3 C 72 % 989,0 hPa 0,0 l/m 26,7 km/h (4 Bft) O-SO 113 0 min 0,000 mm 0,0 UV-I 0 W/m 11,7 C 10,7 C 43,5 km/h (6 Bft) 100,00 %
30.10.2018 01:18 16,8 C 10,0 C 13,3 C 72 % 988,5 hPa 0,0 l/m 26,2 km/h (4 Bft) O 84 0 min 0,000 mm 0,0 UV-I 0 W/m 11,7 C 10,8 C 40,2 km/h (6 Bft) 100,00 %
30.10.2018 01:20 16,8 C 10,0 C 13,3 C 70 % 988,6 hPa 0,0 l/m 30,6 km/h (5 Bft) O-SO 122 0 min 0,000 mm 0,0 UV-I 0 W/m 11,3 C 10,1 C 49,9 km/h (6 Bft) 100,00 %
30.10.2018 01:22 16,8 C 10,0 C 13,3 C 70 % 988,9 hPa 0,0 l/m 28,4 km/h (4 Bft) O-SO 105 0 min 0,000 mm 0,0 UV-I 0 W/m 11,3 C 10,5 C 48,3 km/h (6 Bft) 98,00 %
30.10.2018 01:24 16,9 C 10,0 C 13,3 C 71 % 989,2 hPa 0,0 l/m 28,8 km/h (4 Bft) O 97 0 min 0,000 mm 0,0 UV-I 0 W/m 11,6 C 10,5 C 46,7 km/h (6 Bft) 100,00 %
30.10.2018 01:26 16,8 C 10,0 C 13,3 C 71 % 989,6 hPa 0,0 l/m 26,6 km/h (4 Bft) S 169 0 min 0,000 mm 0,0 UV-I 0 W/m 11,5 C 10,8 C 41,8 km/h (6 Bft) 100,00 %
30.10.2018 01:28 16,7 C 10,0 C 13,3 C 71 % 990,0 hPa 0,0 l/m 30,0 km/h (5 Bft) SO 132 0 min 0,000 mm 0,0 UV-I 0 W/m 11,4 C 10,1 C 46,7 km/h (6 Bft) 100,00 %
30.10.2018 01:30 16,6 C 10,0 C 13,3 C 71 % 990,0 hPa 0,0 l/m 27,3 km/h (4 Bft) SO 128 0 min 0,000 mm 0,0 UV-I 0 W/m 11,3 C 10,4 C 46,7 km/h (6 Bft) 100,00 %
30.10.2018 01:32 16,5 C 10,0 C 13,3 C 70 % 990,1 hPa 0,0 l/m 27,4 km/h (4 Bft) S-SO 168 0 min 0,000 mm 0,0 UV-I 0 W/m 11,0 C 10,2 C 46,7 km/h (6 Bft) 97,37 %
30.10.2018 01:34 16,6 C 10,0 C 13,3 C 67 % 990,0 hPa 0,2 l/m 37,2 km/h (5 Bft) SO 133 0 min 0,000 mm 0,0 UV-I 0 W/m 10,4 C 9,0 C 66,0 km/h (8 Bft) 97,87 %
30.10.2018 01:36 16,7 C 10,0 C 13,9 C 67 % 990,0 hPa 0,0 l/m 32,8 km/h (5 Bft) S-SO 158 0 min 0,000 mm 0,0 UV-I 0 W/m 10,5 C 9,7 C 53,1 km/h (7 Bft) 98,00 %
30.10.2018 01:38 16,8 C 10,0 C 13,9 C 65 % 989,9 hPa 0,0 l/m 28,7 km/h (4 Bft) S-SO 168 0 min 0,000 mm 0,0 UV-I 0 W/m 10,2 C 10,4 C 53,1 km/h (7 Bft) 98,00 %
30.10.2018 01:40 16,8 C 10,0 C 13,9 C 63 % 989,8 hPa 0,0 l/m 30,3 km/h (5 Bft) SO 131 0 min 0,000 mm 0,0 UV-I 0 W/m 9,7 C 10,2 C 46,7 km/h (6 Bft) 97,87 %
30.10.2018 01:42 16,9 C 10,0 C 13,9 C 62 % 989,8 hPa 0,0 l/m 29,6 km/h (5 Bft) SO 133 0 min 0,000 mm 0,0 UV-I 0 W/m 9,6 C 10,4 C 48,3 km/h (6 Bft) 97,56 %
30.10.2018 01:44 17,0 C 10,0 C 14,4 C 62 % 989,6 hPa 0,0 l/m 37,9 km/h (5 Bft) S 182 0 min 0,000 mm 0,0 UV-I 0 W/m 9,7 C 9,5 C 51,5 km/h (7 Bft) 98,11 %
30.10.2018 01:46 17,0 C 10,0 C 14,4 C 62 % 989,5 hPa 0,0 l/m 29,3 km/h (5 Bft) SO 124 0 min 0,000 mm 0,0 UV-I 0 W/m 9,7 C 10,6 C 40,2 km/h (6 Bft) 97,37 %
30.10.2018 01:48 17,0 C 10,0 C 14,4 C 61 % 990,0 hPa 0,0 l/m 28,7 km/h (4 Bft) S 173 0 min 0,000 mm 0,0 UV-I 0 W/m 9,4 C 10,7 C 45,1 km/h (6 Bft) 98,00 %
30.10.2018 01:50 17,0 C 10,0 C 14,4 C 60 % 990,2 hPa 0,0 l/m 24,5 km/h (4 Bft) S-SO 162 0 min 0,000 mm 0,0 UV-I 0 W/m 9,2 C 11,4 C 41,8 km/h (6 Bft) 94,00 %
30.10.2018 01:52 17,0 C 10,0 C 14,4 C 59 % 990,1 hPa 0,0 l/m 31,6 km/h (5 Bft) S-SO 153 0 min 0,000 mm 0,0 UV-I 0 W/m 8,9 C 10,3 C 54,7 km/h (7 Bft) 96,00 %
30.10.2018 01:54 17,1 C 10,0 C 15,0 C 58 % 990,2 hPa 0,0 l/m 26,9 km/h (4 Bft) SO 145 0 min 0,000 mm 0,0 UV-I 0 W/m 8,8 C 11,1 C 46,7 km/h (6 Bft) 92,11 %
30.10.2018 01:56 17,1 C 10,0 C 15,0 C 58 % 990,3 hPa 0,0 l/m 19,6 km/h (3 Bft) SO 136 0 min 0,000 mm 0,0 UV-I 0 W/m 8,8 C 12,6 C 33,8 km/h (5 Bft) 92,68 %
30.10.2018 01:58 17,0 C 10,0 C 15,0 C 58 % 990,3 hPa 0,0 l/m 21,6 km/h (4 Bft) SO 141 0 min 0,000 mm 0,0 UV-I 0 W/m 8,7 C 12,0 C 29,0 km/h (5 Bft) 94,34 %
30.10.2018 02:00 16,8 C 10,0 C 14,4 C 59 % 990,3 hPa 0,0 l/m 21,3 km/h (4 Bft) O-SO 113 0 min 0,127 mm 0,0 UV-I 0 W/m 8,7 C 11,8 C 33,8 km/h (5 Bft) 94,34 %
30.10.2018 02:02 16,8 C 10,0 C 14,4 C 59 % 990,5 hPa 0,0 l/m 22,0 km/h (4 Bft) O-SO 118 0 min 0,000 mm 0,0 UV-I 0 W/m 8,7 C 11,6 C 35,4 km/h (5 Bft) 95,74 %
30.10.2018 02:04 16,7 C 10,0 C 13,9 C 59 % 990,7 hPa 0,0 l/m 14,7 km/h (3 Bft) O-SO 114 0 min 0,000 mm 0,0 UV-I 0 W/m 8,6 C 13,3 C 27,4 km/h (4 Bft) 95,74 %
30.10.2018 02:06 16,6 C 10,0 C 13,9 C 59 % 990,7 hPa 0,0 l/m 12,8 km/h (3 Bft) O-SO 119 0 min 0,000 mm 0,0 UV-I 0 W/m 8,6 C 13,8 C 22,5 km/h (4 Bft) 96,00 %
30.10.2018 02:08 16,5 C 10,0 C 13,9 C 59 % 990,8 hPa 0,0 l/m 9,5 km/h (2 Bft) S-SO 147 0 min 0,000 mm 0,0 UV-I 0 W/m 8,5 C 15,0 C 17,7 km/h (3 Bft) 97,62 %
30.10.2018 02:10 16,4 C 10,0 C 13,9 C 60 % 990,8 hPa 0,0 l/m 13,3 km/h (3 Bft) S-SO 155 0 min 0,000 mm 0,0 UV-I 0 W/m 8,6 C 13,4 C 19,3 km/h (3 Bft) 95,45 %
30.10.2018 02:12 16,3 C 10,0 C 13,9 C 59 % 990,8 hPa 0,0 l/m 22,0 km/h (4 Bft) S-SO 158 0 min 0,000 mm 0,0 UV-I 0 W/m 8,3 C 11,0 C 38,6 km/h (5 Bft) 92,86 %
30.10.2018 02:14 16,4 C 10,0 C 13,9 C 59 % 990,7 hPa 0,0 l/m 18,0 km/h (3 Bft) O-SO 113 0 min 0,000 mm 0,0 UV-I 0 W/m 8,4 C 12,0 C 30,6 km/h (5 Bft) 97,56 %
30.10.2018 02:16 16,3 C 10,0 C 13,3 C 59 % 990,6 hPa 0,0 l/m 10,5 km/h (2 Bft) O-SO 123 0 min 0,000 mm 0,0 UV-I 0 W/m 8,3 C 14,3 C 14,5 km/h (3 Bft) 97,56 %
30.10.2018 02:18 16,3 C 10,0 C 13,3 C 58 % 990,7 hPa 0,0 l/m 14,9 km/h (3 Bft) O 96 0 min 0,000 mm 0,0 UV-I 0 W/m 8,0 C 12,8 C 24,1 km/h (4 Bft) 96,00 %
30.10.2018 02:20 16,3 C 10,0 C 13,3 C 57 % 990,9 hPa 0,0 l/m 18,7 km/h (3 Bft) SO 136 0 min 0,000 mm 0,0 UV-I 0 W/m 7,8 C 11,7 C 24,1 km/h (4 Bft) 98,11 %
30.10.2018 02:22 16,3 C 10,0 C 13,3 C 57 % 990,9 hPa 0,0 l/m 17,4 km/h (3 Bft) O-SO 111 0 min 0,000 mm 0,0 UV-I 0 W/m 7,8 C 12,1 C 29,0 km/h (5 Bft) 97,37 %
30.10.2018 02:24 16,3 C 10,0 C 13,3 C 58 % 991,0 hPa 0,0 l/m 14,7 km/h (3 Bft) O-SO 115 0 min 0,000 mm 0,0 UV-I 0 W/m 8,0 C 12,9 C 22,5 km/h (4 Bft) 98,11 %
30.10.2018 02:26 16,3 C 10,0 C 13,3 C 57 % 990,9 hPa 0,0 l/m 14,3 km/h (3 Bft) S-SO 150 0 min 0,000 mm 0,0 UV-I 0 W/m 7,8 C 13,0 C 20,9 km/h (4 Bft) 97,56 %
30.10.2018 02:28 16,3 C 10,0 C 13,3 C 56 % 990,9 hPa 0,0 l/m 14,2 km/h (3 Bft) O-SO 119 0 min 0,000 mm 0,0 UV-I 0 W/m 7,5 C 13,0 C 22,5 km/h (4 Bft) 98,21 %
30.10.2018 02:30 16,4 C 10,0 C 13,9 C 54 % 990,8 hPa 0,0 l/m 14,1 km/h (3 Bft) S 180 0 min 0,000 mm 0,0 UV-I 0 W/m 7,1 C 13,2 C 24,1 km/h (4 Bft) 97,56 %
30.10.2018 02:32 16,4 C 10,0 C 13,3 C 54 % 990,9 hPa 0,0 l/m 11,3 km/h (2 Bft) O-SO 123 0 min 0,000 mm 0,0 UV-I 0 W/m 7,1 C 14,1 C 22,5 km/h (4 Bft) 96,00 %
30.10.2018 02:34 16,5 C 10,0 C 13,3 C 52 % 991,0 hPa 0,0 l/m 18,9 km/h (3 Bft) O-SO 112 0 min 0,000 mm 0,0 UV-I 0 W/m 6,6 C 11,9 C 25,7 km/h (4 Bft) 94,74 %
30.10.2018 02:36 16,5 C 10,0 C 13,3 C 52 % 991,0 hPa 0,0 l/m 13,0 km/h (3 Bft) SO 136 0 min 0,000 mm 0,0 UV-I 0 W/m 6,6 C 13,6 C 30,6 km/h (5 Bft) 93,22 %
30.10.2018 02:38 16,5 C 10,0 C 13,3 C 51 % 991,1 hPa 0,0 l/m 14,2 km/h (3 Bft) SO 144 0 min 0,000 mm 0,0 UV-I 0 W/m 6,3 C 13,3 C 24,1 km/h (4 Bft) 97,37 %
30.10.2018 02:40 16,6 C 10,0 C 13,3 C 51 % 991,1 hPa 0,0 l/m 13,7 km/h (3 Bft) SO 137 0 min 0,000 mm 0,0 UV-I 0 W/m 6,4 C 13,5 C 24,1 km/h (4 Bft) 93,62 %
30.10.2018 02:42 16,6 C 10,0 C 13,3 C 50 % 991,0 hPa 0,0 l/m 11,1 km/h (2 Bft) SO 124 0 min 0,000 mm 0,0 UV-I 0 W/m 6,1 C 14,4 C 16,1 km/h (3 Bft) 90,57 %
30.10.2018 02:44 16,6 C 10,0 C 13,3 C 50 % 990,9 hPa 0,0 l/m 14,1 km/h (3 Bft) O-SO 103 0 min 0,000 mm 0,0 UV-I 0 W/m 6,1 C 13,4 C 25,7 km/h (4 Bft) 93,62 %
30.10.2018 02:46 16,6 C 10,0 C 13,3 C 50 % 991,0 hPa 0,0 l/m 13,9 km/h (3 Bft) SO 139 0 min 0,000 mm 0,0 UV-I 0 W/m 6,1 C 13,5 C 24,1 km/h (4 Bft) 94,44 %
30.10.2018 02:48 16,7 C 10,0 C 13,9 C 49 % 991,0 hPa 0,0 l/m 23,4 km/h (4 Bft) SO 143 0 min 0,000 mm 0,0 UV-I 0 W/m 5,9 C 11,2 C 38,6 km/h (5 Bft) 96,08 %
30.10.2018 02:50 16,8 C 10,0 C 13,9 C 49 % 990,9 hPa 0,0 l/m 22,5 km/h (4 Bft) SO 138 0 min 0,000 mm 0,0 UV-I 0 W/m 6,0 C 11,5 C 33,8 km/h (5 Bft) 96,23 %
30.10.2018 02:52 16,8 C 10,0 C 14,4 C 48 % 991,0 hPa 0,0 l/m 18,4 km/h (3 Bft) SO 125 0 min 0,000 mm 0,0 UV-I 0 W/m 5,7 C 12,5 C 27,4 km/h (4 Bft) 94,00 %
30.10.2018 02:54 16,7 C 10,0 C 13,9 C 48 % 991,0 hPa 0,0 l/m 15,8 km/h (3 Bft) SO 132 0 min 0,000 mm 0,0 UV-I 0 W/m 5,6 C 13,0 C 24,1 km/h (4 Bft) 97,56 %
30.10.2018 02:56 16,7 C 10,0 C 13,9 C 49 % 991,0 hPa 0,0 l/m 18,4 km/h (3 Bft) SO 144 0 min 0,000 mm 0,0 UV-I 0 W/m 5,9 C 12,3 C 25,7 km/h (4 Bft) 94,00 %
30.10.2018 02:58 16,7 C 10,0 C 13,9 C 49 % 991,0 hPa 0,0 l/m 18,9 km/h (3 Bft) S-SO 153 0 min 0,000 mm 0,0 UV-I 0 W/m 5,9 C 12,2 C 24,1 km/h (4 Bft) 95,45 %
30.10.2018 03:00 16,6 C 10,0 C 13,9 C 49 % 991,1 hPa 0,0 l/m 14,0 km/h (3 Bft) S-SO 147 0 min 0,101 mm 0,0 UV-I 0 W/m 5,8 C 13,4 C 20,9 km/h (4 Bft) 97,56 %
30.10.2018 03:02 16,5 C 10,0 C 13,3 C 49 % 991,1 hPa 0,0 l/m 14,6 km/h (3 Bft) O-SO 111 0 min 0,000 mm 0,0 UV-I 0 W/m 5,8 C 13,1 C 22,5 km/h (4 Bft) 97,87 %
30.10.2018 03:04 16,4 C 10,0 C 13,3 C 49 % 991,3 hPa 0,0 l/m 16,5 km/h (3 Bft) SO 139 0 min 0,000 mm 0,0 UV-I 0 W/m 5,7 C 12,5 C 24,1 km/h (4 Bft) 98,21 %
30.10.2018 03:06 16,4 C 10,0 C 13,3 C 49 % 991,3 hPa 0,0 l/m 16,1 km/h (3 Bft) SO 131 0 min 0,000 mm 0,0 UV-I 0 W/m 5,7 C 12,6 C 27,4 km/h (4 Bft) 97,87 %
30.10.2018 03:08 16,4 C 10,0 C 13,9 C 48 % 991,3 hPa 0,0 l/m 20,9 km/h (4 Bft) S-SO 150 0 min 0,000 mm 0,0 UV-I 0 W/m 5,4 C 11,3 C 37,0 km/h (5 Bft) 100,00 %
30.10.2018 03:10 16,4 C 10,0 C 13,9 C 49 % 991,4 hPa 0,0 l/m 15,1 km/h (3 Bft) SO 143 0 min 0,000 mm 0,0 UV-I 0 W/m 5,7 C 12,9 C 25,7 km/h (4 Bft) 98,11 %
30.10.2018 03:12 16,3 C 10,0 C 13,3 C 49 % 991,4 hPa 0,0 l/m 13,2 km/h (3 Bft) SO 124 0 min 0,000 mm 0,0 UV-I 0 W/m 5,6 C 13,3 C 17,7 km/h (3 Bft) 100,00 %
30.10.2018 03:14 16,2 C 10,0 C 13,3 C 48 % 991,3 hPa 0,0 l/m 15,5 km/h (3 Bft) SO 134 0 min 0,000 mm 0,0 UV-I 0 W/m 5,2 C 12,5 C 22,5 km/h (4 Bft) 100,00 %
30.10.2018 03:16 16,3 C 10,0 C 13,3 C 48 % 991,3 hPa 0,0 l/m 10,8 km/h (2 Bft) S 171 0 min 0,000 mm 0,0 UV-I 0 W/m 5,3 C 14,2 C 16,1 km/h (3 Bft) 98,00 %
30.10.2018 03:18 16,3 C 10,0 C 13,9 C 48 % 991,2 hPa 0,0 l/m 16,4 km/h (3 Bft) S 186 0 min 0,000 mm 0,0 UV-I 0 W/m 5,3 C 12,4 C 29,0 km/h (5 Bft) 97,56 %
30.10.2018 03:20 16,4 C 10,0 C 13,9 C 47 % 991,2 hPa 0,0 l/m 14,9 km/h (3 Bft) SO 127 0 min 0,000 mm 0,0 UV-I 0 W/m 5,1 C 12,9 C 25,7 km/h (4 Bft) 97,62 %
30.10.2018 03:22 16,4 C 10,0 C 13,9 C 48 % 991,3 hPa 0,0 l/m 15,3 km/h (3 Bft) S 177 0 min 0,000 mm 0,0 UV-I 0 W/m 5,4 C 12,8 C 27,4 km/h (4 Bft) 98,18 %
30.10.2018 03:24 16,3 C 10,0 C 13,9 C 47 % 991,5 hPa 0,0 l/m 20,9 km/h (4 Bft) S 170 0 min 0,000 mm 0,0 UV-I 0 W/m 5,0 C 11,2 C 32,2 km/h (5 Bft) 97,62 %
30.10.2018 03:26 16,4 C 10,0 C 13,9 C 47 % 991,5 hPa 0,0 l/m 18,8 km/h (3 Bft) S 170 0 min 0,000 mm 0,0 UV-I 0 W/m 5,1 C 11,8 C 33,8 km/h (5 Bft) 97,87 %
30.10.2018 03:28 16,5 C 10,0 C 13,9 C 47 % 991,5 hPa 0,0 l/m 17,8 km/h (3 Bft) S-SO 152 0 min 0,000 mm 0,0 UV-I 0 W/m 5,2 C 12,2 C 24,1 km/h (4 Bft) 98,11 %
30.10.2018 03:30 16,4 C 10,0 C 13,9 C 47 % 991,6 hPa 0,0 l/m 22,3 km/h (4 Bft) SO 146 0 min 0,000 mm 0,0 UV-I 0 W/m 5,1 C 11,0 C 40,2 km/h (6 Bft) 97,37 %
30.10.2018 03:32 16,5 C 10,0 C 14,4 C 46 % 991,6 hPa 0,0 l/m 19,0 km/h (3 Bft) S 176 0 min 0,000 mm 0,0 UV-I 0 W/m 4,8 C 11,9 C 29,0 km/h (5 Bft) 98,00 %
30.10.2018 03:34 16,5 C 10,0 C 14,4 C 46 % 991,6 hPa 0,0 l/m 18,4 km/h (3 Bft) S 173 0 min 0,000 mm 0,0 UV-I 0 W/m 4,8 C 12,1 C 33,8 km/h (5 Bft) 95,74 %
30.10.2018 03:37 16,5 C 10,0 C 14,4 C 47 % 991,5 hPa 0,0 l/m 18,6 km/h (3 Bft) SO 124 0 min 0,000 mm 0,0 UV-I 0 W/m 5,2 C 12,0 C 32,2 km/h (5 Bft) 97,47 %
30.10.2018 03:38 16,4 C 10,0 C 14,4 C 47 % 991,5 hPa 0,0 l/m 22,2 km/h (4 Bft) S-SO 151 0 min 0,000 mm 0,0 UV-I 0 W/m 5,1 C 11,1 C 32,2 km/h (5 Bft) 100,00 %
30.10.2018 03:40 16,3 C 10,0 C 14,4 C 47 % 991,5 hPa 0,0 l/m 21,6 km/h (4 Bft) S-SO 148 0 min 0,000 mm 0,0 UV-I 0 W/m 5,0 C 11,1 C 35,4 km/h (5 Bft) 100,00 %
30.10.2018 03:42 16,4 C 10,0 C 14,4 C 47 % 991,6 hPa 0,0 l/m 19,6 km/h (3 Bft) S 184 0 min 0,000 mm 0,0 UV-I 0 W/m 5,1 C 11,6 C 27,4 km/h (4 Bft) 98,11 %
30.10.2018 03:45 16,4 C 10,0 C 14,4 C 47 % 991,7 hPa 0,0 l/m 19,4 km/h (3 Bft) S 184 0 min 0,000 mm 0,0 UV-I 0 W/m 5,1 C 11,7 C 32,2 km/h (5 Bft) 100,00 %
30.10.2018 03:46 16,4 C 10,0 C 14,4 C 47 % 991,6 hPa 0,0 l/m 22,0 km/h (4 Bft) S-SO 167 0 min 0,000 mm 0,0 UV-I 0 W/m 5,1 C 11,1 C 29,0 km/h (5 Bft) 100,00 %
30.10.2018 03:48 16,4 C 10,0 C 14,4 C 47 % 991,6 hPa 0,0 l/m 17,5 km/h (3 Bft) SO 142 0 min 0,000 mm 0,0 UV-I 0 W/m 5,1 C 12,2 C 35,4 km/h (5 Bft) 100,00 %
30.10.2018 03:50 16,3 C 10,0 C 13,9 C 48 % 991,7 hPa 0,0 l/m 13,7 km/h (3 Bft) SO 141 0 min 0,000 mm 0,0 UV-I 0 W/m 5,3 C 13,2 C 20,9 km/h (4 Bft) 100,00 %
30.10.2018 03:52 16,2 C 10,0 C 13,9 C 48 % 991,6 hPa 0,0 l/m 18,8 km/h (3 Bft) S 174 0 min 0,000 mm 0,0 UV-I 0 W/m 5,2 C 11,6 C 30,6 km/h (5 Bft) 100,00 %
30.10.2018 03:55 16,3 C 10,0 C 13,9 C 47 % 991,7 hPa 0,0 l/m 18,7 km/h (3 Bft) S-SW 199 0 min 0,000 mm 0,0 UV-I 0 W/m 5,0 C 11,7 C 32,2 km/h (5 Bft) 100,00 %
30.10.2018 03:56 16,3 C 10,0 C 13,9 C 47 % 991,7 hPa 0,0 l/m 18,5 km/h (3 Bft) S-SO 165 0 min 0,000 mm 0,0 UV-I 0 W/m 5,0 C 11,8 C 32,2 km/h (5 Bft) 100,00 %
30.10.2018 03:58 16,3 C 10,0 C 14,4 C 47 % 991,8 hPa 0,0 l/m 26,9 km/h (4 Bft) S 170 0 min 0,000 mm 0,0 UV-I 0 W/m 5,0 C 10,0 C 40,2 km/h (6 Bft) 98,00 %
30.10.2018 04:00 16,4 C 10,0 C 14,4 C 47 % 991,7 hPa 0,0 l/m 23,4 km/h (4 Bft) SO 132 0 min 0,127 mm 0,0 UV-I 0 W/m 5,1 C 10,8 C 30,6 km/h (5 Bft) 97,62 %
30.10.2018 04:02 16,4 C 10,0 C 14,4 C 47 % 991,7 hPa 0,0 l/m 23,9 km/h (4 Bft) SO 144 0 min 0,000 mm 0,0 UV-I 0 W/m 5,1 C 10,7 C 33,8 km/h (5 Bft) 100,00 %
30.10.2018 04:04 16,5 C 10,0 C 14,4 C 46 % 991,8 hPa 0,0 l/m 21,7 km/h (4 Bft) S-SO 162 0 min 0,000 mm 0,0 UV-I 0 W/m 4,8 C 11,3 C 37,0 km/h (5 Bft) 100,00 %
30.10.2018 04:06 16,5 C 10,0 C 14,4 C 46 % 991,9 hPa 0,0 l/m 24,0 km/h (4 Bft) S-SO 168 0 min 0,000 mm 0,0 UV-I 0 W/m 4,8 C 10,8 C 38,6 km/h (5 Bft) 100,00 %
30.10.2018 04:08 16,5 C 10,0 C 14,4 C 46 % 991,9 hPa 0,0 l/m 24,0 km/h (4 Bft) S-SO 157 0 min 0,000 mm 0,0 UV-I 0 W/m 4,8 C 10,8 C 35,4 km/h (5 Bft) 100,00 %
30.10.2018 04:10 16,5 C 10,0 C 14,4 C 46 % 991,9 hPa 0,0 l/m 22,3 km/h (4 Bft) S-SO 152 0 min 0,000 mm 0,0 UV-I 0 W/m 4,8 C 11,2 C 40,2 km/h (6 Bft) 100,00 %
30.10.2018 04:12 16,4 C 10,0 C 14,4 C 47 % 991,8 hPa 0,0 l/m 15,6 km/h (3 Bft) S 173 0 min 0,000 mm 0,0 UV-I 0 W/m 5,1 C 12,7 C 25,7 km/h (4 Bft) 97,37 %
30.10.2018 04:14 16,3 C 10,0 C 13,9 C 47 % 991,9 hPa 0,0 l/m 20,4 km/h (4 Bft) S-SW 198 0 min 0,000 mm 0,0 UV-I 0 W/m 5,0 C 11,3 C 35,4 km/h (5 Bft) 100,00 %
30.10.2018 04:16 16,3 C 10,0 C 14,4 C 47 % 991,9 hPa 0,0 l/m 22,4 km/h (4 Bft) S 175 0 min 0,000 mm 0,0 UV-I 0 W/m 5,0 C 10,9 C 37,0 km/h (5 Bft) 100,00 %
30.10.2018 04:18 16,2 C 10,0 C 14,4 C 48 % 992,0 hPa 0,0 l/m 25,5 km/h (4 Bft) S 180 0 min 0,000 mm 0,0 UV-I 0 W/m 5,2 C 10,1 C 41,8 km/h (6 Bft) 100,00 %
30.10.2018 04:20 16,2 C 10,0 C 14,4 C 48 % 992,0 hPa 0,0 l/m 28,8 km/h (4 Bft) S-SO 167 0 min 0,000 mm 0,0 UV-I 0 W/m 5,2 C 9,6 C 59,5 km/h (7 Bft) 100,00 %
30.10.2018 04:22 16,1 C 10,0 C 13,9 C 49 % 992,0 hPa 0,0 l/m 26,4 km/h (4 Bft) S-SO 167 0 min 0,000 mm 0,0 UV-I 0 W/m 5,4 C 9,8 C 38,6 km/h (5 Bft) 100,00 %
30.10.2018 04:24 16,1 C 10,0 C 13,9 C 49 % 992,0 hPa 0,0 l/m 24,1 km/h (4 Bft) S 173 0 min 0,000 mm 0,0 UV-I 0 W/m 5,4 C 10,3 C 37,0 km/h (5 Bft) 100,00 %
30.10.2018 04:26 15,9 C 10,0 C 13,9 C 49 % 992,0 hPa 0,0 l/m 19,5 km/h (3 Bft) SO 146 0 min 0,000 mm 0,0 UV-I 0 W/m 5,2 C 11,0 C 29,0 km/h (5 Bft) 100,00 %
30.10.2018 04:28 15,8 C 10,0 C 13,9 C 50 % 992,0 hPa 0,0 l/m 21,3 km/h (4 Bft) S 174 0 min 0,000 mm 0,0 UV-I 0 W/m 5,4 C 10,5 C 30,6 km/h (5 Bft) 100,00 %
30.10.2018 04:30 15,8 C 10,0 C 13,9 C 50 % 992,1 hPa 0,0 l/m 18,8 km/h (3 Bft) S 173 0 min 0,000 mm 0,0 UV-I 0 W/m 5,4 C 11,1 C 27,4 km/h (4 Bft) 100,00 %
30.10.2018 04:32 15,7 C 10,0 C 13,9 C 50 % 992,1 hPa 0,0 l/m 19,3 km/h (3 Bft) SO 146 0 min 0,000 mm 0,0 UV-I 0 W/m 5,3 C 10,8 C 30,6 km/h (5 Bft) 98,00 %
30.10.2018 04:34 15,7 C 10,0 C 13,9 C 51 % 992,1 hPa 0,0 l/m 20,7 km/h (4 Bft) SO 143 0 min 0,000 mm 0,0 UV-I 0 W/m 5,6 C 10,5 C 32,2 km/h (5 Bft) 94,74 %
30.10.2018 04:36 15,6 C 10,0 C 13,3 C 51 % 992,2 hPa 0,0 l/m 17,1 km/h (3 Bft) S-SW 213 0 min 0,000 mm 0,0 UV-I 0 W/m 5,5 C 11,3 C 32,2 km/h (5 Bft) 98,11 %
30.10.2018 04:38 15,5 C 10,0 C 13,3 C 51 % 992,1 hPa 0,0 l/m 21,5 km/h (4 Bft) S-SO 164 0 min 0,000 mm 0,0 UV-I 0 W/m 5,4 C 10,0 C 40,2 km/h (6 Bft) 96,00 %
30.10.2018 04:40 15,4 C 10,0 C 13,3 C 51 % 992,1 hPa 0,0 l/m 20,8 km/h (4 Bft) S-SO 153 0 min 0,000 mm 0,0 UV-I 0 W/m 5,3 C 10,1 C 32,2 km/h (5 Bft) 95,45 %
30.10.2018 04:42 15,4 C 10,0 C 13,9 C 51 % 992,1 hPa 0,0 l/m 30,7 km/h (5 Bft) S 169 0 min 0,000 mm 0,0 UV-I 0 W/m 5,3 C 8,1 C 48,3 km/h (6 Bft) 94,00 %
30.10.2018 04:44 15,5 C 10,0 C 13,9 C 51 % 992,1 hPa 0,0 l/m 33,1 km/h (5 Bft) S-SW 201 0 min 0,000 mm 0,0 UV-I 0 W/m 5,4 C 7,9 C 51,5 km/h (7 Bft) 94,87 %
30.10.2018 04:46 15,6 C 10,0 C 13,9 C 50 % 992,1 hPa 0,0 l/m 31,5 km/h (5 Bft) S-SW 192 0 min 0,000 mm 0,0 UV-I 0 W/m 5,2 C 8,3 C 53,1 km/h (7 Bft) 94,00 %
30.10.2018 04:48 15,6 C 10,0 C 13,9 C 50 % 992,1 hPa 0,0 l/m 30,9 km/h (5 Bft) S 171 0 min 0,000 mm 0,0 UV-I 0 W/m 5,2 C 8,4 C 48,3 km/h (6 Bft) 96,00 %
30.10.2018 04:50 15,6 C 10,0 C 13,9 C 50 % 992,0 hPa 0,0 l/m 32,6 km/h (5 Bft) S-SO 149 0 min 0,000 mm 0,0 UV-I 0 W/m 5,2 C 8,1 C 46,7 km/h (6 Bft) 92,68 %
30.10.2018 04:52 15,7 C 10,0 C 13,9 C 49 % 992,0 hPa 0,0 l/m 29,9 km/h (5 Bft) SO 145 0 min 0,000 mm 0,0 UV-I 0 W/m 5,0 C 8,7 C 46,7 km/h (6 Bft) 96,00 %
30.10.2018 04:54 15,6 C 10,0 C 13,9 C 49 % 992,0 hPa 0,0 l/m 24,3 km/h (4 Bft) SO 128 0 min 0,000 mm 0,0 UV-I 0 W/m 4,9 C 9,6 C 38,6 km/h (5 Bft) 95,12 %
30.10.2018 04:56 15,6 C 10,0 C 13,9 C 49 % 991,9 hPa 0,0 l/m 24,3 km/h (4 Bft) SO 138 0 min 0,000 mm 0,0 UV-I 0 W/m 4,9 C 9,6 C 38,6 km/h (5 Bft) 92,45 %
30.10.2018 04:58 15,5 C 10,0 C 13,9 C 50 % 992,0 hPa 0,0 l/m 25,3 km/h (4 Bft) S 173 0 min 0,000 mm 0,0 UV-I 0 W/m 5,1 C 9,2 C 40,2 km/h (6 Bft) 92,00 %
30.10.2018 05:00 15,4 C 10,0 C 13,3 C 50 % 991,9 hPa 0,0 l/m 21,9 km/h (4 Bft) SO 133 0 min 0,153 mm 0,0 UV-I 0 W/m 5,0 C 9,8 C 35,4 km/h (5 Bft) 97,37 %
30.10.2018 05:02 15,3 C 10,0 C 13,3 C 51 % 992,0 hPa 0,0 l/m 23,8 km/h (4 Bft) S 181 0 min 0,000 mm 0,0 UV-I 0 W/m 5,2 C 9,3 C 37,0 km/h (5 Bft) 94,44 %
30.10.2018 05:04 15,2 C 10,0 C 13,3 C 51 % 992,0 hPa 0,0 l/m 25,1 km/h (4 Bft) S 186 0 min 0,000 mm 0,0 UV-I 0 W/m 5,1 C 8,9 C 45,1 km/h (6 Bft) 96,72 %
30.10.2018 05:06 15,2 C 10,0 C 13,3 C 52 % 992,1 hPa 0,0 l/m 23,5 km/h (4 Bft) S 180 0 min 0,000 mm 0,0 UV-I 0 W/m 5,4 C 9,2 C 35,4 km/h (5 Bft) 100,00 %
30.10.2018 05:08 15,2 C 10,0 C 13,3 C 52 % 992,2 hPa 0,0 l/m 24,8 km/h (4 Bft) S 173 0 min 0,000 mm 0,0 UV-I 0 W/m 5,4 C 8,9 C 38,6 km/h (5 Bft) 97,87 %
30.10.2018 05:10 15,2 C 10,0 C 13,3 C 51 % 992,2 hPa 0,0 l/m 23,9 km/h (4 Bft) S-SW 195 0 min 0,000 mm 0,0 UV-I 0 W/m 5,1 C 9,1 C 33,8 km/h (5 Bft) 100,00 %
30.10.2018 05:12 15,2 C 10,0 C 13,3 C 52 % 992,3 hPa 0,0 l/m 18,0 km/h (3 Bft) S 171 0 min 0,000 mm 0,0 UV-I 0 W/m 5,4 C 10,5 C 27,4 km/h (4 Bft) 100,00 %
30.10.2018 05:14 15,1 C 10,0 C 13,3 C 52 % 992,3 hPa 0,0 l/m 27,4 km/h (4 Bft) S 172 0 min 0,000 mm 0,0 UV-I 0 W/m 5,3 C 8,3 C 53,1 km/h (7 Bft) 100,00 %
30.10.2018 05:16 15,1 C 10,0 C 13,3 C 52 % 992,4 hPa 0,0 l/m 22,6 km/h (4 Bft) S-SO 163 0 min 0,000 mm 0,0 UV-I 0 W/m 5,3 C 9,3 C 33,8 km/h (5 Bft) 100,00 %
30.10.2018 05:18 15,1 C 10,0 C 13,3 C 52 % 992,5 hPa 0,0 l/m 20,0 km/h (4 Bft) SO 138 0 min 0,000 mm 0,0 UV-I 0 W/m 5,3 C 9,9 C 29,0 km/h (5 Bft) 100,00 %
30.10.2018 05:20 15,1 C 10,0 C 13,3 C 52 % 992,6 hPa 0,0 l/m 25,4 km/h (4 Bft) S-SO 165 0 min 0,000 mm 0,0 UV-I 0 W/m 5,3 C 8,7 C 35,4 km/h (5 Bft) 100,00 %
30.10.2018 05:22 15,1 C 10,0 C 13,3 C 52 % 992,7 hPa 0,0 l/m 22,6 km/h (4 Bft) S 178 0 min 0,000 mm 0,0 UV-I 0 W/m 5,3 C 9,3 C 37,0 km/h (5 Bft) 98,11 %
30.10.2018 05:24 15,1 C 10,0 C 13,3 C 51 % 992,7 hPa 0,0 l/m 20,2 km/h (4 Bft) S-SO 147 0 min 0,000 mm 0,0 UV-I 0 W/m 5,0 C 9,8 C 33,8 km/h (5 Bft) 100,00 %
30.10.2018 05:26 15,1 C 10,0 C 13,3 C 52 % 992,7 hPa 0,0 l/m 16,9 km/h (3 Bft) S-SO 168 0 min 0,000 mm 0,0 UV-I 0 W/m 5,3 C 10,7 C 27,4 km/h (4 Bft) 100,00 %
30.10.2018 05:28 15,0 C 10,0 C 13,3 C 52 % 992,6 hPa 0,0 l/m 22,1 km/h (4 Bft) S 171 0 min 0,000 mm 0,0 UV-I 0 W/m 5,2 C 9,2 C 40,2 km/h (6 Bft) 100,00 %
30.10.2018 05:30 15,0 C 10,0 C 13,3 C 52 % 992,7 hPa 0,0 l/m 21,5 km/h (4 Bft) S 172 0 min 0,000 mm 0,0 UV-I 0 W/m 5,2 C 9,4 C 41,8 km/h (6 Bft) 100,00 %
30.10.2018 05:32 14,9 C 10,0 C 12,8 C 52 % 992,6 hPa 0,0 l/m 15,3 km/h (3 Bft) SO 130 0 min 0,000 mm 0,0 UV-I 0 W/m 5,1 C 11,0 C 24,1 km/h (4 Bft) 100,00 %
30.10.2018 05:34 14,9 C 10,0 C 12,8 C 52 % 992,6 hPa 0,0 l/m 23,1 km/h (4 Bft) SO 141 0 min 0,000 mm 0,0 UV-I 0 W/m 5,1 C 8,9 C 32,2 km/h (5 Bft) 100,00 %
30.10.2018 05:36 14,8 C 10,0 C 12,8 C 52 % 992,6 hPa 0,0 l/m 21,7 km/h (4 Bft) S 169 0 min 0,000 mm 0,0 UV-I 0 W/m 5,0 C 9,1 C 38,6 km/h (5 Bft) 100,00 %
30.10.2018 05:38 14,8 C 10,0 C 12,8 C 52 % 992,4 hPa 0,0 l/m 21,9 km/h (4 Bft) SO 142 0 min 0,000 mm 0,0 UV-I 0 W/m 5,0 C 9,0 C 45,1 km/h (6 Bft) 100,00 %
30.10.2018 05:40 14,8 C 10,0 C 12,8 C 52 % 992,4 hPa 0,0 l/m 25,3 km/h (4 Bft) S 169 0 min 0,000 mm 0,0 UV-I 0 W/m 5,0 C 8,3 C 40,2 km/h (6 Bft) 100,00 %
30.10.2018 05:42 14,8 C 10,0 C 12,8 C 52 % 992,5 hPa 0,0 l/m 21,3 km/h (4 Bft) S-SO 147 0 min 0,000 mm 0,0 UV-I 0 W/m 5,0 C 9,2 C 33,8 km/h (5 Bft) 100,00 %
30.10.2018 05:44 14,8 C 10,0 C 13,3 C 51 % 992,5 hPa 0,0 l/m 27,4 km/h (4 Bft) SO 146 0 min 0,000 mm 0,0 UV-I 0 W/m 4,8 C 7,9 C 43,5 km/h (6 Bft) 97,56 %
30.10.2018 05:46 14,8 C 10,0 C 13,3 C 51 % 992,6 hPa 0,0 l/m 22,9 km/h (4 Bft) S 180 0 min 0,000 mm 0,0 UV-I 0 W/m 4,8 C 8,8 C 41,8 km/h (6 Bft) 100,00 %
30.10.2018 05:48 14,8 C 10,0 C 13,3 C 51 % 992,6 hPa 0,0 l/m 25,5 km/h (4 Bft) S 169 0 min 0,000 mm 0,0 UV-I 0 W/m 4,8 C 8,2 C 48,3 km/h (6 Bft) 100,00 %
30.10.2018 05:50 14,9 C 10,0 C 13,3 C 51 % 992,5 hPa 0,0 l/m 24,0 km/h (4 Bft) S-SO 154 0 min 0,000 mm 0,0 UV-I 0 W/m 4,9 C 8,7 C 38,6 km/h (5 Bft) 100,00 %
30.10.2018 05:52 14,8 C 10,0 C 13,3 C 51 % 992,7 hPa 0,0 l/m 27,4 km/h (4 Bft) S-SO 168 0 min 0,000 mm 0,0 UV-I 0 W/m 4,8 C 7,9 C 43,5 km/h (6 Bft) 100,00 %
30.10.2018 05:54 14,8 C 10,0 C 13,3 C 51 % 992,5 hPa 0,0 l/m 23,8 km/h (4 Bft) S-SO 147 0 min 0,000 mm 0,0 UV-I 0 W/m 4,8 C 8,6 C 38,6 km/h (5 Bft) 98,00 %
30.10.2018 05:56 14,8 C 10,0 C 13,3 C 51 % 992,5 hPa 0,0 l/m 25,5 km/h (4 Bft) S-SO 154 0 min 0,000 mm 0,0 UV-I 0 W/m 4,8 C 8,2 C 40,2 km/h (6 Bft) 100,00 %
30.10.2018 05:58 14,8 C 10,0 C 12,8 C 52 % 992,6 hPa 0,0 l/m 25,3 km/h (4 Bft) S 169 0 min 0,000 mm 0,0 UV-I 0 W/m 5,0 C 8,3 C 40,2 km/h (6 Bft) 98,31 %
30.10.2018 06:00 14,7 C 10,0 C 12,8 C 52 % 992,5 hPa 0,0 l/m 22,7 km/h (4 Bft) S-SO 167 0 min 0,127 mm 0,0 UV-I 0 W/m 5,0 C 8,7 C 38,6 km/h (5 Bft) 100,00 %
30.10.2018 06:02 14,6 C 10,0 C 12,8 C 53 % 992,7 hPa 0,0 l/m 24,4 km/h (4 Bft) S-SO 157 0 min 0,000 mm 0,0 UV-I 0 W/m 5,1 C 8,2 C 40,2 km/h (6 Bft) 96,00 %
30.10.2018 06:04 14,4 C 10,0 C 12,8 C 54 % 992,7 hPa 0,0 l/m 22,4 km/h (4 Bft) S-SO 167 0 min 0,000 mm 0,0 UV-I 0 W/m 5,2 C 8,4 C 33,8 km/h (5 Bft) 97,56 %
30.10.2018 06:06 14,4 C 10,0 C 12,8 C 54 % 992,7 hPa 0,0 l/m 29,7 km/h (5 Bft) S-SO 155 0 min 0,000 mm 0,0 UV-I 0 W/m 5,2 C 6,9 C 45,1 km/h (6 Bft) 97,73 %
30.10.2018 06:08 14,4 C 10,0 C 12,8 C 54 % 992,6 hPa 0,0 l/m 31,3 km/h (5 Bft) S-SO 150 0 min 0,000 mm 0,0 UV-I 0 W/m 5,2 C 6,6 C 53,1 km/h (7 Bft) 98,00 %
30.10.2018 06:10 14,4 C 10,0 C 12,8 C 54 % 992,6 hPa 0,0 l/m 24,1 km/h (4 Bft) SO 137 0 min 0,000 mm 0,0 UV-I 0 W/m 5,2 C 8,0 C 38,6 km/h (5 Bft) 98,00 %
30.10.2018 06:12 14,3 C 10,0 C 12,8 C 55 % 992,7 hPa 0,0 l/m 25,5 km/h (4 Bft) S-SO 156 0 min 0,000 mm 0,0 UV-I 0 W/m 5,4 C 7,6 C 43,5 km/h (6 Bft) 95,12 %
30.10.2018 06:14 14,3 C 10,0 C 12,8 C 54 % 992,7 hPa 0,0 l/m 27,5 km/h (4 Bft) S 180 0 min 0,000 mm 0,0 UV-I 0 W/m 5,1 C 7,2 C 35,4 km/h (5 Bft) 95,45 %
30.10.2018 06:16 14,3 C 10,0 C 12,8 C 55 % 992,8 hPa 0,0 l/m 23,7 km/h (4 Bft) S-SW 193 0 min 0,000 mm 0,0 UV-I 0 W/m 5,4 C 7,9 C 33,8 km/h (5 Bft) 96,61 %
30.10.2018 06:18 14,3 C 10,0 C 12,8 C 55 % 992,8 hPa 0,0 l/m 23,1 km/h (4 Bft) S-SO 150 0 min 0,000 mm 0,0 UV-I 0 W/m 5,4 C 8,1 C 46,7 km/h (6 Bft) 92,11 %
30.10.2018 06:20 14,2 C 10,0 C 12,8 C 55 % 992,8 hPa 0,0 l/m 23,0 km/h (4 Bft) S-SO 148 0 min 0,000 mm 0,0 UV-I 0 W/m 5,3 C 8,0 C 43,5 km/h (6 Bft) 96,43 %
30.10.2018 06:22 14,3 C 10,0 C 12,8 C 54 % 992,6 hPa 0,0 l/m 24,2 km/h (4 Bft) S 173 0 min 0,000 mm 0,0 UV-I 0 W/m 5,1 C 7,8 C 37,0 km/h (5 Bft) 95,12 %
30.10.2018 06:24 14,3 C 10,0 C 12,8 C 54 % 992,5 hPa 0,0 l/m 19,0 km/h (3 Bft) S-SO 150 0 min 0,000 mm 0,0 UV-I 0 W/m 5,1 C 9,1 C 41,8 km/h (6 Bft) 95,74 %
30.10.2018 06:26 14,2 C 10,0 C 12,8 C 55 % 992,5 hPa 0,0 l/m 23,0 km/h (4 Bft) S-SO 165 0 min 0,000 mm 0,0 UV-I 0 W/m 5,3 C 8,0 C 40,2 km/h (6 Bft) 94,00 %
30.10.2018 06:28 14,1 C 10,0 C 12,2 C 56 % 992,5 hPa 0,0 l/m 21,3 km/h (4 Bft) S-SO 148 0 min 0,000 mm 0,0 UV-I 0 W/m 5,5 C 8,2 C 35,4 km/h (5 Bft) 95,74 %
30.10.2018 06:30 14,0 C 10,0 C 12,2 C 56 % 992,4 hPa 0,0 l/m 25,1 km/h (4 Bft) SO 146 0 min 0,000 mm 0,0 UV-I 0 W/m 5,4 C 7,2 C 38,6 km/h (5 Bft) 96,00 %
30.10.2018 06:32 13,9 C 10,0 C 12,2 C 56 % 992,5 hPa 0,0 l/m 24,4 km/h (4 Bft) S-SO 153 0 min 0,000 mm 0,0 UV-I 0 W/m 5,3 C 7,2 C 38,6 km/h (5 Bft) 95,12 %
30.10.2018 06:34 14,0 C 10,0 C 12,2 C 56 % 992,5 hPa 0,0 l/m 21,8 km/h (4 Bft) S-SO 167 0 min 0,000 mm 0,0 UV-I 0 W/m 5,4 C 8,0 C 37,0 km/h (5 Bft) 97,62 %
30.10.2018 06:36 13,9 C 10,0 C 12,2 C 56 % 992,6 hPa 0,0 l/m 29,2 km/h (5 Bft) SO 142 0 min 0,000 mm 0,0 UV-I 5 W/m 5,3 C 6,3 C 40,2 km/h (6 Bft) 94,64 %
30.10.2018 06:38 14,0 C 10,0 C 12,8 C 55 % 992,6 hPa 0,0 l/m 28,3 km/h (4 Bft) SO 129 0 min 0,000 mm 0,0 UV-I 5 W/m 5,1 C 6,6 C 37,0 km/h (5 Bft) 95,12 %
30.10.2018 06:40 14,1 C 10,0 C 12,8 C 55 % 992,5 hPa 0,0 l/m 27,1 km/h (4 Bft) S 174 0 min 0,000 mm 0,0 UV-I 5 W/m 5,2 C 7,0 C 38,6 km/h (5 Bft) 94,34 %
30.10.2018 06:42 14,2 C 10,0 C 12,8 C 55 % 992,5 hPa 0,0 l/m 22,6 km/h (4 Bft) SO 126 0 min 0,000 mm 0,0 UV-I 5 W/m 5,3 C 8,1 C 35,4 km/h (5 Bft) 94,74 %
30.10.2018 06:44 14,2 C 10,0 C 12,8 C 54 % 992,5 hPa 0,0 l/m 25,3 km/h (4 Bft) S-SO 155 0 min 0,000 mm 0,0 UV-I 7 W/m 5,0 C 7,5 C 41,8 km/h (6 Bft) 96,00 %
30.10.2018 06:46 14,3 C 10,0 C 12,8 C 54 % 992,5 hPa 0,0 l/m 22,7 km/h (4 Bft) S 174 0 min 0,000 mm 0,0 UV-I 7 W/m 5,1 C 8,2 C 33,8 km/h (5 Bft) 96,00 %
30.10.2018 06:48 14,3 C 10,0 C 12,8 C 53 % 992,4 hPa 0,0 l/m 25,0 km/h (4 Bft) S-SO 162 0 min 0,000 mm 0,0 UV-I 7 W/m 4,9 C 7,7 C 41,8 km/h (6 Bft) 95,12 %
30.10.2018 06:50 14,3 C 10,0 C 12,8 C 53 % 992,4 hPa 0,0 l/m 21,1 km/h (4 Bft) SO 140 0 min 0,000 mm 0,0 UV-I 9 W/m 4,9 C 8,6 C 33,8 km/h (5 Bft) 94,00 %
30.10.2018 06:52 14,3 C 10,0 C 12,8 C 53 % 992,4 hPa 0,0 l/m 20,1 km/h (4 Bft) S-SO 158 0 min 0,000 mm 0,0 UV-I 9 W/m 4,9 C 8,8 C 30,6 km/h (5 Bft) 94,34 %
30.10.2018 06:54 14,3 C 10,0 C 12,2 C 53 % 992,4 hPa 0,0 l/m 16,8 km/h (3 Bft) S 175 0 min 0,000 mm 0,0 UV-I 11 W/m 4,9 C 9,8 C 25,7 km/h (4 Bft) 96,15 %
30.10.2018 06:56 14,2 C 10,0 C 12,2 C 53 % 992,2 hPa 0,0 l/m 18,5 km/h (3 Bft) S-SO 165 0 min 0,000 mm 0,0 UV-I 11 W/m 4,8 C 9,1 C 27,4 km/h (4 Bft) 92,65 %
30.10.2018 06:58 14,2 C 10,0 C 12,2 C 53 % 992,2 hPa 0,0 l/m 22,5 km/h (4 Bft) S-SO 158 2 min 0,000 mm 0,0 UV-I 12 W/m 4,8 C 8,1 C 33,8 km/h (5 Bft) 97,37 %
30.10.2018 07:00 14,2 C 10,0 C 12,2 C 53 % 992,2 hPa 0,0 l/m 21,9 km/h (4 Bft) S-SO 150 0 min 0,127 mm 0,0 UV-I 13 W/m 4,8 C 8,2 C 37,0 km/h (5 Bft) 94,00 %
30.10.2018 07:02 14,2 C 10,0 C 12,2 C 52 % 992,1 hPa 0,0 l/m 26,6 km/h (4 Bft) S 175 0 min 0,000 mm 0,0 UV-I 14 W/m 4,5 C 7,2 C 46,7 km/h (6 Bft) 96,00 %
30.10.2018 07:04 14,3 C 10,0 C 12,2 C 52 % 992,2 hPa 0,0 l/m 27,0 km/h (4 Bft) S 173 0 min 0,000 mm 0,0 UV-I 14 W/m 4,6 C 7,3 C 45,1 km/h (6 Bft) 95,24 %
30.10.2018 07:06 14,3 C 10,0 C 12,2 C 51 % 992,2 hPa 0,0 l/m 25,4 km/h (4 Bft) S-SO 152 0 min 0,000 mm 0,0 UV-I 16 W/m 4,3 C 7,6 C 41,8 km/h (6 Bft) 94,74 %
30.10.2018 07:08 14,3 C 10,0 C 12,8 C 51 % 992,1 hPa 0,0 l/m 21,5 km/h (4 Bft) SO 146 0 min 0,000 mm 0,0 UV-I 16 W/m 4,3 C 8,5 C 43,5 km/h (6 Bft) 98,00 %
30.10.2018 07:10 14,3 C 10,0 C 12,8 C 51 % 991,9 hPa 0,0 l/m 19,4 km/h (3 Bft) S-SO 161 0 min 0,000 mm 0,0 UV-I 16 W/m 4,3 C 9,0 C 29,0 km/h (5 Bft) 98,08 %
30.10.2018 07:12 14,3 C 10,0 C 12,2 C 51 % 991,9 hPa 0,0 l/m 22,8 km/h (4 Bft) SO 134 0 min 0,000 mm 0,0 UV-I 17 W/m 4,3 C 8,1 C 35,4 km/h (5 Bft) 96,23 %
30.10.2018 07:14 14,3 C 10,0 C 12,8 C 50 % 991,9 hPa 0,0 l/m 25,2 km/h (4 Bft) S-SO 153 0 min 0,000 mm 0,0 UV-I 22 W/m 4,0 C 7,6 C 38,6 km/h (5 Bft) 97,56 %
30.10.2018 07:16 14,4 C 10,0 C 12,8 C 50 % 991,8 hPa 0,0 l/m 25,0 km/h (4 Bft) S 190 0 min 0,000 mm 0,0 UV-I 35 W/m 4,1 C 7,8 C 35,4 km/h (5 Bft) 96,23 %
30.10.2018 07:18 14,5 C 10,0 C 12,8 C 50 % 991,8 hPa 0,0 l/m 19,4 km/h (3 Bft) SO 136 2 min 0,000 mm 0,0 UV-I 59 W/m 4,2 C 9,3 C 33,8 km/h (5 Bft) 100,00 %
30.10.2018 07:20 14,4 C 10,0 C 12,8 C 50 % 991,7 hPa 0,0 l/m 20,6 km/h (4 Bft) S-SO 148 2 min 0,000 mm 0,0 UV-I 68 W/m 4,1 C 8,8 C 32,2 km/h (5 Bft) 98,21 %
30.10.2018 07:22 14,5 C 10,0 C 12,8 C 49 % 991,6 hPa 0,0 l/m 27,0 km/h (4 Bft) S-SO 148 2 min 0,000 mm 0,0 UV-I 72 W/m 3,9 C 7,5 C 38,6 km/h (5 Bft) 97,37 %
30.10.2018 07:24 14,6 C 10,0 C 12,8 C 48 % 991,7 hPa 0,0 l/m 29,8 km/h (5 Bft) SO 134 2 min 0,000 mm 0,0 UV-I 76 W/m 3,7 C 7,2 C 45,1 km/h (6 Bft) 97,87 %
30.10.2018 07:26 14,7 C 10,0 C 12,8 C 48 % 991,7 hPa 0,0 l/m 26,7 km/h (4 Bft) S-SO 167 2 min 0,000 mm 0,0 UV-I 80 W/m 3,8 C 7,9 C 51,5 km/h (7 Bft) 97,56 %
30.10.2018 07:28 14,8 C 10,0 C 13,3 C 48 % 991,6 hPa 0,0 l/m 30,4 km/h (5 Bft) S-SO 150 2 min 0,000 mm 0,0 UV-I 84 W/m 3,9 C 7,3 C 56,3 km/h (7 Bft) 96,61 %
30.10.2018 07:30 14,8 C 10,0 C 13,3 C 47 % 991,5 hPa 0,0 l/m 24,5 km/h (4 Bft) O-SO 117 2 min 0,000 mm 0,0 UV-I 88 W/m 3,6 C 8,4 C 41,8 km/h (6 Bft) 96,00 %
30.10.2018 07:32 14,8 C 10,0 C 13,3 C 47 % 991,5 hPa 0,0 l/m 25,3 km/h (4 Bft) S-SO 150 2 min 0,000 mm 0,0 UV-I 92 W/m 3,6 C 8,3 C 46,7 km/h (6 Bft) 95,45 %
30.10.2018 07:34 14,8 C 10,0 C 13,3 C 48 % 991,3 hPa 0,0 l/m 25,6 km/h (4 Bft) O-SO 119 2 min 0,000 mm 0,0 UV-I 96 W/m 3,9 C 8,2 C 45,1 km/h (6 Bft) 97,87 %
30.10.2018 07:36 14,9 C 10,0 C 13,3 C 47 % 991,2 hPa 0,0 l/m 31,6 km/h (5 Bft) S-SO 148 2 min 0,000 mm 0,0 UV-I 100 W/m 3,7 C 7,3 C 45,1 km/h (6 Bft) 97,87 %
30.10.2018 07:38 14,9 C 10,0 C 13,3 C 47 % 991,1 hPa 0,0 l/m 28,6 km/h (4 Bft) SO 139 2 min 0,000 mm 0,0 UV-I 105 W/m 3,7 C 7,8 C 37,0 km/h (5 Bft) 97,87 %
30.10.2018 07:40 15,0 C 10,0 C 13,3 C 46 % 991,3 hPa 0,0 l/m 31,7 km/h (5 Bft) SO 136 2 min 0,000 mm 0,0 UV-I 109 W/m 3,5 C 7,4 C 54,7 km/h (7 Bft) 97,87 %
30.10.2018 07:42 15,1 C 10,0 C 13,3 C 47 % 991,3 hPa 0,0 l/m 27,7 km/h (4 Bft) S-SO 160 2 min 0,000 mm 0,0 UV-I 113 W/m 3,9 C 8,2 C 40,2 km/h (6 Bft) 97,44 %
30.10.2018 07:45 15,1 C 10,0 C 13,3 C 46 % 991,3 hPa 0,0 l/m 30,6 km/h (5 Bft) SO 145 3 min 0,000 mm 0,0 UV-I 118 W/m 3,6 C 7,7 C 51,5 km/h (7 Bft) 96,20 %
30.10.2018 07:46 15,1 C 10,0 C 13,9 C 46 % 991,3 hPa 0,0 l/m 29,6 km/h (5 Bft) S 172 1 min 0,000 mm 0,0 UV-I 122 W/m 3,6 C 7,9 C 40,2 km/h (6 Bft) 100,00 %
30.10.2018 07:48 15,2 C 10,0 C 13,9 C 46 % 991,2 hPa 0,0 l/m 32,2 km/h (5 Bft) S-SW 194 2 min 0,000 mm 0,0 UV-I 125 W/m 3,7 C 7,6 C 53,1 km/h (7 Bft) 96,23 %
30.10.2018 07:50 15,2 C 10,0 C 13,9 C 46 % 991,1 hPa 0,0 l/m 35,2 km/h (5 Bft) S-SO 167 2 min 0,000 mm 0,0 UV-I 129 W/m 3,7 C 7,2 C 74,0 km/h (8 Bft) 100,00 %
30.10.2018 07:52 15,3 C 10,0 C 13,9 C 46 % 991,2 hPa 0,0 l/m 45,8 km/h (6 Bft) S 175 2 min 0,000 mm 0,0 UV-I 134 W/m 3,8 C 6,2 C 66,0 km/h (8 Bft) 97,37 %
30.10.2018 07:54 15,3 C 10,0 C 13,9 C 46 % 991,2 hPa 0,0 l/m 33,6 km/h (5 Bft) S-SO 161 2 min 0,000 mm 0,0 UV-I 137 W/m 3,8 C 7,6 C 51,5 km/h (7 Bft) 100,00 %
30.10.2018 07:56 15,3 C 10,0 C 13,9 C 46 % 991,3 hPa 0,0 l/m 37,8 km/h (5 Bft) S 177 2 min 0,000 mm 0,0 UV-I 143 W/m 3,8 C 7,0 C 70,8 km/h (8 Bft) 100,00 %
30.10.2018 07:58 15,3 C 10,0 C 13,9 C 46 % 991,3 hPa 0,0 l/m 28,0 km/h (4 Bft) S 175 2 min 0,000 mm 0,0 UV-I 147 W/m 3,8 C 8,4 C 53,1 km/h (7 Bft) 100,00 %
30.10.2018 08:00 15,3 C 10,0 C 14,4 C 46 % 991,5 hPa 0,0 l/m 29,5 km/h (5 Bft) S-SO 157 2 min 0,228 mm 0,0 UV-I 151 W/m 3,8 C 8,2 C 51,5 km/h (7 Bft) 98,00 %
30.10.2018 08:02 15,3 C 10,0 C 14,4 C 46 % 991,7 hPa 0,0 l/m 33,6 km/h (5 Bft) SO 145 2 min 0,000 mm 0,0 UV-I 155 W/m 3,8 C 7,6 C 57,9 km/h (7 Bft) 100,00 %
30.10.2018 08:04 15,3 C 10,0 C 14,4 C 46 % 992,1 hPa 0,0 l/m 27,1 km/h (4 Bft) S 187 2 min 0,000 mm 0,0 UV-I 160 W/m 3,8 C 8,6 C 53,1 km/h (7 Bft) 97,87 %
30.10.2018 08:06 15,3 C 10,0 C 14,4 C 46 % 992,4 hPa 0,0 l/m 20,3 km/h (4 Bft) S-SO 168 2 min 0,000 mm 0,0 UV-I 164 W/m 3,8 C 10,1 C 32,2 km/h (5 Bft) 100,00 %
30.10.2018 08:08 15,3 C 10,0 C 13,9 C 46 % 992,4 hPa 0,0 l/m 25,4 km/h (4 Bft) S 171 2 min 0,000 mm 0,0 UV-I 168 W/m 3,8 C 8,9 C 48,3 km/h (6 Bft) 100,00 %
30.10.2018 08:10 15,4 C 10,0 C 14,4 C 46 % 992,8 hPa 0,0 l/m 23,5 km/h (4 Bft) S 187 2 min 0,000 mm 0,0 UV-I 172 W/m 3,8 C 9,5 C 41,8 km/h (6 Bft) 100,00 %
30.10.2018 08:12 15,4 C 10,0 C 14,4 C 46 % 992,7 hPa 0,0 l/m 24,4 km/h (4 Bft) SW 219 2 min 0,000 mm 0,0 UV-I 176 W/m 3,8 C 9,3 C 38,6 km/h (5 Bft) 100,00 %
30.10.2018 08:14 15,4 C 10,0 C 14,4 C 46 % 992,8 hPa 0,0 l/m 18,0 km/h (3 Bft) S-SO 153 2 min 0,000 mm 0,0 UV-I 182 W/m 3,8 C 10,8 C 35,4 km/h (5 Bft) 97,87 %
30.10.2018 08:16 15,4 C 10,0 C 14,4 C 46 % 992,8 hPa 0,0 l/m 21,2 km/h (4 Bft) S 184 2 min 0,000 mm 0,0 UV-I 185 W/m 3,8 C 10,0 C 35,4 km/h (5 Bft) 97,87 %
30.10.2018 08:18 15,5 C 10,0 C 14,4 C 46 % 992,8 hPa 0,0 l/m 18,3 km/h (3 Bft) S-SO 162 2 min 0,000 mm 0,0 UV-I 189 W/m 3,9 C 10,8 C 30,6 km/h (5 Bft) 100,00 %
30.10.2018 08:20 15,5 C 10,0 C 14,4 C 46 % 992,7 hPa 0,0 l/m 19,6 km/h (3 Bft) S-SO 158 2 min 0,000 mm 0,0 UV-I 193 W/m 3,9 C 10,5 C 30,6 km/h (5 Bft) 97,87 %
30.10.2018 08:22 15,5 C 10,0 C 14,4 C 46 % 992,7 hPa 0,0 l/m 17,8 km/h (3 Bft) S-SO 159 2 min 0,000 mm 0,0 UV-I 197 W/m 3,9 C 11,0 C 27,4 km/h (4 Bft) 93,62 %
30.10.2018 08:24 15,6 C 10,0 C 14,4 C 45 % 992,7 hPa 0,0 l/m 19,9 km/h (4 Bft) S-SO 149 2 min 0,000 mm 0,0 UV-I 201 W/m 3,7 C 10,5 C 37,0 km/h (5 Bft) 100,00 %
30.10.2018 08:26 15,6 C 10,0 C 14,4 C 45 % 992,7 hPa 0,0 l/m 12,3 km/h (3 Bft) S-SW 197 2 min 0,000 mm 0,0 UV-I 205 W/m 3,7 C 12,8 C 27,4 km/h (4 Bft) 97,87 %
30.10.2018 08:28 15,7 C 10,0 C 14,4 C 44 % 992,9 hPa 0,0 l/m 22,2 km/h (4 Bft) S-SO 158 2 min 0,000 mm 0,0 UV-I 210 W/m 3,5 C 10,1 C 35,4 km/h (5 Bft) 95,74 %
30.10.2018 08:30 15,7 C 10,0 C 14,4 C 44 % 992,9 hPa 0,0 l/m 20,4 km/h (4 Bft) S 179 2 min 0,000 mm 0,0 UV-I 214 W/m 3,5 C 10,6 C 35,4 km/h (5 Bft) 91,49 %
30.10.2018 08:32 15,8 C 10,0 C 14,4 C 45 % 993,0 hPa 0,0 l/m 21,3 km/h (4 Bft) S 186 2 min 0,000 mm 0,0 UV-I 219 W/m 3,9 C 10,5 C 38,6 km/h (5 Bft) 97,14 %
30.10.2018 08:34 15,8 C 10,0 C 14,4 C 44 % 993,1 hPa 0,0 l/m 21,6 km/h (4 Bft) S 186 2 min 0,000 mm 0,0 UV-I 223 W/m 3,6 C 10,4 C 37,0 km/h (5 Bft) 98,39 %
30.10.2018 08:36 15,9 C 10,0 C 14,4 C 44 % 993,1 hPa 0,0 l/m 18,5 km/h (3 Bft) S-SO 149 2 min 0,000 mm 0,0 UV-I 228 W/m 3,7 C 11,3 C 27,4 km/h (4 Bft) 97,87 %
30.10.2018 08:38 15,9 C 10,0 C 14,4 C 43 % 993,3 hPa 0,0 l/m 18,4 km/h (3 Bft) S-SW 200 2 min 0,000 mm 0,0 UV-I 232 W/m 3,3 C 11,3 C 38,6 km/h (5 Bft) 97,87 %
30.10.2018 08:41 16,0 C 10,0 C 14,4 C 43 % 993,5 hPa 0,0 l/m 16,0 km/h (3 Bft) S 171 3 min 0,000 mm 0,0 UV-I 238 W/m 3,4 C 12,1 C 33,8 km/h (5 Bft) 95,95 %
30.10.2018 08:42 16,1 C 10,0 C 14,4 C 43 % 993,5 hPa 0,0 l/m 18,2 km/h (3 Bft) S 190 1 min 0,000 mm 0,0 UV-I 241 W/m 3,5 C 11,6 C 30,6 km/h (5 Bft) 100,00 %
30.10.2018 08:44 16,1 C 10,0 C 14,4 C 43 % 993,5 hPa 0,0 l/m 17,6 km/h (3 Bft) SW 232 2 min 0,000 mm 0,0 UV-I 246 W/m 3,5 C 11,8 C 33,8 km/h (5 Bft) 95,74 %
30.10.2018 08:46 16,1 C 10,0 C 14,4 C 43 % 993,6 hPa 0,0 l/m 13,4 km/h (3 Bft) S 173 2 min 0,000 mm 0,0 UV-I 249 W/m 3,5 C 13,0 C 24,1 km/h (4 Bft) 100,00 %
30.10.2018 08:48 16,2 C 10,0 C 15,0 C 43 % 993,7 hPa 0,0 l/m 18,3 km/h (3 Bft) S 190 2 min 0,000 mm 0,0 UV-I 251 W/m 3,6 C 11,7 C 32,2 km/h (5 Bft) 95,74 %
30.10.2018 08:50 16,2 C 10,0 C 15,0 C 43 % 993,7 hPa 0,0 l/m 16,9 km/h (3 Bft) S 173 2 min 0,000 mm 0,0 UV-I 256 W/m 3,6 C 12,1 C 25,7 km/h (4 Bft) 95,74 %
30.10.2018 08:52 16,3 C 10,0 C 15,0 C 43 % 993,7 hPa 0,0 l/m 16,1 km/h (3 Bft) S-SO 159 2 min 0,000 mm 0,0 UV-I 259 W/m 3,7 C 12,4 C 24,1 km/h (4 Bft) 93,75 %
30.10.2018 08:54 16,3 C 10,0 C 15,0 C 43 % 993,6 hPa 0,0 l/m 20,0 km/h (4 Bft) S-SO 159 2 min 0,000 mm 0,0 UV-I 264 W/m 3,7 C 11,4 C 32,2 km/h (5 Bft) 93,88 %
30.10.2018 08:56 16,3 C 10,0 C 15,0 C 44 % 993,8 hPa 0,0 l/m 22,6 km/h (4 Bft) SO 137 2 min 0,000 mm 0,0 UV-I 267 W/m 4,0 C 10,8 C 33,8 km/h (5 Bft) 95,83 %
30.10.2018 08:58 16,3 C 10,0 C 15,0 C 42 % 994,0 hPa 0,0 l/m 17,9 km/h (3 Bft) S-SO 153 2 min 0,000 mm 0,1 UV-I 271 W/m 3,4 C 11,9 C 24,1 km/h (4 Bft) 95,74 %
30.10.2018 09:00 16,4 C 10,0 C 15,0 C 42 % 994,0 hPa 0,0 l/m 11,8 km/h (2 Bft) S 184 2 min 0,254 mm 0,5 UV-I 275 W/m 3,5 C 14,0 C 17,7 km/h (3 Bft) 98,00 %
30.10.2018 09:02 16,4 C 10,0 C 15,0 C 42 % 994,0 hPa 0,0 l/m 14,3 km/h (3 Bft) S 169 2 min 0,000 mm 0,5 UV-I 279 W/m 3,5 C 13,1 C 20,9 km/h (4 Bft) 93,62 %
30.10.2018 09:04 16,5 C 10,0 C 15,6 C 44 % 993,9 hPa 0,0 l/m 13,0 km/h (3 Bft) S-SO 153 2 min 0,000 mm 0,5 UV-I 283 W/m 4,2 C 13,6 C 17,7 km/h (3 Bft) 97,37 %
30.10.2018 09:06 16,6 C 10,0 C 15,6 C 44 % 993,8 hPa 0,0 l/m 12,4 km/h (3 Bft) S 174 2 min 0,000 mm 0,5 UV-I 287 W/m 4,3 C 14,0 C 19,3 km/h (3 Bft) 98,21 %
30.10.2018 09:08 16,6 C 10,0 C 15,6 C 44 % 994,1 hPa 0,0 l/m 11,3 km/h (2 Bft) S 172 2 min 0,000 mm 0,5 UV-I 290 W/m 4,3 C 14,4 C 16,1 km/h (3 Bft) 94,00 %
30.10.2018 09:10 16,7 C 10,0 C 15,6 C 42 % 994,2 hPa 0,0 l/m 15,9 km/h (3 Bft) S 170 2 min 0,000 mm 0,5 UV-I 294 W/m 3,7 C 13,0 C 24,1 km/h (4 Bft) 97,87 %
30.10.2018 09:12 16,7 C 10,0 C 15,6 C 42 % 994,2 hPa 0,0 l/m 13,8 km/h (3 Bft) SO 146 2 min 0,000 mm 0,5 UV-I 298 W/m 3,7 C 13,6 C 20,9 km/h (4 Bft) 100,00 %
30.10.2018 09:14 16,8 C 10,0 C 15,6 C 43 % 994,3 hPa 0,0 l/m 12,6 km/h (3 Bft) S-SO 148 2 min 0,000 mm 0,5 UV-I 302 W/m 4,2 C 14,1 C 19,3 km/h (3 Bft) 97,87 %
30.10.2018 09:16 16,8 C 10,0 C 15,6 C 42 % 994,2 hPa 0,0 l/m 11,0 km/h (2 Bft) S-SO 162 2 min 0,000 mm 0,6 UV-I 306 W/m 3,8 C 14,7 C 17,7 km/h (3 Bft) 100,00 %
30.10.2018 09:18 16,9 C 10,0 C 15,6 C 43 % 994,3 hPa 0,0 l/m 11,3 km/h (2 Bft) S 179 2 min 0,000 mm 0,6 UV-I 309 W/m 4,2 C 14,7 C 17,7 km/h (3 Bft) 100,00 %
30.10.2018 09:20 17,1 C 10,0 C 15,6 C 43 % 994,4 hPa 0,0 l/m 6,0 km/h (2 Bft) S-SO 150 2 min 0,000 mm 0,6 UV-I 315 W/m 4,4 C 17,1 C 11,3 km/h (2 Bft) 97,87 %
30.10.2018 09:22 17,1 C 10,0 C 15,6 C 41 % 994,5 hPa 0,0 l/m 9,3 km/h (2 Bft) S 178 2 min 0,000 mm 0,6 UV-I 318 W/m 3,7 C 15,7 C 17,7 km/h (3 Bft) 100,00 %
30.10.2018 09:25 17,2 C 10,0 C 15,6 C 42 % 994,5 hPa 0,0 l/m 6,0 km/h (2 Bft) S-SW 205 3 min 0,000 mm 0,6 UV-I 326 W/m 4,2 C 17,2 C 11,3 km/h (2 Bft) 100,00 %
30.10.2018 09:26 17,3 C 10,0 C 15,6 C 41 % 994,6 hPa 0,0 l/m 8,3 km/h (2 Bft) SW 215 1 min 0,000 mm 0,6 UV-I 341 W/m 3,9 C 16,4 C 12,9 km/h (3 Bft) 100,00 %
30.10.2018 09:28 17,3 C 10,0 C 15,6 C 42 % 994,7 hPa 0,0 l/m 9,1 km/h (2 Bft) S 182 2 min 0,000 mm 0,6 UV-I 340 W/m 4,3 C 16,0 C 12,9 km/h (3 Bft) 97,87 %
30.10.2018 09:30 17,3 C 10,0 C 15,6 C 41 % 994,8 hPa 0,0 l/m 7,6 km/h (2 Bft) S 171 2 min 0,000 mm 0,6 UV-I 332 W/m 3,9 C 16,7 C 12,9 km/h (3 Bft) 100,00 %
30.10.2018 09:32 17,4 C 10,0 C 15,6 C 43 % 994,9 hPa 0,0 l/m 3,2 km/h (1 Bft) S 185 2 min 0,000 mm 0,6 UV-I 316 W/m 4,7 C 17,4 C 9,7 km/h (2 Bft) 100,00 %
30.10.2018 09:34 17,4 C 10,0 C 15,6 C 40 % 994,9 hPa 0,0 l/m 10,8 km/h (2 Bft) S 172 2 min 0,000 mm 0,6 UV-I 346 W/m 3,7 C 15,5 C 17,7 km/h (3 Bft) 95,74 %
30.10.2018 09:36 17,3 C 10,0 C 15,6 C 41 % 994,8 hPa 0,0 l/m 9,7 km/h (2 Bft) S-SO 159 2 min 0,000 mm 0,7 UV-I 356 W/m 3,9 C 15,8 C 16,1 km/h (3 Bft) 100,00 %
30.10.2018 09:38 17,3 C 10,0 C 15,6 C 40 % 994,9 hPa 0,0 l/m 9,6 km/h (2 Bft) S-SW 194 2 min 0,000 mm 0,7 UV-I 340 W/m 3,6 C 15,8 C 14,5 km/h (3 Bft) 97,87 %
30.10.2018 09:40 17,4 C 10,0 C 15,6 C 40 % 994,9 hPa 0,0 l/m 7,1 km/h (2 Bft) SO 124 2 min 0,000 mm 0,7 UV-I 333 W/m 3,7 C 17,1 C 12,9 km/h (3 Bft) 100,00 %
30.10.2018 09:42 17,5 C 10,0 C 15,6 C 41 % 994,9 hPa 0,0 l/m 10,9 km/h (2 Bft) SO 134 2 min 0,000 mm 0,7 UV-I 366 W/m 4,1 C 15,5 C 14,5 km/h (3 Bft) 100,00 %
30.10.2018 09:44 17,6 C 10,0 C 16,1 C 41 % 994,9 hPa 0,0 l/m 13,0 km/h (3 Bft) S-SO 167 2 min 0,000 mm 0,7 UV-I 367 W/m 4,2 C 14,9 C 20,9 km/h (4 Bft) 100,00 %
30.10.2018 09:46 17,7 C 10,0 C 16,1 C 38 % 995,0 hPa 0,0 l/m 11,5 km/h (2 Bft) S 173 2 min 0,000 mm 0,7 UV-I 366 W/m 3,2 C 15,6 C 20,9 km/h (4 Bft) 95,74 %
30.10.2018 09:48 17,8 C 10,0 C 16,7 C 39 % 994,9 hPa 0,0 l/m 9,9 km/h (2 Bft) S 170 2 min 0,000 mm 0,8 UV-I 365 W/m 3,7 C 16,2 C 17,7 km/h (3 Bft) 100,00 %
30.10.2018 09:50 17,8 C 10,0 C 17,2 C 40 % 994,9 hPa 0,0 l/m 9,9 km/h (2 Bft) S-SW 196 2 min 0,000 mm 0,8 UV-I 365 W/m 4,0 C 16,2 C 24,1 km/h (4 Bft) 100,00 %
30.10.2018 09:52 17,9 C 10,0 C 17,8 C 38 % 995,0 hPa 0,0 l/m 19,8 km/h (3 Bft) S-SW 211 2 min 0,000 mm 0,8 UV-I 367 W/m 3,4 C 13,5 C 33,8 km/h (5 Bft) 97,87 %
30.10.2018 09:54 17,9 C 10,0 C 18,3 C 38 % 994,9 hPa 0,0 l/m 24,7 km/h (4 Bft) S 187 2 min 0,000 mm 0,8 UV-I 371 W/m 3,4 C 12,6 C 38,6 km/h (5 Bft) 98,00 %
30.10.2018 09:56 17,9 C 10,0 C 18,3 C 38 % 995,0 hPa 0,0 l/m 21,7 km/h (4 Bft) S-SW 209 2 min 0,000 mm 0,8 UV-I 374 W/m 3,4 C 13,1 C 38,6 km/h (5 Bft) 100,00 %
30.10.2018 09:58 17,9 C 10,0 C 18,3 C 38 % 995,0 hPa 0,0 l/m 21,4 km/h (4 Bft) S 186 2 min 0,000 mm 0,8 UV-I 377 W/m 3,4 C 13,2 C 30,6 km/h (5 Bft) 100,00 %
30.10.2018 10:00 17,8 C 10,0 C 18,9 C 39 % 995,0 hPa 0,0 l/m 19,9 km/h (4 Bft) W 267 2 min 0,280 mm 0,8 UV-I 380 W/m 3,7 C 13,4 C 33,8 km/h (5 Bft) 100,00 %
30.10.2018 10:02 17,8 C 10,0 C 19,4 C 39 % 995,0 hPa 0,0 l/m 29,1 km/h (5 Bft) SW 216 2 min 0,000 mm 0,8 UV-I 382 W/m 3,7 C 11,8 C 43,5 km/h (6 Bft) 100,00 %
30.10.2018 10:04 17,7 C 10,0 C 20,0 C 39 % 995,1 hPa 0,0 l/m 23,5 km/h (4 Bft) S-SW 211 2 min 0,000 mm 0,8 UV-I 384 W/m 3,6 C 12,5 C 43,5 km/h (6 Bft) 95,74 %
30.10.2018 10:06 17,7 C 10,0 C 20,6 C 40 % 995,1 hPa 0,0 l/m 23,2 km/h (4 Bft) SW 233 2 min 0,000 mm 0,8 UV-I 386 W/m 3,9 C 12,6 C 38,6 km/h (5 Bft) 97,87 %
30.10.2018 10:08 17,6 C 10,0 C 21,1 C 41 % 995,1 hPa 0,0 l/m 16,7 km/h (3 Bft) SW 225 2 min 0,000 mm 0,8 UV-I 389 W/m 4,2 C 13,9 C 27,4 km/h (4 Bft) 97,87 %
30.10.2018 10:10 17,6 C 10,0 C 21,1 C 39 % 995,1 hPa 0,0 l/m 21,1 km/h (4 Bft) SW 215 2 min 0,000 mm 0,8 UV-I 390 W/m 3,5 C 12,9 C 33,8 km/h (5 Bft) 100,00 %
30.10.2018 10:12 17,7 C 10,0 C 22,2 C 39 % 995,2 hPa 0,0 l/m 19,1 km/h (3 Bft) S-SW 210 2 min 0,000 mm 0,9 UV-I 393 W/m 3,6 C 13,4 C 29,0 km/h (5 Bft) 100,00 %
30.10.2018 10:15 17,7 C 10,0 C 21,7 C 41 % 995,3 hPa 0,0 l/m 15,9 km/h (3 Bft) S-SW 208 3 min 0,000 mm 0,9 UV-I 396 W/m 4,3 C 14,2 C 35,4 km/h (5 Bft) 100,00 %
30.10.2018 10:16 17,7 C 10,0 C 21,1 C 39 % 995,3 hPa 0,0 l/m 17,4 km/h (3 Bft) S-SW 209 1 min 0,000 mm 0,9 UV-I 397 W/m 3,6 C 13,8 C 25,7 km/h (4 Bft) 89,29 %
30.10.2018 10:18 17,7 C 10,6 C 21,1 C 40 % 995,4 hPa 0,0 l/m 10,6 km/h (2 Bft) S-SW 204 2 min 0,000 mm 0,9 UV-I 399 W/m 3,9 C 15,9 C 19,3 km/h (3 Bft) 97,87 %
30.10.2018 10:20 17,7 C 10,0 C 20,6 C 40 % 995,6 hPa 0,0 l/m 9,9 km/h (2 Bft) S 175 2 min 0,000 mm 0,9 UV-I 402 W/m 3,9 C 16,1 C 14,5 km/h (3 Bft) 95,74 %
30.10.2018 10:22 17,8 C 10,0 C 20,6 C 40 % 995,6 hPa 0,0 l/m 10,7 km/h (2 Bft) S 173 2 min 0,000 mm 0,9 UV-I 404 W/m 4,0 C 15,9 C 17,7 km/h (3 Bft) 96,00 %
30.10.2018 10:24 17,8 C 10,0 C 20,6 C 40 % 995,7 hPa 0,0 l/m 7,8 km/h (2 Bft) S-SO 167 2 min 0,000 mm 0,9 UV-I 406 W/m 4,0 C 17,1 C 14,5 km/h (3 Bft) 95,12 %
30.10.2018 10:26 17,9 C 10,0 C 20,6 C 40 % 995,8 hPa 0,0 l/m 11,2 km/h (2 Bft) SO 130 2 min 0,000 mm 0,9 UV-I 408 W/m 4,1 C 15,9 C 16,1 km/h (3 Bft) 94,00 %
30.10.2018 10:28 18,1 C 10,0 C 21,1 C 41 % 995,8 hPa 0,0 l/m 10,0 km/h (2 Bft) SO 129 2 min 0,000 mm 0,9 UV-I 411 W/m 4,6 C 16,5 C 16,1 km/h (3 Bft) 93,62 %
30.10.2018 10:30 18,2 C 10,0 C 21,1 C 41 % 995,8 hPa 0,0 l/m 10,2 km/h (2 Bft) O-NO 71 2 min 0,000 mm 1,0 UV-I 415 W/m 4,7 C 16,6 C 16,1 km/h (3 Bft) 92,00 %
30.10.2018 10:32 18,3 C 10,0 C 21,7 C 41 % 995,9 hPa 0,0 l/m 13,5 km/h (3 Bft) O-SO 105 2 min 0,000 mm 1,0 UV-I 420 W/m 4,8 C 15,6 C 19,3 km/h (3 Bft) 93,62 %
30.10.2018 10:34 18,3 C 10,0 C 22,8 C 39 % 995,9 hPa 0,0 l/m 11,4 km/h (2 Bft) O 82 2 min 0,000 mm 1,0 UV-I 418 W/m 4,1 C 16,3 C 16,1 km/h (3 Bft) 95,74 %
30.10.2018 10:36 18,3 C 10,6 C 22,8 C 39 % 996,0 hPa 0,0 l/m 11,7 km/h (2 Bft) O-SO 104 2 min 0,000 mm 1,0 UV-I 424 W/m 4,1 C 16,2 C 16,1 km/h (3 Bft) 95,74 %
30.10.2018 10:38 18,4 C 10,0 C 23,3 C 40 % 996,1 hPa 0,0 l/m 11,4 km/h (2 Bft) SO 124 2 min 0,000 mm 1,0 UV-I 428 W/m 4,6 C 16,4 C 17,7 km/h (3 Bft) 93,62 %
30.10.2018 10:40 18,4 C 10,6 C 24,4 C 39 % 996,1 hPa 0,0 l/m 11,7 km/h (2 Bft) SO 134 2 min 0,000 mm 1,0 UV-I 432 W/m 4,2 C 16,3 C 17,7 km/h (3 Bft) 94,74 %
30.10.2018 10:42 18,4 C 10,0 C 23,3 C 38 % 996,1 hPa 0,0 l/m 11,1 km/h (2 Bft) SO 126 2 min 0,000 mm 1,0 UV-I 436 W/m 3,8 C 16,5 C 19,3 km/h (3 Bft) 97,87 %
30.10.2018 10:44 18,4 C 10,0 C 22,8 C 39 % 996,1 hPa 0,0 l/m 8,9 km/h (2 Bft) SO 146 2 min 0,000 mm 1,0 UV-I 435 W/m 4,2 C 17,3 C 16,1 km/h (3 Bft) 95,74 %
30.10.2018 10:46 18,4 C 10,0 C 22,8 C 39 % 996,0 hPa 0,0 l/m 12,5 km/h (3 Bft) S 175 2 min 0,000 mm 1,0 UV-I 433 W/m 4,2 C 16,0 C 16,1 km/h (3 Bft) 100,00 %
30.10.2018 10:48 18,4 C 10,0 C 23,3 C 39 % 996,2 hPa 0,0 l/m 11,3 km/h (2 Bft) SO 132 2 min 0,000 mm 1,1 UV-I 441 W/m 4,2 C 16,4 C 16,1 km/h (3 Bft) 100,00 %
30.10.2018 10:50 18,4 C 10,6 C 22,2 C 39 % 996,2 hPa 0,0 l/m 12,8 km/h (3 Bft) S-SW 198 2 min 0,000 mm 1,1 UV-I 437 W/m 4,2 C 15,9 C 16,1 km/h (3 Bft) 100,00 %
30.10.2018 10:52 18,4 C 10,6 C 21,7 C 38 % 996,1 hPa 0,0 l/m 8,5 km/h (2 Bft) S-SO 164 2 min 0,000 mm 1,1 UV-I 433 W/m 3,8 C 17,5 C 12,9 km/h (3 Bft) 100,00 %
30.10.2018 10:54 18,4 C 10,6 C 20,6 C 39 % 996,2 hPa 0,0 l/m 5,9 km/h (2 Bft) S 185 2 min 0,000 mm 1,1 UV-I 435 W/m 4,2 C 18,4 C 9,7 km/h (2 Bft) 100,00 %
30.10.2018 10:56 18,4 C 10,0 C 20,0 C 39 % 996,2 hPa 0,0 l/m 14,1 km/h (3 Bft) S-SO 165 2 min 0,000 mm 1,1 UV-I 437 W/m 4,2 C 15,6 C 24,1 km/h (4 Bft) 100,00 %
30.10.2018 10:58 18,4 C 10,0 C 19,4 C 39 % 996,3 hPa 0,0 l/m 12,5 km/h (3 Bft) S-SO 148 2 min 0,000 mm 1,1 UV-I 438 W/m 4,2 C 16,0 C 19,3 km/h (3 Bft) 97,87 %
30.10.2018 11:00 18,6 C 10,6 C 18,9 C 39 % 996,2 hPa 0,0 l/m 6,9 km/h (2 Bft) S-SW 192 2 min 0,330 mm 1,1 UV-I 440 W/m 4,4 C 18,4 C 12,9 km/h (3 Bft) 95,74 %
30.10.2018 11:02 18,7 C 10,6 C 18,9 C 39 % 996,3 hPa 0,0 l/m 13,2 km/h (3 Bft) S-SO 147 2 min 0,000 mm 1,1 UV-I 440 W/m 4,5 C 16,2 C 19,3 km/h (3 Bft) 100,00 %
30.10.2018 11:04 18,7 C 10,0 C 18,3 C 39 % 996,3 hPa 0,0 l/m 13,7 km/h (3 Bft) S 170 2 min 0,000 mm 1,1 UV-I 443 W/m 4,5 C 16,0 C 22,5 km/h (4 Bft) 100,00 %
30.10.2018 11:06 18,6 C 10,6 C 18,3 C 37 % 996,3 hPa 0,0 l/m 22,3 km/h (4 Bft) SO 135 2 min 0,000 mm 1,1 UV-I 444 W/m 3,6 C 14,0 C 30,6 km/h (5 Bft) 100,00 %
30.10.2018 11:08 18,4 C 10,6 C 17,8 C 38 % 996,2 hPa 0,0 l/m 20,0 km/h (4 Bft) S-SO 154 2 min 0,000 mm 1,1 UV-I 448 W/m 3,8 C 14,1 C 25,7 km/h (4 Bft) 98,00 %
30.10.2018 11:10 18,4 C 10,6 C 17,8 C 38 % 996,2 hPa 0,0 l/m 22,0 km/h (4 Bft) S-SO 160 2 min 0,000 mm 1,1 UV-I 446 W/m 3,8 C 13,7 C 32,2 km/h (5 Bft) 100,00 %
30.10.2018 11:12 18,4 C 10,6 C 17,8 C 38 % 996,2 hPa 0,0 l/m 21,4 km/h (4 Bft) S-SO 156 2 min 0,000 mm 1,1 UV-I 447 W/m 3,8 C 13,9 C 32,2 km/h (5 Bft) 100,00 %
30.10.2018 11:14 18,4 C 10,6 C 17,8 C 40 % 996,1 hPa 0,0 l/m 16,5 km/h (3 Bft) S-SO 165 2 min 0,000 mm 1,1 UV-I 450 W/m 4,6 C 14,9 C 25,7 km/h (4 Bft) 100,00 %
30.10.2018 11:16 18,4 C 10,6 C 17,8 C 39 % 996,2 hPa 0,0 l/m 18,4 km/h (3 Bft) S-SO 148 2 min 0,000 mm 1,1 UV-I 451 W/m 4,2 C 14,5 C 27,4 km/h (4 Bft) 100,00 %
30.10.2018 11:18 18,4 C 10,6 C 18,3 C 38 % 996,3 hPa 0,0 l/m 20,5 km/h (4 Bft) S-SO 157 2 min 0,000 mm 1,1 UV-I 433 W/m 3,8 C 14,0 C 32,2 km/h (5 Bft) 97,87 %
30.10.2018 11:20 18,4 C 10,6 C 18,3 C 40 % 996,3 hPa 0,0 l/m 15,9 km/h (3 Bft) S-SO 148 2 min 0,000 mm 1,1 UV-I 457 W/m 4,6 C 15,1 C 22,5 km/h (4 Bft) 100,00 %
30.10.2018 11:22 18,5 C 10,6 C 18,9 C 39 % 996,3 hPa 0,0 l/m 16,2 km/h (3 Bft) SO 133 2 min 0,000 mm 1,1 UV-I 456 W/m 4,3 C 15,1 C 24,1 km/h (4 Bft) 100,00 %
30.10.2018 11:25 18,6 C 10,6 C 18,9 C 39 % 996,3 hPa 0,0 l/m 15,4 km/h (3 Bft) S-SW 194 3 min 0,000 mm 1,1 UV-I 458 W/m 4,4 C 15,4 C 24,1 km/h (4 Bft) 100,00 %
30.10.2018 11:26 18,6 C 10,6 C 18,9 C 38 % 996,3 hPa 0,0 l/m 9,3 km/h (2 Bft) S-SW 194 1 min 0,000 mm 1,1 UV-I 459 W/m 4,0 C 17,4 C 16,1 km/h (3 Bft) 100,00 %
30.10.2018 11:28 18,7 C 10,6 C 18,9 C 39 % 996,4 hPa 0,0 l/m 10,4 km/h (2 Bft) S-SW 201 2 min 0,000 mm 1,1 UV-I 459 W/m 4,5 C 17,1 C 20,9 km/h (4 Bft) 96,00 %
30.10.2018 11:30 18,7 C 10,6 C 18,9 C 37 % 996,4 hPa 0,0 l/m 14,9 km/h (3 Bft) SO 144 2 min 0,000 mm 1,2 UV-I 461 W/m 3,7 C 15,7 C 22,5 km/h (4 Bft) 100,00 %
30.10.2018 11:32 18,8 C 10,6 C 18,9 C 37 % 996,4 hPa 0,0 l/m 13,1 km/h (3 Bft) S-SO 156 2 min 0,000 mm 1,2 UV-I 467 W/m 3,8 C 16,3 C 19,3 km/h (3 Bft) 95,74 %
30.10.2018 11:34 18,7 C 10,6 C 18,9 C 36 % 996,3 hPa 0,0 l/m 12,9 km/h (3 Bft) S 169 2 min 0,000 mm 1,2 UV-I 469 W/m 3,3 C 16,3 C 19,3 km/h (3 Bft) 100,00 %
30.10.2018 11:36 18,8 C 10,6 C 18,9 C 40 % 996,3 hPa 0,0 l/m 7,3 km/h (2 Bft) S 175 2 min 0,000 mm 1,2 UV-I 469 W/m 4,9 C 18,4 C 14,5 km/h (3 Bft) 97,87 %
30.10.2018 11:38 18,9 C 10,6 C 18,9 C 38 % 996,4 hPa 0,0 l/m 8,4 km/h (2 Bft) S 181 2 min 0,000 mm 1,2 UV-I 474 W/m 4,3 C 18,0 C 14,5 km/h (3 Bft) 97,87 %
30.10.2018 11:40 19,1 C 10,6 C 18,9 C 37 % 996,3 hPa 0,0 l/m 12,6 km/h (3 Bft) S 169 2 min 0,000 mm 1,2 UV-I 477 W/m 4,1 C 16,8 C 27,4 km/h (4 Bft) 100,00 %
30.10.2018 11:42 19,0 C 10,6 C 18,9 C 37 % 996,4 hPa 0,0 l/m 14,1 km/h (3 Bft) S 178 2 min 0,000 mm 1,2 UV-I 483 W/m 4,0 C 16,3 C 24,1 km/h (4 Bft) 100,00 %
30.10.2018 11:44 19,0 C 10,6 C 18,9 C 36 % 996,4 hPa 0,0 l/m 12,4 km/h (3 Bft) S 171 2 min 0,000 mm 1,2 UV-I 483 W/m 3,6 C 16,8 C 20,9 km/h (4 Bft) 97,87 %
30.10.2018 11:46 19,1 C 10,6 C 18,3 C 38 % 996,3 hPa 0,0 l/m 12,3 km/h (3 Bft) S-SO 147 2 min 0,000 mm 1,2 UV-I 496 W/m 4,4 C 16,9 C 16,1 km/h (3 Bft) 97,37 %
30.10.2018 11:48 19,1 C 10,6 C 18,3 C 38 % 996,4 hPa 0,0 l/m 18,7 km/h (3 Bft) O-SO 123 2 min 0,000 mm 1,2 UV-I 501 W/m 4,4 C 15,3 C 27,4 km/h (4 Bft) 97,87 %
30.10.2018 11:50 19,0 C 10,6 C 18,3 C 38 % 996,5 hPa 0,0 l/m 15,3 km/h (3 Bft) SO 140 2 min 0,000 mm 1,2 UV-I 505 W/m 4,4 C 16,0 C 22,5 km/h (4 Bft) 100,00 %
30.10.2018 11:52 19,1 C 10,6 C 18,3 C 38 % 996,6 hPa 0,0 l/m 17,7 km/h (3 Bft) S-SO 151 2 min 0,000 mm 1,2 UV-I 511 W/m 4,4 C 15,5 C 25,7 km/h (4 Bft) 98,00 %
30.10.2018 11:54 19,0 C 10,6 C 18,3 C 38 % 996,5 hPa 0,0 l/m 19,0 km/h (3 Bft) SO 144 2 min 0,000 mm 1,2 UV-I 500 W/m 4,4 C 15,1 C 24,1 km/h (4 Bft) 97,87 %
30.10.2018 11:56 19,0 C 10,6 C 18,3 C 37 % 996,6 hPa 0,0 l/m 15,7 km/h (3 Bft) S 180 2 min 0,000 mm 1,2 UV-I 496 W/m 4,0 C 15,9 C 25,7 km/h (4 Bft) 95,74 %
30.10.2018 11:58 19,1 C 10,6 C 18,3 C 38 % 996,7 hPa 0,0 l/m 12,9 km/h (3 Bft) SO 140 2 min 0,000 mm 1,2 UV-I 493 W/m 4,4 C 16,7 C 22,5 km/h (4 Bft) 98,00 %
30.10.2018 12:00 19,1 C 10,6 C 18,3 C 38 % 996,6 hPa 0,0 l/m 12,6 km/h (3 Bft) S-SW 205 2 min 0,381 mm 1,2 UV-I 490 W/m 4,4 C 16,8 C 19,3 km/h (3 Bft) 95,74 %
30.10.2018 12:02 19,1 C 10,6 C 18,3 C 37 % 996,7 hPa 0,0 l/m 23,4 km/h (4 Bft) S 178 2 min 0,000 mm 1,2 UV-I 489 W/m 4,1 C 14,4 C 38,6 km/h (5 Bft) 95,74 %
30.10.2018 12:04 18,9 C 10,6 C 17,8 C 36 % 996,6 hPa 0,0 l/m 17,5 km/h (3 Bft) S-SO 167 2 min 0,000 mm 1,2 UV-I 485 W/m 3,5 C 15,3 C 27,4 km/h (4 Bft) 95,74 %
30.10.2018 12:06 18,8 C 10,6 C 17,8 C 36 % 996,7 hPa 0,0 l/m 17,7 km/h (3 Bft) S-SO 166 2 min 0,000 mm 1,2 UV-I 480 W/m 3,4 C 15,1 C 27,4 km/h (4 Bft) 94,00 %
30.10.2018 12:08 18,8 C 10,6 C 17,8 C 36 % 996,7 hPa 0,0 l/m 17,2 km/h (3 Bft) S 173 2 min 0,000 mm 1,2 UV-I 478 W/m 3,4 C 15,3 C 24,1 km/h (4 Bft) 94,44 %
30.10.2018 12:10 18,8 C 10,6 C 17,8 C 38 % 996,7 hPa 0,0 l/m 16,7 km/h (3 Bft) SO 136 2 min 0,000 mm 1,2 UV-I 470 W/m 4,2 C 15,4 C 27,4 km/h (4 Bft) 94,00 %
30.10.2018 12:12 18,8 C 10,6 C 17,8 C 37 % 996,7 hPa 0,0 l/m 17,1 km/h (3 Bft) S-SO 151 2 min 0,000 mm 1,2 UV-I 468 W/m 3,8 C 15,3 C 30,6 km/h (5 Bft) 97,87 %
30.10.2018 12:14 18,7 C 10,6 C 17,8 C 37 % 996,9 hPa 0,0 l/m 17,5 km/h (3 Bft) SO 129 2 min 0,000 mm 1,1 UV-I 463 W/m 3,7 C 15,1 C 32,2 km/h (5 Bft) 97,87 %
30.10.2018 12:16 18,7 C 10,6 C 17,8 C 37 % 996,9 hPa 0,0 l/m 14,5 km/h (3 Bft) S-SO 158 2 min 0,000 mm 1,1 UV-I 459 W/m 3,7 C 15,8 C 24,1 km/h (4 Bft) 98,00 %
30.10.2018 12:18 18,7 C 10,6 C 17,8 C 36 % 996,9 hPa 0,0 l/m 20,6 km/h (4 Bft) S 182 2 min 0,000 mm 1,1 UV-I 455 W/m 3,3 C 14,4 C 33,8 km/h (5 Bft) 97,87 %
30.10.2018 12:20 18,7 C 10,6 C 17,8 C 36 % 996,9 hPa 0,0 l/m 19,5 km/h (3 Bft) S 188 2 min 0,000 mm 1,1 UV-I 454 W/m 3,3 C 14,6 C 46,7 km/h (6 Bft) 97,87 %
30.10.2018 12:22 18,7 C 10,6 C 17,8 C 37 % 996,8 hPa 0,0 l/m 19,8 km/h (3 Bft) S 171 2 min 0,000 mm 1,1 UV-I 454 W/m 3,7 C 14,6 C 32,2 km/h (5 Bft) 95,74 %
30.10.2018 12:24 18,7 C 10,6 C 17,8 C 37 % 996,9 hPa 0,0 l/m 22,5 km/h (4 Bft) S 182 2 min 0,000 mm 1,1 UV-I 454 W/m 3,7 C 14,0 C 37,0 km/h (5 Bft) 95,74 %
30.10.2018 12:26 18,7 C 10,6 C 17,8 C 36 % 996,7 hPa 0,0 l/m 22,3 km/h (4 Bft) SO 124 2 min 0,000 mm 1,1 UV-I 454 W/m 3,3 C 14,1 C 35,4 km/h (5 Bft) 93,62 %
30.10.2018 12:28 18,7 C 10,6 C 17,8 C 39 % 996,7 hPa 0,0 l/m 19,4 km/h (3 Bft) S-SO 147 2 min 0,000 mm 1,1 UV-I 448 W/m 4,5 C 14,6 C 29,0 km/h (5 Bft) 97,87 %
30.10.2018 12:30 18,8 C 10,6 C 17,8 C 38 % 996,7 hPa 0,0 l/m 16,1 km/h (3 Bft) S-SO 148 2 min 0,000 mm 1,1 UV-I 445 W/m 4,2 C 15,5 C 27,4 km/h (4 Bft) 97,73 %
30.10.2018 12:32 18,8 C 10,6 C 17,8 C 38 % 996,7 hPa 0,0 l/m 16,9 km/h (3 Bft) S 179 2 min 0,000 mm 1,1 UV-I 441 W/m 4,2 C 15,3 C 24,1 km/h (4 Bft) 97,87 %
30.10.2018 12:34 18,8 C 10,6 C 17,8 C 37 % 996,7 hPa 0,0 l/m 23,9 km/h (4 Bft) SO 132 2 min 0,000 mm 1,1 UV-I 439 W/m 3,8 C 13,9 C 33,8 km/h (5 Bft) 95,74 %
30.10.2018 12:36 18,7 C 10,6 C 17,8 C 36 % 996,8 hPa 0,0 l/m 22,4 km/h (4 Bft) SO 144 2 min 0,000 mm 1,1 UV-I 436 W/m 3,3 C 14,1 C 33,8 km/h (5 Bft) 100,00 %
30.10.2018 12:38 18,7 C 10,6 C 17,8 C 37 % 996,9 hPa 0,0 l/m 18,0 km/h (3 Bft) S-SO 167 2 min 0,000 mm 1,1 UV-I 435 W/m 3,7 C 15,0 C 25,7 km/h (4 Bft) 100,00 %
30.10.2018 12:40 18,7 C 10,6 C 17,8 C 37 % 997,0 hPa 0,0 l/m 17,7 km/h (3 Bft) S-SO 160 2 min 0,000 mm 1,1 UV-I 432 W/m 3,7 C 15,0 C 33,8 km/h (5 Bft) 96,77 %
30.10.2018 12:42 18,6 C 10,6 C 17,2 C 38 % 996,9 hPa 0,0 l/m 14,2 km/h (3 Bft) S 170 2 min 0,000 mm 1,1 UV-I 430 W/m 4,0 C 15,8 C 29,0 km/h (5 Bft) 100,00 %
30.10.2018 12:44 18,7 C 10,6 C 17,8 C 38 % 997,0 hPa 0,0 l/m 13,2 km/h (3 Bft) S-SW 193 2 min 0,000 mm 1,1 UV-I 427 W/m 4,1 C 16,2 C 27,4 km/h (4 Bft) 100,00 %
30.10.2018 12:46 18,7 C 10,6 C 17,8 C 38 % 997,0 hPa 0,0 l/m 11,1 km/h (2 Bft) S-SO 152 2 min 0,000 mm 1,1 UV-I 425 W/m 4,1 C 16,8 C 24,1 km/h (4 Bft) 100,00 %
30.10.2018 12:48 18,8 C 10,6 C 17,8 C 38 % 996,9 hPa 0,0 l/m 13,0 km/h (3 Bft) SO 138 2 min 0,000 mm 1,0 UV-I 424 W/m 4,2 C 16,3 C 24,1 km/h (4 Bft) 100,00 %
30.10.2018 12:50 18,8 C 10,6 C 17,8 C 37 % 997,1 hPa 0,0 l/m 17,7 km/h (3 Bft) S-SO 148 2 min 0,000 mm 1,0 UV-I 422 W/m 3,8 C 15,1 C 27,4 km/h (4 Bft) 100,00 %
30.10.2018 12:52 18,8 C 10,6 C 17,8 C 37 % 997,1 hPa 0,0 l/m 11,7 km/h (2 Bft) S 169 2 min 0,000 mm 1,0 UV-I 418 W/m 3,8 C 16,7 C 20,9 km/h (4 Bft) 95,74 %
30.10.2018 12:54 18,8 C 10,6 C 17,8 C 38 % 997,2 hPa 0,0 l/m 10,1 km/h (2 Bft) S 174 2 min 0,000 mm 1,0 UV-I 417 W/m 4,2 C 17,3 C 17,7 km/h (3 Bft) 95,74 %
30.10.2018 12:56 18,8 C 10,6 C 17,2 C 37 % 997,2 hPa 0,0 l/m 16,6 km/h (3 Bft) SO 134 2 min 0,000 mm 1,0 UV-I 415 W/m 3,8 C 15,4 C 24,1 km/h (4 Bft) 96,00 %
30.10.2018 12:58 18,8 C 10,6 C 17,2 C 38 % 997,2 hPa 0,0 l/m 17,3 km/h (3 Bft) SO 129 2 min 0,000 mm 1,0 UV-I 413 W/m 4,2 C 15,2 C 22,5 km/h (4 Bft) 98,00 %
30.10.2018 13:00 18,8 C 10,6 C 17,2 C 39 % 997,2 hPa 0,0 l/m 10,0 km/h (2 Bft) SO 128 2 min 0,406 mm 1,0 UV-I 411 W/m 4,6 C 17,3 C 16,1 km/h (3 Bft) 97,87 %
30.10.2018 13:02 18,8 C 10,6 C 17,2 C 40 % 997,3 hPa 0,0 l/m 7,5 km/h (2 Bft) SO 128 2 min 0,000 mm 1,0 UV-I 410 W/m 4,9 C 18,3 C 16,1 km/h (3 Bft) 97,37 %
30.10.2018 13:04 18,9 C 10,6 C 17,2 C 39 % 997,2 hPa 0,0 l/m 12,0 km/h (2 Bft) SO 142 2 min 0,000 mm 1,0 UV-I 407 W/m 4,6 C 16,8 C 20,9 km/h (4 Bft) 97,87 %
30.10.2018 13:06 18,8 C 10,6 C 17,2 C 38 % 997,2 hPa 0,0 l/m 20,9 km/h (4 Bft) S-SO 162 2 min 0,000 mm 1,0 UV-I 404 W/m 4,2 C 14,5 C 30,6 km/h (5 Bft) 97,87 %
30.10.2018 13:08 18,7 C 10,6 C 17,2 C 37 % 997,1 hPa 0,0 l/m 13,5 km/h (3 Bft) S-SO 151 2 min 0,000 mm 1,0 UV-I 403 W/m 3,7 C 16,1 C 22,5 km/h (4 Bft) 93,62 %
30.10.2018 13:10 18,7 C 10,6 C 17,2 C 40 % 997,2 hPa 0,0 l/m 10,5 km/h (2 Bft) S-SO 155 2 min 0,000 mm 1,0 UV-I 400 W/m 4,8 C 17,0 C 16,1 km/h (3 Bft) 96,23 %
30.10.2018 13:12 18,7 C 10,6 C 17,2 C 38 % 997,2 hPa 0,0 l/m 18,9 km/h (3 Bft) SO 133 2 min 0,000 mm 0,9 UV-I 397 W/m 4,1 C 14,8 C 25,7 km/h (4 Bft) 97,87 %
30.10.2018 13:14 18,6 C 10,6 C 17,2 C 38 % 997,1 hPa 0,0 l/m 17,3 km/h (3 Bft) SO 135 2 min 0,000 mm 0,9 UV-I 396 W/m 4,0 C 15,0 C 29,0 km/h (5 Bft) 98,00 %
30.10.2018 13:16 18,5 C 10,6 C 17,2 C 40 % 997,1 hPa 0,0 l/m 15,1 km/h (3 Bft) S-SO 165 2 min 0,000 mm 0,9 UV-I 393 W/m 4,6 C 15,4 C 20,9 km/h (4 Bft) 97,37 %
30.10.2018 13:18 18,5 C 10,6 C 17,2 C 41 % 997,2 hPa 0,0 l/m 13,4 km/h (3 Bft) S-SO 159 2 min 0,000 mm 0,9 UV-I 391 W/m 5,0 C 15,9 C 22,5 km/h (4 Bft) 93,75 %
30.10.2018 13:20 18,6 C 10,6 C 17,8 C 40 % 997,3 hPa 0,0 l/m 16,3 km/h (3 Bft) SO 136 2 min 0,000 mm 0,9 UV-I 388 W/m 4,7 C 15,2 C 30,6 km/h (5 Bft) 91,49 %
30.10.2018 13:22 18,5 C 10,6 C 17,8 C 39 % 997,3 hPa 0,0 l/m 21,6 km/h (4 Bft) S-SO 157 2 min 0,000 mm 0,9 UV-I 386 W/m 4,3 C 14,0 C 32,2 km/h (5 Bft) 95,74 %
30.10.2018 13:24 18,4 C 10,6 C 17,2 C 39 % 997,3 hPa 0,0 l/m 20,8 km/h (4 Bft) O 101 2 min 0,000 mm 0,9 UV-I 384 W/m 4,2 C 14,0 C 30,6 km/h (5 Bft) 91,49 %
30.10.2018 13:26 18,4 C 10,6 C 17,2 C 38 % 997,3 hPa 0,0 l/m 20,6 km/h (4 Bft) S-SO 157 2 min 0,000 mm 0,9 UV-I 381 W/m 3,8 C 14,0 C 30,6 km/h (5 Bft) 95,74 %
30.10.2018 13:28 18,3 C 10,6 C 17,2 C 40 % 997,2 hPa 0,0 l/m 18,4 km/h (3 Bft) SO 131 2 min 0,000 mm 0,9 UV-I 379 W/m 4,5 C 14,4 C 27,4 km/h (4 Bft) 93,62 %
30.10.2018 13:30 18,3 C 10,6 C 17,2 C 40 % 997,2 hPa 0,0 l/m 17,7 km/h (3 Bft) SO 134 2 min 0,000 mm 0,8 UV-I 377 W/m 4,5 C 14,5 C 30,6 km/h (5 Bft) 94,00 %
30.10.2018 13:32 18,3 C 10,6 C 17,2 C 41 % 997,2 hPa 0,0 l/m 18,8 km/h (3 Bft) S-SO 153 2 min 0,000 mm 0,8 UV-I 375 W/m 4,8 C 14,3 C 27,4 km/h (4 Bft) 95,74 %
30.10.2018 13:34 18,3 C 10,6 C 17,8 C 39 % 997,2 hPa 0,0 l/m 21,1 km/h (4 Bft) SO 145 2 min 0,000 mm 0,8 UV-I 371 W/m 4,1 C 13,8 C 37,0 km/h (5 Bft) 96,00 %
30.10.2018 13:36 18,3 C 10,6 C 17,8 C 40 % 997,3 hPa 0,0 l/m 14,6 km/h (3 Bft) S-SO 159 2 min 0,000 mm 0,8 UV-I 352 W/m 4,5 C 15,3 C 29,0 km/h (5 Bft) 93,62 %
30.10.2018 13:38 18,3 C 10,6 C 17,8 C 41 % 997,3 hPa 0,0 l/m 15,1 km/h (3 Bft) SO 134 2 min 0,000 mm 0,8 UV-I 332 W/m 4,8 C 15,2 C 24,1 km/h (4 Bft) 95,74 %
30.10.2018 13:40 18,3 C 10,6 C 17,2 C 40 % 997,3 hPa 0,0 l/m 18,9 km/h (3 Bft) S-SO 149 2 min 0,000 mm 0,7 UV-I 309 W/m 4,5 C 14,2 C 27,4 km/h (4 Bft) 95,74 %
30.10.2018 13:42 18,2 C 10,6 C 17,2 C 40 % 997,3 hPa 0,0 l/m 18,6 km/h (3 Bft) O-SO 115 2 min 0,000 mm 0,7 UV-I 319 W/m 4,4 C 14,2 C 27,4 km/h (4 Bft) 94,74 %
30.10.2018 13:44 18,2 C 10,6 C 17,2 C 41 % 997,4 hPa 0,0 l/m 14,8 km/h (3 Bft) SO 140 2 min 0,000 mm 0,7 UV-I 281 W/m 4,7 C 15,1 C 20,9 km/h (4 Bft) 93,62 %
30.10.2018 13:46 18,1 C 10,6 C 17,2 C 41 % 997,4 hPa 0,0 l/m 15,3 km/h (3 Bft) O-SO 122 2 min 0,000 mm 0,7 UV-I 263 W/m 4,6 C 14,9 C 27,4 km/h (4 Bft) 98,00 %
30.10.2018 13:48 18,1 C 10,6 C 17,2 C 39 % 997,4 hPa 0,0 l/m 21,0 km/h (4 Bft) S-SO 166 2 min 0,000 mm 0,6 UV-I 254 W/m 3,9 C 13,5 C 32,2 km/h (5 Bft) 97,87 %
30.10.2018 13:50 17,9 C 10,6 C 17,2 C 40 % 997,5 hPa 0,0 l/m 16,7 km/h (3 Bft) SO 125 2 min 0,000 mm 0,6 UV-I 265 W/m 4,1 C 14,3 C 22,5 km/h (4 Bft) 95,74 %
30.10.2018 13:52 17,9 C 10,6 C 17,2 C 42 % 997,5 hPa 0,0 l/m 12,9 km/h (3 Bft) O-SO 113 2 min 0,000 mm 0,6 UV-I 270 W/m 4,8 C 15,3 C 24,1 km/h (4 Bft) 97,87 %
30.10.2018 13:54 17,9 C 10,6 C 17,2 C 41 % 997,5 hPa 0,0 l/m 18,3 km/h (3 Bft) S-SO 155 2 min 0,000 mm 0,6 UV-I 266 W/m 4,5 C 13,9 C 27,4 km/h (4 Bft) 93,62 %
30.10.2018 13:56 17,8 C 10,6 C 17,2 C 40 % 997,5 hPa 0,0 l/m 20,6 km/h (4 Bft) S-SO 156 2 min 0,000 mm 0,6 UV-I 232 W/m 4,0 C 13,2 C 30,6 km/h (5 Bft) 95,83 %
30.10.2018 13:58 17,7 C 10,6 C 17,2 C 40 % 997,6 hPa 0,0 l/m 21,1 km/h (4 Bft) SO 145 0 min 0,000 mm 0,5 UV-I 199 W/m 3,9 C 13,0 C 29,0 km/h (5 Bft) 95,92 %
30.10.2018 14:00 17,7 C 10,6 C 16,7 C 41 % 997,5 hPa 0,0 l/m 17,5 km/h (3 Bft) O-SO 120 0 min 0,331 mm 0,5 UV-I 180 W/m 4,3 C 13,8 C 25,7 km/h (4 Bft) 95,83 %
30.10.2018 14:02 17,6 C 10,6 C 17,2 C 41 % 997,5 hPa 0,0 l/m 17,2 km/h (3 Bft) S-SO 147 2 min 0,000 mm 0,5 UV-I 208 W/m 4,2 C 13,8 C 25,7 km/h (4 Bft) 95,74 %
30.10.2018 14:04 17,6 C 10,6 C 17,2 C 41 % 997,6 hPa 0,0 l/m 12,8 km/h (3 Bft) S-SO 148 2 min 0,000 mm 0,5 UV-I 203 W/m 4,2 C 15,0 C 20,9 km/h (4 Bft) 93,62 %
30.10.2018 14:06 17,6 C 10,6 C 17,2 C 42 % 997,6 hPa 0,0 l/m 16,0 km/h (3 Bft) SO 130 0 min 0,000 mm 0,5 UV-I 187 W/m 4,5 C 14,1 C 22,5 km/h (4 Bft) 95,74 %
30.10.2018 14:08 17,4 C 10,6 C 16,7 C 42 % 997,7 hPa 0,0 l/m 13,0 km/h (3 Bft) SO 146 0 min 0,000 mm 0,5 UV-I 159 W/m 4,4 C 14,7 C 22,5 km/h (4 Bft) 95,74 %
30.10.2018 14:10 17,4 C 10,6 C 16,7 C 41 % 997,6 hPa 0,0 l/m 12,6 km/h (3 Bft) SO 135 0 min 0,000 mm 0,3 UV-I 126 W/m 4,0 C 14,8 C 24,1 km/h (4 Bft) 89,36 %
30.10.2018 14:12 17,3 C 10,6 C 16,1 C 41 % 997,7 hPa 0,0 l/m 15,6 km/h (3 Bft) O-SO 113 0 min 0,000 mm 0,0 UV-I 111 W/m 3,9 C 13,8 C 22,5 km/h (4 Bft) 94,74 %
30.10.2018 14:14 17,2 C 10,6 C 16,1 C 42 % 997,6 hPa 0,0 l/m 12,6 km/h (3 Bft) SO 134 0 min 0,000 mm 0,0 UV-I 103 W/m 4,2 C 14,6 C 17,7 km/h (3 Bft) 91,49 %
30.10.2018 14:16 17,1 C 10,6 C 16,1 C 42 % 997,6 hPa 0,0 l/m 12,0 km/h (2 Bft) SO 146 0 min 0,000 mm 0,0 UV-I 97 W/m 4,1 C 14,7 C 17,7 km/h (3 Bft) 95,74 %
30.10.2018 14:18 17,1 C 10,6 C 15,6 C 42 % 997,7 hPa 0,0 l/m 12,8 km/h (3 Bft) O-SO 120 0 min 0,000 mm 0,0 UV-I 91 W/m 4,1 C 14,4 C 19,3 km/h (3 Bft) 95,74 %
30.10.2018 14:20 17,0 C 10,6 C 15,6 C 43 % 997,7 hPa 0,0 l/m 8,4 km/h (2 Bft) O-SO 114 0 min 0,000 mm 0,0 UV-I 86 W/m 4,3 C 16,0 C 12,9 km/h (3 Bft) 93,62 %
30.10.2018 14:22 16,9 C 10,6 C 15,6 C 42 % 997,9 hPa 0,0 l/m 3,6 km/h (1 Bft) S-SO 161 0 min 0,000 mm 0,0 UV-I 82 W/m 3,9 C 16,9 C 6,4 km/h (2 Bft) 93,62 %
30.10.2018 14:24 16,8 C 10,6 C 15,6 C 43 % 997,9 hPa 0,0 l/m 5,5 km/h (1 Bft) O-SO 123 0 min 0,000 mm 0,0 UV-I 77 W/m 4,2 C 16,8 C 8,0 km/h (2 Bft) 95,74 %
30.10.2018 14:26 16,8 C 10,6 C 15,6 C 43 % 997,9 hPa 0,0 l/m 5,1 km/h (1 Bft) SO 135 0 min 0,000 mm 0,0 UV-I 74 W/m 4,2 C 16,8 C 11,3 km/h (2 Bft) 93,62 %
30.10.2018 14:28 16,7 C 10,6 C 15,0 C 43 % 998,0 hPa 0,0 l/m 2,6 km/h (1 Bft) S-SO 163 0 min 0,000 mm 0,0 UV-I 71 W/m 4,1 C 16,7 C 6,4 km/h (2 Bft) 95,74 %
30.10.2018 14:30 16,7 C 10,6 C 15,0 C 43 % 998,0 hPa 0,0 l/m 6,2 km/h (2 Bft) SO 124 0 min 0,000 mm 0,0 UV-I 69 W/m 4,1 C 16,7 C 9,7 km/h (2 Bft) 100,00 %
30.10.2018 14:32 16,6 C 10,6 C 15,0 C 42 % 998,1 hPa 0,0 l/m 9,1 km/h (2 Bft) O 90 0 min 0,000 mm 0,0 UV-I 67 W/m 3,6 C 15,3 C 12,9 km/h (3 Bft) 97,87 %
30.10.2018 14:34 16,6 C 10,6 C 15,0 C 43 % 998,1 hPa 0,0 l/m 9,1 km/h (2 Bft) O-SO 108 0 min 0,000 mm 0,0 UV-I 69 W/m 4,0 C 15,3 C 14,5 km/h (3 Bft) 97,22 %
30.10.2018 14:36 16,6 C 10,6 C 15,0 C 43 % 998,1 hPa 0,0 l/m 7,6 km/h (2 Bft) O-SO 121 0 min 0,000 mm 0,0 UV-I 72 W/m 4,0 C 16,0 C 12,9 km/h (3 Bft) 100,00 %
30.10.2018 14:38 16,6 C 10,6 C 14,4 C 44 % 998,2 hPa 0,0 l/m 9,2 km/h (2 Bft) SO 126 0 min 0,000 mm 0,0 UV-I 75 W/m 4,3 C 15,2 C 12,9 km/h (3 Bft) 100,00 %
30.10.2018 14:40 16,5 C 10,6 C 14,4 C 44 % 998,2 hPa 0,0 l/m 10,4 km/h (2 Bft) O-SO 115 0 min 0,000 mm 0,0 UV-I 76 W/m 4,2 C 14,6 C 14,5 km/h (3 Bft) 100,00 %
30.10.2018 14:42 16,5 C 10,6 C 14,4 C 44 % 998,3 hPa 0,0 l/m 8,1 km/h (2 Bft) SO 126 0 min 0,000 mm 0,0 UV-I 76 W/m 4,2 C 15,6 C 12,9 km/h (3 Bft) 97,87 %
30.10.2018 14:44 16,4 C 10,6 C 14,4 C 45 % 998,4 hPa 0,0 l/m 6,3 km/h (2 Bft) SO 146 0 min 0,000 mm 0,0 UV-I 76 W/m 4,4 C 16,4 C 8,0 km/h (2 Bft) 100,00 %
30.10.2018 14:46 16,4 C 10,6 C 15,0 C 44 % 998,4 hPa 0,0 l/m 6,8 km/h (2 Bft) SO 133 0 min 0,000 mm 0,0 UV-I 76 W/m 4,1 C 16,2 C 11,3 km/h (2 Bft) 94,29 %
30.10.2018 14:48 16,4 C 10,6 C 15,0 C 44 % 998,4 hPa 0,0 l/m 5,2 km/h (1 Bft) SO 135 0 min 0,000 mm 0,0 UV-I 76 W/m 4,1 C 16,4 C 8,0 km/h (2 Bft) 98,00 %
30.10.2018 14:50 16,4 C 10,6 C 15,0 C 45 % 998,5 hPa 0,0 l/m 4,5 km/h (1 Bft) SO 136 0 min 0,000 mm 0,0 UV-I 77 W/m 4,4 C 16,4 C 6,4 km/h (2 Bft) 97,87 %
30.10.2018 14:52 16,3 C 10,6 C 15,0 C 46 % 998,6 hPa 0,0 l/m 4,1 km/h (1 Bft) S-SO 156 0 min 0,000 mm 0,0 UV-I 77 W/m 4,7 C 16,3 C 6,4 km/h (2 Bft) 95,74 %
30.10.2018 14:54 16,2 C 10,6 C 15,0 C 45 % 998,6 hPa 0,0 l/m 6,7 km/h (2 Bft) S-SO 163 0 min 0,000 mm 0,0 UV-I 77 W/m 4,3 C 16,1 C 8,0 km/h (2 Bft) 98,00 %
30.10.2018 14:56 16,2 C 10,6 C 15,0 C 48 % 998,7 hPa 0,0 l/m 5,6 km/h (1 Bft) S-SO 160 0 min 0,000 mm 0,0 UV-I 78 W/m 5,2 C 16,2 C 9,7 km/h (2 Bft) 97,37 %
30.10.2018 14:58 16,1 C 10,6 C 15,0 C 49 % 998,7 hPa 0,0 l/m 3,5 km/h (1 Bft) S-SO 159 0 min 0,000 mm 0,0 UV-I 79 W/m 5,4 C 16,1 C 6,4 km/h (2 Bft) 98,00 %
30.10.2018 15:00 16,0 C 10,6 C 15,0 C 48 % 998,7 hPa 0,0 l/m 6,8 km/h (2 Bft) SO 132 0 min 0,127 mm 0,0 UV-I 81 W/m 5,0 C 15,8 C 9,7 km/h (2 Bft) 96,00 %
30.10.2018 15:02 16,0 C 10,6 C 15,0 C 49 % 998,8 hPa 0,0 l/m 7,5 km/h (2 Bft) SO 126 0 min 0,000 mm 0,0 UV-I 79 W/m 5,3 C 15,4 C 11,3 km/h (2 Bft) 93,62 %
30.10.2018 15:04 15,9 C 10,6 C 15,0 C 49 % 998,8 hPa 0,0 l/m 6,1 km/h (2 Bft) SO 134 0 min 0,000 mm 0,0 UV-I 76 W/m 5,2 C 15,9 C 11,3 km/h (2 Bft) 98,00 %
30.10.2018 15:06 15,9 C 10,6 C 15,0 C 50 % 998,9 hPa 0,0 l/m 7,0 km/h (2 Bft) S-SO 166 0 min 0,000 mm 0,0 UV-I 71 W/m 5,5 C 15,6 C 17,7 km/h (3 Bft) 98,00 %
30.10.2018 15:08 16,1 C 10,6 C 15,0 C 46 % 999,0 hPa 0,0 l/m 8,5 km/h (2 Bft) S-SO 159 0 min 0,000 mm 0,0 UV-I 65 W/m 4,5 C 15,0 C 14,5 km/h (3 Bft) 95,74 %
30.10.2018 15:10 16,2 C 10,6 C 15,0 C 45 % 999,0 hPa 0,0 l/m 8,0 km/h (2 Bft) S-SO 159 0 min 0,000 mm 0,0 UV-I 59 W/m 4,3 C 15,4 C 12,9 km/h (3 Bft) 100,00 %
30.10.2018 15:12 16,2 C 10,6 C 15,0 C 45 % 999,2 hPa 0,0 l/m 9,8 km/h (2 Bft) S-SO 164 0 min 0,000 mm 0,0 UV-I 54 W/m 4,3 C 14,5 C 12,9 km/h (3 Bft) 100,00 %
30.10.2018 15:14 16,2 C 10,6 C 15,0 C 46 % 999,3 hPa 0,0 l/m 5,5 km/h (1 Bft) S 175 0 min 0,000 mm 0,0 UV-I 50 W/m 4,6 C 16,2 C 9,7 km/h (2 Bft) 97,87 %
30.10.2018 15:16 16,2 C 10,6 C 14,4 C 46 % 999,3 hPa 0,0 l/m 4,5 km/h (1 Bft) W-SW 238 0 min 0,000 mm 0,0 UV-I 47 W/m 4,6 C 16,2 C 6,4 km/h (2 Bft) 97,87 %
30.10.2018 15:18 16,2 C 10,6 C 14,4 C 48 % 999,5 hPa 0,0 l/m 6,6 km/h (2 Bft) W-SW 254 0 min 0,000 mm 0,0 UV-I 45 W/m 5,2 C 16,1 C 9,7 km/h (2 Bft) 97,44 %
30.10.2018 15:20 15,8 C 10,6 C 14,4 C 52 % 999,7 hPa 0,0 l/m 9,6 km/h (2 Bft) W-NW 294 0 min 0,000 mm 0,0 UV-I 43 W/m 6,0 C 14,2 C 17,7 km/h (3 Bft) 100,00 %
30.10.2018 15:22 15,1 C 10,6 C 13,3 C 55 % 999,8 hPa 0,0 l/m 13,7 km/h (3 Bft) W-NW 284 0 min 0,000 mm 0,0 UV-I 41 W/m 6,1 C 11,8 C 17,7 km/h (3 Bft) 100,00 %
30.10.2018 15:24 14,3 C 10,6 C 13,3 C 59 % 999,9 hPa 0,0 l/m 11,5 km/h (2 Bft) NW 312 0 min 0,000 mm 0,0 UV-I 38 W/m 6,4 C 11,7 C 20,9 km/h (4 Bft) 100,00 %
30.10.2018 15:26 13,7 C 10,6 C 12,8 C 61 % 1000,0 hPa 0,0 l/m 7,7 km/h (2 Bft) N-NW 333 0 min 0,000 mm 0,0 UV-I 35 W/m 6,3 C 12,9 C 16,1 km/h (3 Bft) 97,87 %
30.10.2018 15:28 13,2 C 10,6 C 12,2 C 63 % 1000,0 hPa 0,0 l/m 13,1 km/h (3 Bft) NW 310 0 min 0,000 mm 0,0 UV-I 34 W/m 6,3 C 9,7 C 25,7 km/h (4 Bft) 100,00 %
30.10.2018 15:30 12,8 C 10,6 C 12,2 C 64 % 1000,2 hPa 0,0 l/m 14,2 km/h (3 Bft) W-SW 237 0 min 0,000 mm 0,0 UV-I 33 W/m 6,2 C 8,8 C 22,5 km/h (4 Bft) 100,00 %
30.10.2018 15:32 12,4 C 10,6 C 11,7 C 66 % 1000,4 hPa 0,0 l/m 13,7 km/h (3 Bft) W 265 0 min 0,000 mm 0,0 UV-I 33 W/m 6,2 C 8,6 C 24,1 km/h (4 Bft) 96,00 %
30.10.2018 15:34 12,2 C 10,6 C 11,7 C 66 % 1000,4 hPa 0,0 l/m 19,5 km/h (3 Bft) W-NW 294 0 min 0,000 mm 0,0 UV-I 35 W/m 6,0 C 6,3 C 32,2 km/h (5 Bft) 100,00 %
30.10.2018 15:36 12,0 C 10,6 C 11,7 C 67 % 1000,5 hPa 0,0 l/m 13,9 km/h (3 Bft) W 265 0 min 0,000 mm 0,0 UV-I 37 W/m 6,1 C 8,0 C 29,0 km/h (5 Bft) 100,00 %
30.10.2018 15:38 11,9 C 10,6 C 11,7 C 68 % 1000,6 hPa 0,0 l/m 14,3 km/h (3 Bft) W 278 0 min 0,000 mm 0,0 UV-I 39 W/m 6,2 C 7,7 C 24,1 km/h (4 Bft) 97,87 %
30.10.2018 15:40 11,8 C 10,6 C 11,7 C 68 % 1000,7 hPa 0,0 l/m 13,8 km/h (3 Bft) W 260 0 min 0,000 mm 0,0 UV-I 39 W/m 6,1 C 7,8 C 22,5 km/h (4 Bft) 100,00 %
30.10.2018 15:42 11,7 C 10,6 C 11,7 C 69 % 1000,8 hPa 0,0 l/m 14,2 km/h (3 Bft) W-SW 247 0 min 0,000 mm 0,0 UV-I 40 W/m 6,2 C 7,5 C 24,1 km/h (4 Bft) 100,00 %
30.10.2018 15:44 11,7 C 10,6 C 11,7 C 69 % 1000,9 hPa 0,0 l/m 17,6 km/h (3 Bft) W-NW 283 0 min 0,000 mm 0,0 UV-I 41 W/m 6,2 C 6,2 C 25,7 km/h (4 Bft) 100,00 %
30.10.2018 15:46 11,6 C 10,6 C 11,7 C 69 % 1001,0 hPa 0,0 l/m 15,4 km/h (3 Bft) W 274 0 min 0,000 mm 0,0 UV-I 42 W/m 6,1 C 6,9 C 22,5 km/h (4 Bft) 97,22 %
30.10.2018 15:48 11,5 C 10,6 C 11,1 C 68 % 1001,1 hPa 0,0 l/m 16,8 km/h (3 Bft) W-NW 294 0 min 0,000 mm 0,0 UV-I 44 W/m 5,8 C 6,3 C 27,4 km/h (4 Bft) 100,00 %
30.10.2018 15:50 11,4 C 10,6 C 11,1 C 68 % 1001,1 hPa 0,0 l/m 18,4 km/h (3 Bft) W 262 0 min 0,000 mm 0,0 UV-I 46 W/m 5,7 C 5,6 C 25,7 km/h (4 Bft) 95,74 %
30.10.2018 15:52 11,3 C 10,6 C 11,1 C 68 % 1001,3 hPa 0,0 l/m 16,9 km/h (3 Bft) NW 309 0 min 0,000 mm 0,0 UV-I 46 W/m 5,6 C 6,0 C 29,0 km/h (5 Bft) 98,00 %
30.10.2018 15:54 11,2 C 10,6 C 11,1 C 68 % 1001,4 hPa 0,0 l/m 16,0 km/h (3 Bft) W-NW 283 0 min 0,000 mm 0,0 UV-I 44 W/m 5,5 C 6,2 C 32,2 km/h (5 Bft) 96,00 %
30.10.2018 15:56 11,2 C 10,6 C 11,1 C 69 % 1001,5 hPa 0,0 l/m 15,5 km/h (3 Bft) W-NW 293 0 min 0,000 mm 0,0 UV-I 41 W/m 5,7 C 6,4 C 22,5 km/h (4 Bft) 97,87 %
30.10.2018 15:58 11,1 C 10,6 C 10,6 C 69 % 1001,6 hPa 0,0 l/m 13,5 km/h (3 Bft) W-SW 248 0 min 0,000 mm 0,0 UV-I 38 W/m 5,6 C 7,1 C 20,9 km/h (4 Bft) 97,87 %
30.10.2018 16:00 11,0 C 10,6 C 10,6 C 69 % 1001,7 hPa 0,0 l/m 16,0 km/h (3 Bft) W 269 0 min 0,076 mm 0,0 UV-I 35 W/m 5,5 C 6,0 C 25,7 km/h (4 Bft) 98,00 %
30.10.2018 16:02 10,9 C 10,6 C 10,6 C 69 % 1001,8 hPa 0,0 l/m 13,2 km/h (3 Bft) W 261 0 min 0,000 mm 0,0 UV-I 32 W/m 5,4 C 7,0 C 20,9 km/h (4 Bft) 97,14 %
30.10.2018 16:04 10,9 C 10,6 C 10,6 C 68 % 1001,8 hPa 0,0 l/m 15,1 km/h (3 Bft) W 265 0 min 0,000 mm 0,0 UV-I 29 W/m 5,2 C 6,2 C 19,3 km/h (3 Bft) 98,00 %
30.10.2018 16:06 10,8 C 10,6 C 10,6 C 69 % 1001,9 hPa 0,0 l/m 12,1 km/h (2 Bft) W 268 0 min 0,000 mm 0,0 UV-I 28 W/m 5,3 C 7,4 C 17,7 km/h (3 Bft) 97,87 %
30.10.2018 16:08 10,8 C 10,6 C 10,6 C 69 % 1002,1 hPa 0,0 l/m 12,4 km/h (3 Bft) W-NW 283 0 min 0,000 mm 0,0 UV-I 29 W/m 5,3 C 7,2 C 17,7 km/h (3 Bft) 97,87 %
30.10.2018 16:10 10,8 C 10,6 C 10,6 C 68 % 1002,1 hPa 0,0 l/m 11,8 km/h (2 Bft) W 263 0 min 0,000 mm 0,0 UV-I 31 W/m 5,1 C 7,5 C 17,7 km/h (3 Bft) 95,74 %
30.10.2018 16:12 10,7 C 10,6 C 10,0 C 68 % 1002,2 hPa 0,0 l/m 15,0 km/h (3 Bft) W 277 0 min 0,000 mm 0,0 UV-I 32 W/m 5,0 C 6,0 C 22,5 km/h (4 Bft) 95,74 %
30.10.2018 16:14 10,6 C 10,6 C 10,0 C 69 % 1002,3 hPa 0,0 l/m 14,5 km/h (3 Bft) W 265 0 min 0,000 mm 0,0 UV-I 32 W/m 5,2 C 6,1 C 27,4 km/h (4 Bft) 94,00 %
30.10.2018 16:16 10,6 C 10,6 C 10,0 C 68 % 1002,4 hPa 0,0 l/m 14,2 km/h (3 Bft) W 273 0 min 0,000 mm 0,0 UV-I 29 W/m 4,9 C 6,2 C 27,4 km/h (4 Bft) 93,62 %
30.10.2018 16:19 10,5 C 10,6 C 10,0 C 68 % 1002,5 hPa 0,0 l/m 16,1 km/h (3 Bft) W-SW 246 0 min 0,000 mm 0,0 UV-I 26 W/m 4,8 C 5,3 C 25,7 km/h (4 Bft) 94,81 %
30.10.2018 16:20 10,5 C 10,6 C 10,0 C 68 % 1002,5 hPa 0,0 l/m 13,4 km/h (3 Bft) W 274 0 min 0,000 mm 0,0 UV-I 24 W/m 4,8 C 6,4 C 17,7 km/h (3 Bft) 90,91 %
30.10.2018 16:22 10,4 C 10,6 C 10,0 C 68 % 1002,6 hPa 0,0 l/m 15,4 km/h (3 Bft) W 275 0 min 0,000 mm 0,0 UV-I 19 W/m 4,8 C 5,5 C 24,1 km/h (4 Bft) 94,00 %
30.10.2018 16:24 10,4 C 10,6 C 10,0 C 69 % 1002,7 hPa 0,0 l/m 11,2 km/h (2 Bft) W 262 0 min 0,000 mm 0,0 UV-I 16 W/m 5,0 C 7,4 C 17,7 km/h (3 Bft) 96,00 %
30.10.2018 16:26 10,4 C 10,6 C 10,0 C 68 % 1002,9 hPa 0,0 l/m 16,8 km/h (3 Bft) W 272 0 min 0,000 mm 0,0 UV-I 14 W/m 4,8 C 4,9 C 27,4 km/h (4 Bft) 93,62 %
30.10.2018 16:28 10,3 C 10,6 C 10,0 C 69 % 1003,2 hPa 0,0 l/m 12,8 km/h (3 Bft) SW 225 0 min 0,000 mm 0,0 UV-I 12 W/m 4,9 C 6,5 C 22,5 km/h (4 Bft) 98,00 %
30.10.2018 16:30 10,3 C 10,6 C 10,0 C 69 % 1003,1 hPa 0,0 l/m 17,9 km/h (3 Bft) W-NW 285 0 min 0,000 mm 0,0 UV-I 12 W/m 4,9 C 4,4 C 30,6 km/h (5 Bft) 93,62 %
30.10.2018 16:32 10,3 C 10,6 C 9,4 C 69 % 1003,2 hPa 0,0 l/m 23,9 km/h (4 Bft) W 263 0 min 0,000 mm 0,0 UV-I 11 W/m 4,9 C 2,5 C 29,0 km/h (5 Bft) 97,92 %
30.10.2018 16:34 10,3 C 10,6 C 9,4 C 69 % 1003,3 hPa 0,0 l/m 16,8 km/h (3 Bft) W-NW 282 0 min 0,000 mm 0,0 UV-I 11 W/m 4,9 C 4,8 C 25,7 km/h (4 Bft) 97,87 %
30.10.2018 16:36 10,2 C 10,6 C 9,4 C 69 % 1003,4 hPa 0,0 l/m 14,8 km/h (3 Bft) W 259 2 min 0,000 mm 0,0 UV-I 12 W/m 4,8 C 5,5 C 25,7 km/h (4 Bft) 100,00 %
30.10.2018 16:38 10,2 C 10,6 C 9,4 C 69 % 1003,4 hPa 0,0 l/m 21,2 km/h (4 Bft) W-SW 257 0 min 0,000 mm 0,0 UV-I 16 W/m 4,8 C 3,2 C 27,4 km/h (4 Bft) 100,00 %
30.10.2018 16:40 10,2 C 10,6 C 9,4 C 69 % 1003,5 hPa 0,0 l/m 18,5 km/h (3 Bft) W 265 0 min 0,000 mm 0,0 UV-I 15 W/m 4,8 C 4,0 C 30,6 km/h (5 Bft) 100,00 %
30.10.2018 16:42 10,1 C 10,6 C 9,4 C 68 % 1003,6 hPa 0,0 l/m 21,7 km/h (4 Bft) W 277 0 min 0,000 mm 0,0 UV-I 13 W/m 4,5 C 2,9 C 30,6 km/h (5 Bft) 100,00 %
30.10.2018 16:44 10,1 C 10,6 C 9,4 C 69 % 1003,7 hPa 0,0 l/m 15,4 km/h (3 Bft) W-SW 257 0 min 0,000 mm 0,0 UV-I 11 W/m 4,7 C 5,1 C 25,7 km/h (4 Bft) 100,00 %
30.10.2018 16:46 10,1 C 10,6 C 9,4 C 69 % 1003,8 hPa 0,0 l/m 17,1 km/h (3 Bft) W 269 0 min 0,000 mm 0,0 UV-I 9 W/m 4,7 C 4,4 C 22,5 km/h (4 Bft) 100,00 %
30.10.2018 16:48 9,9 C 10,6 C 9,4 C 69 % 1003,8 hPa 0,0 l/m 19,7 km/h (3 Bft) W-SW 249 0 min 0,000 mm 0,0 UV-I 8 W/m 4,5 C 3,3 C 27,4 km/h (4 Bft) 100,00 %
30.10.2018 16:50 9,9 C 10,6 C 9,4 C 69 % 1004,0 hPa 0,0 l/m 18,3 km/h (3 Bft) W-SW 256 0 min 0,000 mm 0,0 UV-I 7 W/m 4,5 C 3,7 C 24,1 km/h (4 Bft) 100,00 %
30.10.2018 16:52 9,9 C 10,6 C 9,4 C 69 % 1004,0 hPa 0,0 l/m 22,1 km/h (4 Bft) W 273 0 min 0,000 mm 0,0 UV-I 7 W/m 4,5 C 2,5 C 27,4 km/h (4 Bft) 100,00 %
30.10.2018 16:54 9,9 C 10,6 C 9,4 C 69 % 1004,1 hPa 0,0 l/m 16,9 km/h (3 Bft) W 279 0 min 0,000 mm 0,0 UV-I 6 W/m 4,5 C 4,3 C 25,7 km/h (4 Bft) 97,87 %
30.10.2018 16:56 9,8 C 10,6 C 9,4 C 69 % 1004,1 hPa 0,0 l/m 24,0 km/h (4 Bft) W 267 0 min 0,000 mm 0,0 UV-I 5 W/m 4,4 C 1,8 C 35,4 km/h (5 Bft) 97,87 %
30.10.2018 16:58 9,8 C 10,6 C 9,4 C 69 % 1004,3 hPa 0,0 l/m 20,2 km/h (4 Bft) W 261 0 min 0,000 mm 0,0 UV-I 5 W/m 4,4 C 3,0 C 29,0 km/h (5 Bft) 98,00 %
30.10.2018 17:00 9,8 C 10,6 C 8,9 C 69 % 1004,4 hPa 0,0 l/m 17,1 km/h (3 Bft) W 263 0 min 0,051 mm 0,0 UV-I 5 W/m 4,4 C 4,1 C 22,5 km/h (4 Bft) 100,00 %
30.10.2018 17:02 9,8 C 10,6 C 8,9 C 70 % 1004,6 hPa 0,0 l/m 17,4 km/h (3 Bft) W 264 0 min 0,000 mm 0,0 UV-I 0 W/m 4,6 C 3,9 C 25,7 km/h (4 Bft) 100,00 %
30.10.2018 17:04 9,7 C 10,6 C 8,9 C 70 % 1004,7 hPa 0,0 l/m 21,0 km/h (4 Bft) W-SW 258 0 min 0,000 mm 0,0 UV-I 0 W/m 4,5 C 2,6 C 22,5 km/h (4 Bft) 100,00 %
30.10.2018 17:06 9,7 C 10,6 C 8,9 C 70 % 1004,8 hPa 0,0 l/m 19,5 km/h (3 Bft) W 281 0 min 0,000 mm 0,0 UV-I 0 W/m 4,5 C 3,1 C 27,4 km/h (4 Bft) 100,00 %
30.10.2018 17:08 9,7 C 10,6 C 8,9 C 70 % 1004,8 hPa 0,0 l/m 21,5 km/h (4 Bft) W-SW 254 0 min 0,000 mm 0,0 UV-I 0 W/m 4,5 C 2,4 C 30,6 km/h (5 Bft) 100,00 %
30.10.2018 17:10 9,7 C 10,6 C 8,9 C 70 % 1004,9 hPa 0,0 l/m 23,4 km/h (4 Bft) W 276 0 min 0,000 mm 0,0 UV-I 0 W/m 4,5 C 1,9 C 35,4 km/h (5 Bft) 100,00 %
30.10.2018 17:12 9,7 C 10,6 C 8,9 C 70 % 1005,1 hPa 0,0 l/m 22,3 km/h (4 Bft) W 265 0 min 0,000 mm 0,0 UV-I 0 W/m 4,5 C 2,2 C 29,0 km/h (5 Bft) 100,00 %
30.10.2018 17:14 9,6 C 10,6 C 8,9 C 70 % 1005,2 hPa 0,0 l/m 18,1 km/h (3 Bft) W-SW 258 0 min 0,000 mm 0,0 UV-I 0 W/m 4,4 C 3,4 C 32,2 km/h (5 Bft) 100,00 %
30.10.2018 17:16 9,6 C 10,6 C 8,9 C 70 % 1005,3 hPa 0,0 l/m 20,9 km/h (4 Bft) SW 232 0 min 0,000 mm 0,0 UV-I 0 W/m 4,4 C 2,5 C 32,2 km/h (5 Bft) 100,00 %
30.10.2018 17:18 9,5 C 10,6 C 8,3 C 71 % 1005,4 hPa 0,0 l/m 17,8 km/h (3 Bft) W-SW 257 0 min 0,000 mm 0,0 UV-I 0 W/m 4,5 C 3,4 C 20,9 km/h (4 Bft) 100,00 %
30.10.2018 17:20 9,4 C 10,6 C 8,3 C 71 % 1005,5 hPa 0,0 l/m 20,9 km/h (4 Bft) W-SW 244 0 min 0,000 mm 0,0 UV-I 0 W/m 4,4 C 2,2 C 30,6 km/h (5 Bft) 100,00 %
30.10.2018 17:22 9,4 C 10,6 C 8,3 C 70 % 1005,6 hPa 0,0 l/m 20,7 km/h (4 Bft) W 277 0 min 0,000 mm 0,0 UV-I 0 W/m 4,2 C 2,3 C 27,4 km/h (4 Bft) 97,87 %
30.10.2018 17:24 9,4 C 10,6 C 8,3 C 70 % 1005,7 hPa 0,0 l/m 21,7 km/h (4 Bft) W-SW 251 0 min 0,000 mm 0,0 UV-I 0 W/m 4,2 C 2,0 C 24,1 km/h (4 Bft) 97,87 %
30.10.2018 17:26 9,3 C 10,6 C 8,3 C 70 % 1005,9 hPa 0,0 l/m 22,5 km/h (4 Bft) W-SW 251 0 min 0,000 mm 0,0 UV-I 0 W/m 4,1 C 1,6 C 22,5 km/h (4 Bft) 93,62 %
30.10.2018 17:28 9,3 C 10,6 C 8,3 C 70 % 1006,0 hPa 0,0 l/m 22,5 km/h (4 Bft) W-SW 251 0 min 0,000 mm 0,0 UV-I 0 W/m 4,1 C 1,6 C 22,5 km/h (4 Bft) 97,87 %
30.10.2018 17:30 9,3 C 10,6 C 8,3 C 69 % 1006,2 hPa 0,0 l/m 22,5 km/h (4 Bft) W-SW 251 0 min 0,000 mm 0,0 UV-I 0 W/m 3,9 C 1,6 C 22,5 km/h (4 Bft) 95,74 %
30.10.2018 17:32 9,2 C 10,6 C 8,3 C 69 % 1006,3 hPa 0,0 l/m 19,5 km/h (3 Bft) W-NW 298 0 min 0,000 mm 0,0 UV-I 0 W/m 3,8 C 2,4 C 22,5 km/h (4 Bft) 95,74 %
30.10.2018 17:34 9,2 C 10,6 C 8,3 C 69 % 1006,4 hPa 0,0 l/m 20,9 km/h (4 Bft) W-NW 298 0 min 0,000 mm 0,0 UV-I 0 W/m 3,8 C 2,0 C 20,9 km/h (4 Bft) 95,74 %
30.10.2018 17:36 9,1 C 10,6 C 8,3 C 69 % 1006,6 hPa 0,0 l/m 19,7 km/h (3 Bft) W-SW 246 0 min 0,000 mm 0,0 UV-I 0 W/m 3,7 C 2,2 C 20,9 km/h (4 Bft) 95,74 %
30.10.2018 17:38 9,1 C 10,6 C 8,3 C 68 % 1006,7 hPa 0,0 l/m 22,2 km/h (4 Bft) W-NW 288 0 min 0,000 mm 0,0 UV-I 0 W/m 3,5 C 1,4 C 30,6 km/h (5 Bft) 93,62 %
30.10.2018 17:40 9,1 C 10,6 C 8,3 C 68 % 1006,8 hPa 0,0 l/m 12,5 km/h (3 Bft) W 278 0 min 0,000 mm 0,0 UV-I 0 W/m 3,5 C 5,2 C 19,3 km/h (3 Bft) 95,74 %
30.10.2018 17:42 9,0 C 10,6 C 7,8 C 69 % 1006,9 hPa 0,0 l/m 9,7 km/h (2 Bft) W 262 0 min 0,000 mm 0,0 UV-I 0 W/m 3,6 C 6,7 C 16,1 km/h (3 Bft) 95,74 %
30.10.2018 17:44 8,9 C 10,6 C 8,3 C 68 % 1007,1 hPa 0,0 l/m 19,2 km/h (3 Bft) W 271 0 min 0,000 mm 0,0 UV-I 0 W/m 3,3 C 2,1 C 25,7 km/h (4 Bft) 93,62 %
30.10.2018 17:46 8,9 C 10,6 C 8,3 C 68 % 1007,0 hPa 0,0 l/m 15,6 km/h (3 Bft) W-SW 247 0 min 0,000 mm 0,0 UV-I 0 W/m 3,3 C 3,5 C 25,7 km/h (4 Bft) 95,74 %
30.10.2018 17:48 8,9 C 10,6 C 8,3 C 67 % 1007,1 hPa 0,0 l/m 15,9 km/h (3 Bft) W 259 0 min 0,000 mm 0,0 UV-I 0 W/m 3,1 C 3,4 C 25,7 km/h (4 Bft) 95,83 %
30.10.2018 17:50 8,9 C 10,6 C 7,8 C 67 % 1007,2 hPa 0,0 l/m 17,2 km/h (3 Bft) W 265 0 min 0,000 mm 0,0 UV-I 0 W/m 3,1 C 2,9 C 27,4 km/h (4 Bft) 94,74 %
30.10.2018 17:52 8,8 C 10,6 C 8,3 C 67 % 1007,3 hPa 0,0 l/m 17,8 km/h (3 Bft) W 271 0 min 0,000 mm 0,0 UV-I 0 W/m 3,0 C 2,5 C 29,0 km/h (5 Bft) 95,74 %
30.10.2018 17:54 8,8 C 10,6 C 7,8 C 67 % 1007,4 hPa 0,0 l/m 16,0 km/h (3 Bft) W 263 0 min 0,000 mm 0,0 UV-I 0 W/m 3,0 C 3,3 C 20,9 km/h (4 Bft) 93,62 %
30.10.2018 17:56 8,8 C 10,6 C 7,8 C 67 % 1007,5 hPa 0,0 l/m 16,7 km/h (3 Bft) W 279 0 min 0,000 mm 0,0 UV-I 0 W/m 3,0 C 3,0 C 22,5 km/h (4 Bft) 92,00 %
30.10.2018 17:58 8,8 C 10,6 C 7,8 C 67 % 1007,6 hPa 0,0 l/m 12,0 km/h (2 Bft) W-NW 285 0 min 0,000 mm 0,0 UV-I 0 W/m 3,0 C 5,1 C 22,5 km/h (4 Bft) 96,00 %
30.10.2018 18:00 8,7 C 10,6 C 7,8 C 67 % 1007,7 hPa 0,0 l/m 19,6 km/h (3 Bft) W-NW 286 0 min 0,050 mm 0,0 UV-I 0 W/m 2,9 C 1,7 C 27,4 km/h (4 Bft) 94,74 %
30.10.2018 18:02 8,7 C 10,6 C 7,8 C 67 % 1007,7 hPa 0,0 l/m 15,8 km/h (3 Bft) W 267 0 min 0,000 mm 0,0 UV-I 0 W/m 2,9 C 3,2 C 32,2 km/h (5 Bft) 95,74 %
30.10.2018 18:04 8,7 C 10,6 C 7,8 C 67 % 1007,8 hPa 0,0 l/m 12,1 km/h (2 Bft) W 265 0 min 0,000 mm 0,0 UV-I 0 W/m 2,9 C 5,0 C 17,7 km/h (3 Bft) 95,74 %
30.10.2018 18:06 8,7 C 10,6 C 7,8 C 67 % 1008,0 hPa 0,0 l/m 16,1 km/h (3 Bft) W-NW 285 0 min 0,000 mm 0,0 UV-I 0 W/m 2,9 C 3,1 C 25,7 km/h (4 Bft) 95,74 %
30.10.2018 18:08 8,6 C 10,6 C 7,2 C 67 % 1008,0 hPa 0,0 l/m 13,8 km/h (3 Bft) W 270 0 min 0,000 mm 0,0 UV-I 0 W/m 2,8 C 4,0 C 25,7 km/h (4 Bft) 96,00 %
30.10.2018 18:10 8,6 C 10,6 C 7,2 C 67 % 1008,1 hPa 0,0 l/m 13,8 km/h (3 Bft) W 275 0 min 0,000 mm 0,0 UV-I 0 W/m 2,8 C 4,0 C 20,9 km/h (4 Bft) 94,00 %
30.10.2018 18:12 8,6 C 10,6 C 7,2 C 67 % 1008,2 hPa 0,0 l/m 15,4 km/h (3 Bft) W 270 0 min 0,000 mm 0,0 UV-I 0 W/m 2,8 C 3,3 C 20,9 km/h (4 Bft) 94,00 %
30.10.2018 18:14 8,5 C 10,6 C 7,2 C 67 % 1008,2 hPa 0,0 l/m 17,1 km/h (3 Bft) W-SW 247 0 min 0,000 mm 0,0 UV-I 0 W/m 2,7 C 2,4 C 25,7 km/h (4 Bft) 95,74 %
30.10.2018 18:16 8,5 C 10,6 C 7,2 C 67 % 1008,2 hPa 0,0 l/m 12,5 km/h (3 Bft) W 271 0 min 0,000 mm 0,0 UV-I 0 W/m 2,7 C 4,5 C 17,7 km/h (3 Bft) 93,62 %
30.10.2018 18:18 8,4 C 10,6 C 7,2 C 67 % 1008,2 hPa 0,0 l/m 14,4 km/h (3 Bft) W 279 0 min 0,000 mm 0,0 UV-I 0 W/m 2,6 C 3,5 C 22,5 km/h (4 Bft) 94,74 %
30.10.2018 18:20 8,4 C 10,6 C 7,2 C 68 % 1008,3 hPa 0,0 l/m 14,2 km/h (3 Bft) W-SW 248 0 min 0,000 mm 0,0 UV-I 0 W/m 2,8 C 3,6 C 20,9 km/h (4 Bft) 95,74 %
30.10.2018 18:22 8,4 C 10,6 C 7,2 C 68 % 1008,3 hPa 0,0 l/m 8,3 km/h (2 Bft) W 270 0 min 0,000 mm 0,0 UV-I 0 W/m 2,8 C 7,0 C 16,1 km/h (3 Bft) 94,00 %
30.10.2018 18:24 8,3 C 10,6 C 6,7 C 68 % 1008,4 hPa 0,0 l/m 8,4 km/h (2 Bft) NW 314 0 min 0,000 mm 0,0 UV-I 0 W/m 2,7 C 6,8 C 14,5 km/h (3 Bft) 95,83 %
30.10.2018 18:26 8,3 C 10,6 C 6,7 C 68 % 1008,4 hPa 0,0 l/m 8,8 km/h (2 Bft) W-SW 248 0 min 0,000 mm 0,0 UV-I 0 W/m 2,7 C 6,5 C 16,1 km/h (3 Bft) 95,74 %
30.10.2018 18:28 8,2 C 10,6 C 6,7 C 69 % 1008,5 hPa 0,0 l/m 10,3 km/h (2 Bft) W 272 0 min 0,000 mm 0,0 UV-I 0 W/m 2,9 C 5,4 C 16,1 km/h (3 Bft) 96,00 %
30.10.2018 18:30 8,2 C 10,6 C 6,7 C 69 % 1008,6 hPa 0,0 l/m 10,7 km/h (2 Bft) W-SW 252 0 min 0,000 mm 0,0 UV-I 0 W/m 2,9 C 5,2 C 17,7 km/h (3 Bft) 97,87 %
30.10.2018 18:32 8,1 C 10,6 C 6,1 C 69 % 1008,5 hPa 0,0 l/m 8,5 km/h (2 Bft) W 262 0 min 0,000 mm 0,0 UV-I 0 W/m 2,8 C 6,5 C 12,9 km/h (3 Bft) 97,87 %
30.10.2018 18:34 8,1 C 10,6 C 6,1 C 69 % 1008,6 hPa 0,0 l/m 15,1 km/h (3 Bft) W 281 0 min 0,000 mm 0,0 UV-I 0 W/m 2,8 C 2,8 C 19,3 km/h (3 Bft) 100,00 %
30.10.2018 18:36 8,1 C 10,6 C 6,7 C 69 % 1008,7 hPa 0,0 l/m 12,8 km/h (3 Bft) W-SW 257 0 min 0,000 mm 0,0 UV-I 0 W/m 2,8 C 3,9 C 19,3 km/h (3 Bft) 100,00 %
30.10.2018 18:38 8,1 C 10,6 C 6,7 C 69 % 1008,7 hPa 0,0 l/m 13,4 km/h (3 Bft) W 261 0 min 0,000 mm 0,0 UV-I 0 W/m 2,8 C 3,6 C 19,3 km/h (3 Bft) 100,00 %
30.10.2018 18:40 8,1 C 10,6 C 6,7 C 69 % 1008,8 hPa 0,0 l/m 12,2 km/h (2 Bft) W 272 0 min 0,000 mm 0,0 UV-I 0 W/m 2,8 C 4,2 C 14,5 km/h (3 Bft) 98,00 %
30.10.2018 18:42 8,0 C 10,6 C 6,1 C 70 % 1008,9 hPa 0,0 l/m 9,4 km/h (2 Bft) W 277 0 min 0,000 mm 0,0 UV-I 0 W/m 2,9 C 5,8 C 12,9 km/h (3 Bft) 100,00 %
30.10.2018 18:44 7,9 C 10,6 C 6,1 C 70 % 1008,8 hPa 0,0 l/m 7,2 km/h (2 Bft) W 267 0 min 0,000 mm 0,0 UV-I 0 W/m 2,8 C 7,3 C 11,3 km/h (2 Bft) 97,87 %
30.10.2018 18:46 7,8 C 10,6 C 6,1 C 70 % 1008,9 hPa 0,0 l/m 8,2 km/h (2 Bft) W-SW 240 0 min 0,000 mm 0,0 UV-I 0 W/m 2,7 C 6,4 C 12,9 km/h (3 Bft) 100,00 %
30.10.2018 18:48 7,8 C 10,6 C 5,6 C 70 % 1009,0 hPa 0,0 l/m 6,6 km/h (2 Bft) W-SW 250 0 min 0,000 mm 0,0 UV-I 0 W/m 2,7 C 7,7 C 11,3 km/h (2 Bft) 100,00 %
30.10.2018 18:50 7,7 C 10,6 C 5,6 C 71 % 1009,1 hPa 0,0 l/m 6,8 km/h (2 Bft) W 262 0 min 0,000 mm 0,0 UV-I 0 W/m 2,8 C 7,4 C 11,3 km/h (2 Bft) 100,00 %
30.10.2018 18:52 7,7 C 10,6 C 5,6 C 71 % 1009,1 hPa 0,0 l/m 6,6 km/h (2 Bft) W 263 0 min 0,000 mm 0,0 UV-I 0 W/m 2,8 C 7,6 C 11,3 km/h (2 Bft) 100,00 %
30.10.2018 18:54 7,6 C 10,6 C 5,0 C 71 % 1009,1 hPa 0,0 l/m 6,4 km/h (2 Bft) W 268 0 min 0,000 mm 0,0 UV-I 0 W/m 2,7 C 7,6 C 9,7 km/h (2 Bft) 97,22 %
30.10.2018 18:56 7,6 C 10,6 C 5,0 C 72 % 1009,1 hPa 0,0 l/m 5,5 km/h (1 Bft) W 273 0 min 0,000 mm 0,0 UV-I 0 W/m 2,9 C 7,6 C 8,0 km/h (2 Bft) 96,00 %
30.10.2018 18:58 7,5 C 10,6 C 5,0 C 72 % 1009,2 hPa 0,0 l/m 5,8 km/h (2 Bft) W-SW 248 0 min 0,000 mm 0,0 UV-I 0 W/m 2,8 C 7,5 C 9,7 km/h (2 Bft) 95,74 %
30.10.2018 19:00 7,4 C 10,6 C 5,0 C 73 % 1009,2 hPa 0,0 l/m 5,2 km/h (1 Bft) SW 233 0 min 0,000 mm 0,0 UV-I 0 W/m 2,9 C 7,4 C 9,7 km/h (2 Bft) 98,00 %
30.10.2018 19:02 7,4 C 10,6 C 5,0 C 73 % 1009,3 hPa 0,0 l/m 5,7 km/h (1 Bft) W-SW 247 0 min 0,026 mm 0,0 UV-I 0 W/m 2,9 C 7,4 C 9,7 km/h (2 Bft) 95,74 %
30.10.2018 19:04 7,4 C 10,6 C 5,0 C 73 % 1009,4 hPa 0,0 l/m 6,2 km/h (2 Bft) W-SW 245 0 min 0,000 mm 0,0 UV-I 0 W/m 2,9 C 7,4 C 9,7 km/h (2 Bft) 97,87 %
30.10.2018 19:06 7,3 C 10,6 C 5,0 C 74 % 1009,5 hPa 0,0 l/m 7,0 km/h (2 Bft) W-SW 245 0 min 0,000 mm 0,0 UV-I 0 W/m 3,0 C 6,8 C 12,9 km/h (3 Bft) 97,87 %
30.10.2018 19:09 7,3 C 10,6 C 5,0 C 74 % 1009,5 hPa 0,0 l/m 8,2 km/h (2 Bft) W-SW 247 0 min 0,000 mm 0,0 UV-I 0 W/m 3,0 C 5,9 C 11,3 km/h (2 Bft) 97,37 %
30.10.2018 19:10 7,2 C 10,6 C 5,0 C 74 % 1009,5 hPa 0,0 l/m 5,9 km/h (2 Bft) W-SW 250 0 min 0,000 mm 0,0 UV-I 0 W/m 2,9 C 7,2 C 8,0 km/h (2 Bft) 100,00 %
30.10.2018 19:12 7,2 C 10,6 C 5,0 C 74 % 1009,6 hPa 0,0 l/m 6,5 km/h (2 Bft) SW 216 0 min 0,000 mm 0,0 UV-I 0 W/m 2,9 C 7,1 C 9,7 km/h (2 Bft) 97,87 %
30.10.2018 19:14 7,1 C 10,6 C 5,0 C 75 % 1009,7 hPa 0,0 l/m 7,7 km/h (2 Bft) SW 230 0 min 0,000 mm 0,0 UV-I 0 W/m 3,0 C 6,0 C 11,3 km/h (2 Bft) 97,73 %
30.10.2018 19:16 7,1 C 10,6 C 5,0 C 75 % 1009,6 hPa 0,0 l/m 6,8 km/h (2 Bft) SW 221 0 min 0,000 mm 0,0 UV-I 0 W/m 3,0 C 6,8 C 9,7 km/h (2 Bft) 97,87 %
30.10.2018 19:18 7,1 C 10,6 C 5,0 C 75 % 1009,7 hPa 0,0 l/m 6,1 km/h (2 Bft) W-SW 252 0 min 0,000 mm 0,0 UV-I 0 W/m 3,0 C 7,1 C 9,7 km/h (2 Bft) 100,00 %
30.10.2018 19:20 7,1 C 10,6 C 5,0 C 75 % 1009,7 hPa 0,0 l/m 5,6 km/h (1 Bft) SW 227 0 min 0,000 mm 0,0 UV-I 0 W/m 3,0 C 7,1 C 8,0 km/h (2 Bft) 100,00 %
30.10.2018 19:22 7,1 C 10,6 C 5,0 C 75 % 1009,8 hPa 0,0 l/m 4,9 km/h (1 Bft) SW 234 0 min 0,000 mm 0,0 UV-I 0 W/m 3,0 C 7,1 C 6,4 km/h (2 Bft) 100,00 %
30.10.2018 19:24 7,0 C 10,6 C 5,0 C 75 % 1009,8 hPa 0,0 l/m 5,0 km/h (1 Bft) SW 227 0 min 0,000 mm 0,0 UV-I 0 W/m 2,9 C 7,0 C 8,0 km/h (2 Bft) 100,00 %
30.10.2018 19:26 6,9 C 10,6 C 5,0 C 75 % 1009,8 hPa 0,0 l/m 5,3 km/h (1 Bft) SW 215 0 min 0,000 mm 0,0 UV-I 0 W/m 2,8 C 6,9 C 9,7 km/h (2 Bft) 98,11 %
30.10.2018 19:28 6,8 C 10,6 C 4,4 C 75 % 1009,8 hPa 0,0 l/m 4,6 km/h (1 Bft) SW 217 0 min 0,000 mm 0,0 UV-I 0 W/m 2,7 C 6,8 C 6,4 km/h (2 Bft) 100,00 %
30.10.2018 19:30 6,8 C 10,6 C 5,0 C 76 % 1009,8 hPa 0,0 l/m 4,6 km/h (1 Bft) SW 216 0 min 0,000 mm 0,0 UV-I 0 W/m 2,9 C 6,8 C 6,4 km/h (2 Bft) 100,00 %
30.10.2018 19:32 6,8 C 10,6 C 5,0 C 75 % 1009,9 hPa 0,0 l/m 4,3 km/h (1 Bft) S-SW 199 0 min 0,000 mm 0,0 UV-I 0 W/m 2,7 C 6,8 C 6,4 km/h (2 Bft) 100,00 %
30.10.2018 19:34 6,8 C 10,6 C 4,4 C 75 % 1009,9 hPa 0,0 l/m 3,9 km/h (1 Bft) S-SW 199 0 min 0,000 mm 0,0 UV-I 0 W/m 2,7 C 6,8 C 6,4 km/h (2 Bft) 97,87 %
30.10.2018 19:36 6,7 C 10,6 C 4,4 C 76 % 1009,9 hPa 0,0 l/m 2,7 km/h (1 Bft) S-SW 199 0 min 0,000 mm 0,0 UV-I 0 W/m 2,8 C 6,7 C 3,2 km/h (1 Bft) 97,87 %
30.10.2018 19:38 6,5 C 10,6 C 3,9 C 77 % 1010,0 hPa 0,0 l/m 4,3 km/h (1 Bft) S 170 0 min 0,000 mm 0,0 UV-I 0 W/m 2,8 C 6,5 C 6,4 km/h (2 Bft) 97,92 %
30.10.2018 19:40 6,4 C 10,6 C 3,9 C 77 % 1010,0 hPa 0,0 l/m 5,1 km/h (1 Bft) S-SW 204 0 min 0,000 mm 0,0 UV-I 0 W/m 2,7 C 6,4 C 6,4 km/h (2 Bft) 100,00 %
30.10.2018 19:42 6,6 C 10,6 C 3,9 C 77 % 1010,0 hPa 0,0 l/m 3,2 km/h (1 Bft) S-SW 204 0 min 0,000 mm 0,0 UV-I 0 W/m 2,9 C 6,6 C 4,8 km/h (1 Bft) 100,00 %
30.10.2018 19:44 6,6 C 10,6 C 3,9 C 76 % 1010,1 hPa 0,0 l/m 3,3 km/h (1 Bft) S-SW 204 0 min 0,000 mm 0,0 UV-I 0 W/m 2,7 C 6,6 C 4,8 km/h (1 Bft) 100,00 %
30.10.2018 19:46 6,6 C 10,6 C 3,9 C 76 % 1010,1 hPa 0,0 l/m 3,6 km/h (1 Bft) S-SW 204 0 min 0,000 mm 0,0 UV-I 0 W/m 2,7 C 6,6 C 4,8 km/h (1 Bft) 100,00 %
30.10.2018 19:48 6,4 C 10,6 C 3,3 C 77 % 1010,1 hPa 0,0 l/m 2,6 km/h (1 Bft) S-SW 204 0 min 0,000 mm 0,0 UV-I 0 W/m 2,7 C 6,4 C 3,2 km/h (1 Bft) 97,87 %
30.10.2018 19:50 6,2 C 10,6 C 3,3 C 78 % 1010,1 hPa 0,0 l/m 3,5 km/h (1 Bft) S-SW 204 0 min 0,000 mm 0,0 UV-I 0 W/m 2,7 C 6,2 C 4,8 km/h (1 Bft) 100,00 %
30.10.2018 19:52 5,9 C 10,6 C 2,8 C 79 % 1010,1 hPa 0,0 l/m 4,3 km/h (1 Bft) S-SW 204 0 min 0,000 mm 0,0 UV-I 0 W/m 2,5 C 5,9 C 6,4 km/h (2 Bft) 100,00 %
30.10.2018 19:54 5,8 C 10,6 C 2,8 C 79 % 1010,2 hPa 0,0 l/m 3,1 km/h (1 Bft) S-SW 204 0 min 0,000 mm 0,0 UV-I 0 W/m 2,4 C 5,8 C 4,8 km/h (1 Bft) 100,00 %
30.10.2018 19:56 5,8 C 10,6 C 2,2 C 79 % 1010,2 hPa 0,0 l/m 2,7 km/h (1 Bft) S-SW 204 0 min 0,000 mm 0,0 UV-I 0 W/m 2,4 C 5,8 C 3,2 km/h (1 Bft) 97,87 %
30.10.2018 19:58 5,7 C 10,6 C 2,2 C 80 % 1010,2 hPa 0,0 l/m 1,8 km/h (1 Bft) S-SW 204 0 min 0,000 mm 0,0 UV-I 0 W/m 2,5 C 5,7 C 3,2 km/h (1 Bft) 97,87 %
30.10.2018 20:00 5,6 C 10,6 C 1,7 C 81 % 1010,1 hPa 0,0 l/m 2,1 km/h (1 Bft) S-SW 204 0 min 0,025 mm 0,0 UV-I 0 W/m 2,6 C 5,6 C 3,2 km/h (1 Bft) 95,74 %
30.10.2018 20:02 5,7 C 10,6 C 1,1 C 81 % 1010,2 hPa 0,0 l/m 1,7 km/h (1 Bft) S-SW 204 0 min 0,000 mm 0,0 UV-I 0 W/m 2,7 C 5,7 C 4,8 km/h (1 Bft) 97,87 %
30.10.2018 20:04 5,7 C 10,6 C 1,1 C 80 % 1010,3 hPa 0,0 l/m 0,9 km/h (0 Bft) S-SW 204 0 min 0,000 mm 0,0 UV-I 0 W/m 2,5 C 5,7 C 1,6 km/h (1 Bft) 97,87 %
30.10.2018 20:06 5,7 C 10,6 C 0,6 C 81 % 1010,3 hPa 0,0 l/m 0,0 km/h (0 Bft) S-SW 204 0 min 0,000 mm 0,0 UV-I 0 W/m 2,7 C 5,7 C 1,6 km/h (1 Bft) 98,00 %
30.10.2018 20:08 5,8 C 10,6 C 0,6 C 81 % 1010,3 hPa 0,0 l/m 0,9 km/h (0 Bft) S-SW 204 0 min 0,000 mm 0,0 UV-I 0 W/m 2,8 C 5,8 C 3,2 km/h (1 Bft) 95,74 %
30.10.2018 20:10 5,7 C 10,6 C 0,6 C 80 % 1010,4 hPa 0,0 l/m 2,3 km/h (1 Bft) S-SW 204 0 min 0,000 mm 0,0 UV-I 0 W/m 2,5 C 5,7 C 3,2 km/h (1 Bft) 95,74 %
30.10.2018 20:12 5,7 C 10,6 C 1,1 C 80 % 1010,4 hPa 0,0 l/m 2,9 km/h (1 Bft) S-SW 204 0 min 0,000 mm 0,0 UV-I 0 W/m 2,5 C 5,7 C 4,8 km/h (1 Bft) 94,87 %
30.10.2018 20:14 5,5 C 10,6 C 1,1 C 80 % 1010,5 hPa 0,0 l/m 3,1 km/h (1 Bft) S-SW 204 0 min 0,000 mm 0,0 UV-I 0 W/m 2,3 C 5,5 C 4,8 km/h (1 Bft) 95,74 %
30.10.2018 20:16 5,3 C 10,6 C 1,1 C 80 % 1010,5 hPa 0,0 l/m 2,9 km/h (1 Bft) S-SW 204 0 min 0,000 mm 0,0 UV-I 0 W/m 2,1 C 5,3 C 4,8 km/h (1 Bft) 94,00 %
30.10.2018 20:18 5,1 C 10,6 C 1,7 C 81 % 1010,6 hPa 0,0 l/m 3,4 km/h (1 Bft) S-SW 193 0 min 0,000 mm 0,0 UV-I 0 W/m 2,1 C 5,1 C 4,8 km/h (1 Bft) 94,74 %
30.10.2018 20:20 5,2 C 10,6 C 1,7 C 82 % 1010,6 hPa 0,0 l/m 1,8 km/h (1 Bft) S-SW 193 0 min 0,000 mm 0,0 UV-I 0 W/m 2,4 C 5,2 C 3,2 km/h (1 Bft) 98,21 %
30.10.2018 20:22 5,2 C 10,6 C 1,7 C 82 % 1010,7 hPa 0,0 l/m 1,1 km/h (1 Bft) S-SW 193 0 min 0,000 mm 0,0 UV-I 0 W/m 2,4 C 5,2 C 3,2 km/h (1 Bft) 94,00 %
30.10.2018 20:24 5,2 C 10,6 C 1,1 C 82 % 1010,6 hPa 0,0 l/m 2,1 km/h (1 Bft) S-SW 193 0 min 0,000 mm 0,0 UV-I 0 W/m 2,4 C 5,2 C 3,2 km/h (1 Bft) 93,62 %
30.10.2018 20:26 5,4 C 10,6 C 1,1 C 81 % 1010,7 hPa 0,0 l/m 1,5 km/h (1 Bft) S-SW 193 0 min 0,000 mm 0,0 UV-I 0 W/m 2,4 C 5,4 C 1,6 km/h (1 Bft) 95,74 %
30.10.2018 20:29 5,4 C 10,6 C 0,6 C 81 % 1010,8 hPa 0,0 l/m 2,1 km/h (1 Bft) S-SW 193 0 min 0,000 mm 0,0 UV-I 0 W/m 2,4 C 5,4 C 3,2 km/h (1 Bft) 91,43 %
30.10.2018 20:30 5,3 C 10,6 C 0,6 C 81 % 1010,8 hPa 0,0 l/m 1,9 km/h (1 Bft) S-SW 193 0 min 0,000 mm 0,0 UV-I 0 W/m 2,3 C 5,3 C 3,2 km/h (1 Bft) 100,00 %
30.10.2018 20:32 5,2 C 10,6 C 0,6 C 81 % 1010,7 hPa 0,0 l/m 2,1 km/h (1 Bft) S-SW 193 0 min 0,000 mm 0,0 UV-I 0 W/m 2,2 C 5,2 C 3,2 km/h (1 Bft) 95,74 %
30.10.2018 20:34 5,2 C 10,6 C 0,6 C 82 % 1010,8 hPa 0,0 l/m 2,7 km/h (1 Bft) S-SW 193 0 min 0,000 mm 0,0 UV-I 0 W/m 2,4 C 5,2 C 3,2 km/h (1 Bft) 93,62 %
30.10.2018 20:36 5,2 C 10,6 C 1,7 C 82 % 1010,9 hPa 0,0 l/m 3,4 km/h (1 Bft) S-SW 193 0 min 0,000 mm 0,0 UV-I 0 W/m 2,4 C 5,2 C 4,8 km/h (1 Bft) 100,00 %
30.10.2018 20:38 5,2 C 10,6 C 2,2 C 82 % 1011,0 hPa 0,0 l/m 3,3 km/h (1 Bft) S-SW 193 0 min 0,000 mm 0,0 UV-I 0 W/m 2,4 C 5,2 C 4,8 km/h (1 Bft) 97,87 %
30.10.2018 20:40 5,3 C 10,6 C 2,8 C 82 % 1011,0 hPa 0,0 l/m 3,2 km/h (1 Bft) S-SW 193 0 min 0,000 mm 0,0 UV-I 0 W/m 2,5 C 5,3 C 4,8 km/h (1 Bft) 95,74 %
30.10.2018 20:42 5,4 C 10,6 C 2,2 C 82 % 1011,1 hPa 0,0 l/m 3,7 km/h (1 Bft) S-SW 193 0 min 0,000 mm 0,0 UV-I 0 W/m 2,6 C 5,4 C 4,8 km/h (1 Bft) 100,00 %
30.10.2018 20:44 5,4 C 10,6 C 2,2 C 81 % 1011,1 hPa 0,0 l/m 4,3 km/h (1 Bft) S 190 0 min 0,000 mm 0,0 UV-I 0 W/m 2,4 C 5,4 C 6,4 km/h (2 Bft) 100,00 %
30.10.2018 20:46 5,4 C 10,6 C 2,2 C 81 % 1011,1 hPa 0,0 l/m 4,5 km/h (1 Bft) S 190 0 min 0,000 mm 0,0 UV-I 0 W/m 2,4 C 5,4 C 6,4 km/h (2 Bft) 97,87 %
30.10.2018 20:48 5,4 C 10,6 C 2,2 C 81 % 1011,1 hPa 0,0 l/m 3,8 km/h (1 Bft) S 190 0 min 0,000 mm 0,0 UV-I 0 W/m 2,4 C 5,4 C 6,4 km/h (2 Bft) 97,92 %
30.10.2018 20:50 5,4 C 10,6 C 2,2 C 81 % 1011,1 hPa 0,0 l/m 3,5 km/h (1 Bft) S 190 0 min 0,000 mm 0,0 UV-I 0 W/m 2,4 C 5,4 C 4,8 km/h (1 Bft) 97,83 %
30.10.2018 20:52 5,4 C 10,6 C 2,2 C 81 % 1011,1 hPa 0,0 l/m 3,6 km/h (1 Bft) S 190 0 min 0,000 mm 0,0 UV-I 0 W/m 2,4 C 5,4 C 4,8 km/h (1 Bft) 95,83 %
30.10.2018 20:54 5,3 C 10,6 C 1,7 C 81 % 1011,2 hPa 0,0 l/m 3,0 km/h (1 Bft) S 190 0 min 0,000 mm 0,0 UV-I 0 W/m 2,3 C 5,3 C 4,8 km/h (1 Bft) 95,74 %
30.10.2018 20:56 5,2 C 10,6 C 1,7 C 81 % 1011,2 hPa 0,0 l/m 2,8 km/h (1 Bft) S 190 0 min 0,000 mm 0,0 UV-I 0 W/m 2,2 C 5,2 C 3,2 km/h (1 Bft) 96,00 %
30.10.2018 20:58 5,1 C 10,6 C 1,7 C 82 % 1011,3 hPa 0,0 l/m 2,7 km/h (1 Bft) S 190 0 min 0,000 mm 0,0 UV-I 0 W/m 2,3 C 5,1 C 4,8 km/h (1 Bft) 97,87 %
30.10.2018 21:00 5,1 C 10,6 C 1,1 C 83 % 1011,3 hPa 0,0 l/m 2,5 km/h (1 Bft) S 190 0 min 0,000 mm 0,0 UV-I 0 W/m 2,5 C 5,1 C 3,2 km/h (1 Bft) 93,62 %
30.10.2018 21:02 5,1 C 10,6 C 1,1 C 83 % 1011,3 hPa 0,0 l/m 1,9 km/h (1 Bft) S 190 0 min 0,000 mm 0,0 UV-I 0 W/m 2,5 C 5,1 C 3,2 km/h (1 Bft) 98,00 %
30.10.2018 21:04 5,2 C 10,6 C 0,6 C 83 % 1011,4 hPa 0,0 l/m 1,6 km/h (1 Bft) S 190 0 min 0,000 mm 0,0 UV-I 0 W/m 2,6 C 5,2 C 3,2 km/h (1 Bft) 97,87 %
30.10.2018 21:06 5,2 C 10,6 C 0,6 C 83 % 1011,4 hPa 0,0 l/m 2,1 km/h (1 Bft) S 190 0 min 0,000 mm 0,0 UV-I 0 W/m 2,6 C 5,2 C 3,2 km/h (1 Bft) 97,14 %
30.10.2018 21:08 5,3 C 10,6 C 0,0 C 82 % 1011,4 hPa 0,0 l/m 1,9 km/h (1 Bft) S 190 0 min 0,000 mm 0,0 UV-I 0 W/m 2,5 C 5,3 C 3,2 km/h (1 Bft) 97,87 %
30.10.2018 21:10 5,3 C 10,6 C 0,0 C 82 % 1011,5 hPa 0,0 l/m 1,4 km/h (1 Bft) S 190 0 min 0,000 mm 0,0 UV-I 0 W/m 2,5 C 5,3 C 1,6 km/h (1 Bft) 97,87 %
30.10.2018 21:12 5,3 C 10,6 C 0,0 C 82 % 1011,5 hPa 0,0 l/m 1,0 km/h (0 Bft) S 190 0 min 0,000 mm 0,0 UV-I 0 W/m 2,5 C 5,3 C 1,6 km/h (1 Bft) 98,00 %
30.10.2018 21:14 5,2 C 10,6 C 0,0 C 82 % 1011,5 hPa 0,0 l/m 1,3 km/h (1 Bft) S 190 0 min 0,000 mm 0,0 UV-I 0 W/m 2,4 C 5,2 C 1,6 km/h (1 Bft) 97,87 %
30.10.2018 21:16 5,2 C 10,6 C -0,6 C 82 % 1011,4 hPa 0,0 l/m 1,1 km/h (1 Bft) S 190 0 min 0,000 mm 0,0 UV-I 0 W/m 2,4 C 5,2 C 1,6 km/h (1 Bft) 95,74 %
30.10.2018 21:18 5,2 C 10,6 C -0,6 C 82 % 1011,4 hPa 0,0 l/m 0,1 km/h (0 Bft) S 190 0 min 0,000 mm 0,0 UV-I 0 W/m 2,4 C 5,2 C 1,6 km/h (1 Bft) 93,62 %
30.10.2018 21:20 5,1 C 10,6 C -0,6 C 82 % 1011,5 hPa 0,0 l/m 0,1 km/h (0 Bft) S 190 0 min 0,000 mm 0,0 UV-I 0 W/m 2,3 C 5,1 C 1,6 km/h (1 Bft) 96,00 %
30.10.2018 21:22 4,9 C 10,6 C 0,0 C 83 % 1011,6 hPa 0,0 l/m 0,0 km/h (0 Bft) S 190 0 min 0,000 mm 0,0 UV-I 0 W/m 2,3 C 4,9 C 1,6 km/h (1 Bft) 97,87 %
30.10.2018 21:24 4,7 C 10,6 C 0,0 C 83 % 1011,6 hPa 0,0 l/m 1,0 km/h (0 Bft) S 190 0 min 0,000 mm 0,0 UV-I 0 W/m 2,1 C 4,7 C 3,2 km/h (1 Bft) 95,74 %
30.10.2018 21:26 4,5 C 10,6 C 0,0 C 83 % 1011,6 hPa 0,0 l/m 2,0 km/h (1 Bft) S 190 0 min 0,000 mm 0,0 UV-I 0 W/m 1,9 C 4,5 C 3,2 km/h (1 Bft) 93,62 %
30.10.2018 21:28 4,3 C 10,6 C 0,0 C 85 % 1011,7 hPa 0,0 l/m 1,8 km/h (1 Bft) S 190 0 min 0,000 mm 0,0 UV-I 0 W/m 2,0 C 4,3 C 3,2 km/h (1 Bft) 95,74 %
30.10.2018 21:30 4,3 C 10,6 C 0,0 C 85 % 1011,8 hPa 0,0 l/m 1,7 km/h (1 Bft) S 190 0 min 0,000 mm 0,0 UV-I 0 W/m 2,0 C 4,3 C 3,2 km/h (1 Bft) 95,74 %
30.10.2018 21:32 4,2 C 10,6 C 0,6 C 85 % 1011,8 hPa 0,0 l/m 2,5 km/h (1 Bft) S 190 0 min 0,000 mm 0,0 UV-I 0 W/m 1,9 C 4,2 C 3,2 km/h (1 Bft) 93,75 %
30.10.2018 21:34 4,1 C 10,6 C 0,6 C 85 % 1011,8 hPa 0,0 l/m 1,8 km/h (1 Bft) S 190 0 min 0,000 mm 0,0 UV-I 0 W/m 1,8 C 4,1 C 3,2 km/h (1 Bft) 97,37 %
30.10.2018 21:36 4,1 C 10,6 C 0,0 C 86 % 1011,8 hPa 0,0 l/m 0,6 km/h (0 Bft) S 190 0 min 0,000 mm 0,0 UV-I 0 W/m 2,0 C 4,1 C 1,6 km/h (1 Bft) 95,74 %
30.10.2018 21:38 4,2 C 10,6 C 0,6 C 86 % 1011,8 hPa 0,0 l/m 0,6 km/h (0 Bft) S 190 0 min 0,000 mm 0,0 UV-I 0 W/m 2,1 C 4,2 C 1,6 km/h (1 Bft) 93,62 %
30.10.2018 21:40 4,2 C 10,6 C 0,0 C 86 % 1011,9 hPa 0,0 l/m 0,8 km/h (0 Bft) S 190 0 min 0,000 mm 0,0 UV-I 0 W/m 2,1 C 4,2 C 1,6 km/h (1 Bft) 96,00 %
30.10.2018 21:42 4,2 C 10,6 C 0,0 C 86 % 1011,9 hPa 0,0 l/m 1,3 km/h (1 Bft) S 190 0 min 0,000 mm 0,0 UV-I 0 W/m 2,1 C 4,2 C 3,2 km/h (1 Bft) 93,62 %
30.10.2018 21:44 4,2 C 10,6 C 0,0 C 86 % 1011,9 hPa 0,0 l/m 1,6 km/h (1 Bft) S 190 0 min 0,000 mm 0,0 UV-I 0 W/m 2,1 C 4,2 C 3,2 km/h (1 Bft) 98,00 %
30.10.2018 21:46 4,0 C 10,6 C 0,0 C 86 % 1011,9 hPa 0,0 l/m 1,3 km/h (1 Bft) S 190 0 min 0,000 mm 0,0 UV-I 0 W/m 1,9 C 4,0 C 1,6 km/h (1 Bft) 100,00 %
30.10.2018 21:48 3,9 C 10,6 C -0,6 C 86 % 1011,9 hPa 0,0 l/m 1,4 km/h (1 Bft) S 190 0 min 0,000 mm 0,0 UV-I 0 W/m 1,8 C 3,9 C 1,6 km/h (1 Bft) 97,87 %
30.10.2018 21:50 3,9 C 10,6 C -0,6 C 87 % 1011,9 hPa 0,0 l/m 1,0 km/h (0 Bft) S 190 0 min 0,000 mm 0,0 UV-I 0 W/m 1,9 C 3,9 C 1,6 km/h (1 Bft) 100,00 %
30.10.2018 21:52 4,0 C 10,6 C -0,6 C 87 % 1011,9 hPa 0,0 l/m 0,0 km/h (0 Bft) S 190 0 min 0,000 mm 0,0 UV-I 0 W/m 2,0 C 4,0 C 0,0 km/h (0 Bft) 100,00 %
30.10.2018 21:54 4,0 C 10,6 C 0,0 C 86 % 1011,9 hPa 0,0 l/m 0,6 km/h (0 Bft) S 190 0 min 0,000 mm 0,0 UV-I 0 W/m 1,9 C 4,0 C 1,6 km/h (1 Bft) 97,87 %
30.10.2018 21:56 3,9 C 10,6 C 0,0 C 87 % 1011,9 hPa 0,0 l/m 1,8 km/h (1 Bft) S 190 0 min 0,000 mm 0,0 UV-I 0 W/m 1,9 C 3,9 C 4,8 km/h (1 Bft) 100,00 %
30.10.2018 21:59 4,0 C 10,6 C 0,0 C 87 % 1011,9 hPa 0,0 l/m 2,5 km/h (1 Bft) S 190 0 min 0,000 mm 0,0 UV-I 0 W/m 2,0 C 4,0 C 4,8 km/h (1 Bft) 97,18 %
30.10.2018 22:00 4,1 C 10,6 C -0,6 C 87 % 1011,9 hPa 0,0 l/m 1,1 km/h (1 Bft) S 190 0 min 0,000 mm 0,0 UV-I 0 W/m 2,1 C 4,1 C 1,6 km/h (1 Bft) 100,00 %
30.10.2018 22:02 4,2 C 10,6 C 0,0 C 87 % 1011,9 hPa 0,0 l/m 2,3 km/h (1 Bft) S 190 0 min 0,000 mm 0,0 UV-I 0 W/m 2,2 C 4,2 C 3,2 km/h (1 Bft) 100,00 %
30.10.2018 22:04 4,3 C 10,6 C 0,0 C 86 % 1011,8 hPa 0,0 l/m 1,7 km/h (1 Bft) S 190 0 min 0,000 mm 0,0 UV-I 0 W/m 2,2 C 4,3 C 3,2 km/h (1 Bft) 100,00 %
30.10.2018 22:06 4,3 C 10,6 C 0,0 C 86 % 1011,8 hPa 0,0 l/m 1,8 km/h (1 Bft) S 190 0 min 0,000 mm 0,0 UV-I 0 W/m 2,2 C 4,3 C 3,2 km/h (1 Bft) 97,87 %
30.10.2018 22:08 4,2 C 10,6 C 0,0 C 86 % 1011,9 hPa 0,0 l/m 0,3 km/h (0 Bft) S 190 0 min 0,000 mm 0,0 UV-I 0 W/m 2,1 C 4,2 C 1,6 km/h (1 Bft) 100,00 %
30.10.2018 22:10 4,2 C 10,6 C 0,0 C 86 % 1011,9 hPa 0,0 l/m 0,0 km/h (0 Bft) S 190 0 min 0,000 mm 0,0 UV-I 0 W/m 2,1 C 4,2 C 0,0 km/h (0 Bft) 95,74 %
30.10.2018 22:12 4,0 C 10,6 C 0,0 C 86 % 1011,9 hPa 0,0 l/m 0,0 km/h (0 Bft) S 190 0 min 0,000 mm 0,0 UV-I 0 W/m 1,9 C 4,0 C 0,0 km/h (0 Bft) 97,87 %
30.10.2018 22:14 3,9 C 10,6 C -0,6 C 86 % 1011,9 hPa 0,0 l/m 0,0 km/h (0 Bft) S 190 0 min 0,000 mm 0,0 UV-I 0 W/m 1,8 C 3,9 C 0,0 km/h (0 Bft) 100,00 %
30.10.2018 22:16 3,9 C 10,6 C 0,0 C 86 % 1012,0 hPa 0,0 l/m 0,9 km/h (0 Bft) S 190 0 min 0,000 mm 0,0 UV-I 0 W/m 1,8 C 3,9 C 1,6 km/h (1 Bft) 100,00 %
30.10.2018 22:18 3,8 C 10,6 C 0,0 C 86 % 1012,0 hPa 0,0 l/m 2,4 km/h (1 Bft) S 190 0 min 0,000 mm 0,0 UV-I 0 W/m 1,7 C 3,8 C 4,8 km/h (1 Bft) 97,87 %
30.10.2018 22:20 3,6 C 10,6 C 0,0 C 86 % 1012,0 hPa 0,0 l/m 1,8 km/h (1 Bft) S 190 0 min 0,000 mm 0,0 UV-I 0 W/m 1,5 C 3,6 C 3,2 km/h (1 Bft) 95,74 %
30.10.2018 22:22 3,5 C 10,6 C 0,0 C 87 % 1012,0 hPa 0,0 l/m 0,4 km/h (0 Bft) S 190 0 min 0,000 mm 0,0 UV-I 0 W/m 1,5 C 3,5 C 1,6 km/h (1 Bft) 97,87 %
30.10.2018 22:24 3,4 C 10,6 C -0,6 C 87 % 1012,1 hPa 0,0 l/m 0,2 km/h (0 Bft) S 190 0 min 0,000 mm 0,0 UV-I 0 W/m 1,4 C 3,4 C 1,6 km/h (1 Bft) 97,14 %
30.10.2018 22:26 3,6 C 10,6 C -0,6 C 88 % 1012,1 hPa 0,0 l/m 0,6 km/h (0 Bft) S 190 0 min 0,000 mm 0,0 UV-I 0 W/m 1,8 C 3,6 C 1,6 km/h (1 Bft) 97,87 %
30.10.2018 22:28 3,6 C 10,0 C -0,6 C 88 % 1012,1 hPa 0,0 l/m 0,3 km/h (0 Bft) S 190 0 min 0,000 mm 0,0 UV-I 0 W/m 1,8 C 3,6 C 1,6 km/h (1 Bft) 98,11 %
30.10.2018 22:30 3,6 C 10,0 C -0,6 C 88 % 1012,2 hPa 0,0 l/m 0,2 km/h (0 Bft) S 190 0 min 0,000 mm 0,0 UV-I 0 W/m 1,8 C 3,6 C 1,6 km/h (1 Bft) 98,00 %
30.10.2018 22:32 3,6 C 10,0 C -0,6 C 88 % 1012,1 hPa 0,0 l/m 0,5 km/h (0 Bft) S 190 0 min 0,000 mm 0,0 UV-I 0 W/m 1,8 C 3,6 C 1,6 km/h (1 Bft) 91,49 %
30.10.2018 22:34 3,7 C 10,0 C -0,6 C 88 % 1012,1 hPa 0,0 l/m 0,6 km/h (0 Bft) S 190 0 min 0,000 mm 0,0 UV-I 0 W/m 1,9 C 3,7 C 3,2 km/h (1 Bft) 95,74 %
30.10.2018 22:36 4,0 C 10,0 C -0,6 C 88 % 1012,0 hPa 0,0 l/m 3,9 km/h (1 Bft) S 169 0 min 0,000 mm 0,0 UV-I 0 W/m 2,2 C 4,0 C 8,0 km/h (2 Bft) 97,87 %
30.10.2018 22:38 4,2 C 10,0 C 0,0 C 87 % 1012,1 hPa 0,0 l/m 2,7 km/h (1 Bft) S 169 0 min 0,000 mm 0,0 UV-I 0 W/m 2,2 C 4,2 C 6,4 km/h (2 Bft) 95,74 %
30.10.2018 22:40 4,2 C 10,0 C -0,6 C 86 % 1012,1 hPa 0,0 l/m 1,2 km/h (1 Bft) S 169 0 min 0,000 mm 0,0 UV-I 0 W/m 2,1 C 4,2 C 3,2 km/h (1 Bft) 95,74 %
30.10.2018 22:42 4,1 C 10,0 C -0,6 C 86 % 1012,2 hPa 0,0 l/m 1,1 km/h (1 Bft) S 169 0 min 0,000 mm 0,0 UV-I 0 W/m 2,0 C 4,1 C 3,2 km/h (1 Bft) 95,74 %
30.10.2018 22:44 4,0 C 10,0 C -0,6 C 86 % 1012,2 hPa 0,0 l/m 1,5 km/h (1 Bft) S 169 0 min 0,000 mm 0,0 UV-I 0 W/m 1,9 C 4,0 C 3,2 km/h (1 Bft) 95,74 %
30.10.2018 22:46 3,9 C 10,0 C -0,6 C 86 % 1012,2 hPa 0,0 l/m 1,1 km/h (1 Bft) S 169 0 min 0,000 mm 0,0 UV-I 0 W/m 1,8 C 3,9 C 3,2 km/h (1 Bft) 93,62 %
30.10.2018 22:49 3,7 C 10,0 C 0,6 C 87 % 1012,1 hPa 0,0 l/m 2,1 km/h (1 Bft) W-NW 283 0 min 0,000 mm 0,0 UV-I 0 W/m 1,7 C 3,7 C 3,2 km/h (1 Bft) 92,96 %
30.10.2018 22:50 3,7 C 10,0 C 0,6 C 87 % 1012,1 hPa 0,0 l/m 2,3 km/h (1 Bft) W-NW 283 0 min 0,000 mm 0,0 UV-I 0 W/m 1,7 C 3,7 C 3,2 km/h (1 Bft) 100,00 %
30.10.2018 22:52 3,5 C 10,0 C 0,6 C 87 % 1012,2 hPa 0,0 l/m 0,2 km/h (0 Bft) W-NW 283 0 min 0,000 mm 0,0 UV-I 0 W/m 1,5 C 3,5 C 1,6 km/h (1 Bft) 95,74 %
30.10.2018 22:54 3,4 C 10,0 C 0,0 C 88 % 1012,1 hPa 0,0 l/m 0,8 km/h (0 Bft) W 281 0 min 0,000 mm 0,0 UV-I 0 W/m 1,6 C 3,4 C 3,2 km/h (1 Bft) 91,49 %
30.10.2018 22:56 3,4 C 10,6 C 0,0 C 88 % 1012,1 hPa 0,0 l/m 0,5 km/h (0 Bft) W 281 0 min 0,000 mm 0,0 UV-I 0 W/m 1,6 C 3,4 C 1,6 km/h (1 Bft) 95,74 %
30.10.2018 22:58 3,4 C 10,0 C -0,6 C 88 % 1012,1 hPa 0,0 l/m 0,5 km/h (0 Bft) W 281 0 min 0,000 mm 0,0 UV-I 0 W/m 1,6 C 3,4 C 1,6 km/h (1 Bft) 95,74 %
30.10.2018 23:00 3,4 C 10,0 C -0,6 C 88 % 1012,0 hPa 0,0 l/m 0,2 km/h (0 Bft) W 281 0 min 0,000 mm 0,0 UV-I 0 W/m 1,6 C 3,4 C 1,6 km/h (1 Bft) 95,74 %
30.10.2018 23:02 3,3 C 10,0 C -0,6 C 88 % 1012,1 hPa 0,0 l/m 1,1 km/h (1 Bft) W 281 0 min 0,000 mm 0,0 UV-I 0 W/m 1,5 C 3,3 C 3,2 km/h (1 Bft) 100,00 %
30.10.2018 23:04 3,3 C 10,0 C -0,6 C 89 % 1012,2 hPa 0,0 l/m 1,1 km/h (1 Bft) W 281 0 min 0,000 mm 0,0 UV-I 0 W/m 1,7 C 3,3 C 1,6 km/h (1 Bft) 100,00 %
30.10.2018 23:06 3,4 C 10,0 C -0,6 C 88 % 1012,1 hPa 0,0 l/m 1,2 km/h (1 Bft) W 281 0 min 0,000 mm 0,0 UV-I 0 W/m 1,6 C 3,4 C 1,6 km/h (1 Bft) 100,00 %
30.10.2018 23:08 3,3 C 10,0 C -1,1 C 88 % 1012,1 hPa 0,0 l/m 1,2 km/h (1 Bft) W 281 0 min 0,000 mm 0,0 UV-I 0 W/m 1,5 C 3,3 C 1,6 km/h (1 Bft) 98,00 %
30.10.2018 23:10 3,3 C 10,0 C -1,1 C 89 % 1012,1 hPa 0,0 l/m 0,8 km/h (0 Bft) W 281 0 min 0,000 mm 0,0 UV-I 0 W/m 1,7 C 3,3 C 1,6 km/h (1 Bft) 100,00 %
30.10.2018 23:12 3,3 C 10,0 C -1,1 C 89 % 1012,1 hPa 0,0 l/m 0,6 km/h (0 Bft) W 281 0 min 0,000 mm 0,0 UV-I 0 W/m 1,7 C 3,3 C 1,6 km/h (1 Bft) 100,00 %
30.10.2018 23:14 3,3 C 10,0 C -1,1 C 89 % 1012,1 hPa 0,0 l/m 1,3 km/h (1 Bft) W 281 0 min 0,000 mm 0,0 UV-I 0 W/m 1,7 C 3,3 C 1,6 km/h (1 Bft) 97,87 %
30.10.2018 23:16 3,4 C 10,0 C -1,1 C 89 % 1012,1 hPa 0,0 l/m 1,0 km/h (0 Bft) W 281 0 min 0,000 mm 0,0 UV-I 0 W/m 1,8 C 3,4 C 1,6 km/h (1 Bft) 100,00 %
30.10.2018 23:18 3,5 C 10,0 C -1,1 C 89 % 1012,1 hPa 0,0 l/m 0,0 km/h (0 Bft) W 281 0 min 0,000 mm 0,0 UV-I 0 W/m 1,9 C 3,5 C 0,0 km/h (0 Bft) 100,00 %
30.10.2018 23:20 3,5 C 10,0 C -1,1 C 88 % 1012,1 hPa 0,0 l/m 0,0 km/h (0 Bft) W 281 0 min 0,000 mm 0,0 UV-I 0 W/m 1,7 C 3,5 C 0,0 km/h (0 Bft) 100,00 %
30.10.2018 23:22 3,3 C 10,0 C -1,1 C 88 % 1012,2 hPa 0,0 l/m 0,0 km/h (0 Bft) W 281 0 min 0,000 mm 0,0 UV-I 0 W/m 1,5 C 3,3 C 0,0 km/h (0 Bft) 100,00 %
30.10.2018 23:24 3,1 C 10,0 C -0,6 C 88 % 1012,2 hPa 0,0 l/m 0,0 km/h (0 Bft) W 281 0 min 0,000 mm 0,0 UV-I 0 W/m 1,3 C 3,1 C 0,0 km/h (0 Bft) 100,00 %
30.10.2018 23:26 2,9 C 10,0 C -0,6 C 88 % 1012,3 hPa 0,0 l/m 0,7 km/h (0 Bft) W 281 0 min 0,000 mm 0,0 UV-I 0 W/m 1,1 C 2,9 C 1,6 km/h (1 Bft) 96,00 %
30.10.2018 23:28 2,8 C 10,0 C -0,6 C 89 % 1012,4 hPa 0,0 l/m 0,4 km/h (0 Bft) W 281 0 min 0,000 mm 0,0 UV-I 0 W/m 1,2 C 2,8 C 1,6 km/h (1 Bft) 100,00 %
30.10.2018 23:30 2,8 C 10,0 C -0,6 C 90 % 1012,3 hPa 0,0 l/m 0,0 km/h (0 Bft) W 281 0 min 0,000 mm 0,0 UV-I 0 W/m 1,3 C 2,8 C 0,0 km/h (0 Bft) 100,00 %
30.10.2018 23:32 3,0 C 10,0 C -0,6 C 91 % 1012,3 hPa 0,0 l/m 0,2 km/h (0 Bft) W 281 0 min 0,000 mm 0,0 UV-I 0 W/m 1,7 C 3,0 C 1,6 km/h (1 Bft) 100,00 %
30.10.2018 23:34 3,2 C 10,0 C -0,6 C 91 % 1012,3 hPa 0,0 l/m 0,4 km/h (0 Bft) W 281 0 min 0,000 mm 0,0 UV-I 0 W/m 1,9 C 3,2 C 1,6 km/h (1 Bft) 97,87 %
30.10.2018 23:36 3,3 C 10,0 C -0,6 C 90 % 1012,4 hPa 0,0 l/m 0,1 km/h (0 Bft) W 281 0 min 0,000 mm 0,0 UV-I 0 W/m 1,8 C 3,3 C 1,6 km/h (1 Bft) 97,87 %
30.10.2018 23:38 3,2 C 10,0 C -0,6 C 89 % 1012,4 hPa 0,0 l/m 0,8 km/h (0 Bft) W-NW 282 0 min 0,000 mm 0,0 UV-I 0 W/m 1,6 C 3,2 C 3,2 km/h (1 Bft) 97,87 %
30.10.2018 23:40 3,2 C 10,0 C -0,6 C 89 % 1012,5 hPa 0,0 l/m 3,5 km/h (1 Bft) N-NO 22 0 min 0,000 mm 0,0 UV-I 0 W/m 1,6 C 3,2 C 4,8 km/h (1 Bft) 100,00 %
30.10.2018 23:42 3,4 C 10,0 C -0,6 C 90 % 1012,6 hPa 0,0 l/m 4,0 km/h (1 Bft) NO 34 0 min 0,000 mm 0,0 UV-I 0 W/m 1,9 C 3,4 C 4,8 km/h (1 Bft) 95,74 %
30.10.2018 23:44 3,5 C 10,0 C 0,0 C 90 % 1012,7 hPa 0,0 l/m 5,4 km/h (1 Bft) NO 42 0 min 0,000 mm 0,0 UV-I 0 W/m 2,0 C 3,5 C 8,0 km/h (2 Bft) 95,74 %
30.10.2018 23:46 3,4 C 10,0 C 0,6 C 89 % 1012,8 hPa 0,0 l/m 5,1 km/h (1 Bft) NO 42 0 min 0,000 mm 0,0 UV-I 0 W/m 1,8 C 3,4 C 6,4 km/h (2 Bft) 97,14 %
30.10.2018 23:48 3,2 C 10,0 C 0,6 C 89 % 1012,8 hPa 0,0 l/m 4,8 km/h (1 Bft) O-NO 61 0 min 0,000 mm 0,0 UV-I 0 W/m 1,6 C 3,2 C 6,4 km/h (2 Bft) 96,00 %
30.10.2018 23:50 3,2 C 10,0 C 0,6 C 89 % 1012,9 hPa 0,0 l/m 4,6 km/h (1 Bft) O-NO 65 0 min 0,000 mm 0,0 UV-I 0 W/m 1,6 C 3,2 C 6,4 km/h (2 Bft) 95,74 %
30.10.2018 23:52 3,4 C 10,0 C 0,0 C 90 % 1012,9 hPa 0,0 l/m 4,3 km/h (1 Bft) O-NO 65 0 min 0,000 mm 0,0 UV-I 0 W/m 1,9 C 3,4 C 6,4 km/h (2 Bft) 91,67 %
30.10.2018 23:54 3,6 C 10,0 C 0,0 C 90 % 1012,9 hPa 0,0 l/m 3,5 km/h (1 Bft) O 84 0 min 0,000 mm 0,0 UV-I 0 W/m 2,1 C 3,6 C 6,4 km/h (2 Bft) 95,74 %
30.10.2018 23:56 3,7 C 10,0 C 0,6 C 89 % 1013,0 hPa 0,0 l/m 3,2 km/h (1 Bft) O 84 0 min 0,000 mm 0,0 UV-I 0 W/m 2,1 C 3,7 C 4,8 km/h (1 Bft) 91,49 %
30.10.2018 23:58 3,6 C 10,0 C 0,6 C 89 % 1013,0 hPa 0,0 l/m 2,2 km/h (1 Bft) O 84 0 min 0,000 mm 0,0 UV-I 0 W/m 2,0 C 3,6 C 3,2 km/h (1 Bft) 93,62 %
_ Min-Zeit 23:28 00:00 23:08 11:34 00:54 - 20:06 - - - - - - 23:26 17:38 21:52 10:16
Minimum _ 2,8 C 10,0 C -1,1 C 36 % 988,3 hPa - 0,0 km/h (0 Bft) - - - - - - 1,1 C 1,4 C 0,0 km/h (0 Bft) 89,29 %
_ Max-Zeit 11:40 10:18 10:40 23:32 23:56 00:40 07:52 - - 07:45 13:00 11:30 11:52 00:42 10:54 07:50 00:00
Maximum _ 19,1 C 10,6 C 24,4 C 91 % 1013,0 hPa 0,2 l/m 45,8 km/h
S (6 Bft)
- - 3 min 0,406 mm 1,2 UV-I 511 W/m 12,1 C 18,4 C 74,0 km/h
S-SO (8 Bft)
100,00 %
Durchschnitt _ 13,1 C 10,3 C 11,4 C 59 % 999,0 hPa #0,4 l/m 14,6 km/h (3 Bft) S - #6:48 h #3,378 mm 0,9 UV-I 236 W/m 4,6 C 9,8 C 23,3 km/h (4 Bft) 97,36 %